GFSWCAN_con_lsi_003.txt.gz
Lid_Strength_Index
4 4 4 3 2 2 2 3 3 3 2 2 2 2 2 3 4 1 0 -1 2 5 4 3 3 4 4 4 8 6 7 6 7 12 13 12 14 10 11 9 11 12 14 15 13 16 17 6 7 11 7 5 6 6
5 4 4 4 3 3 2 2 2 2 3 3 2 2 2 3 3 3 1 -1 -1 2 4 1 1 1 2 2 4 5 6 6 6 9 10 10 14 12 11 13 7 11 9 11 10 10 6 5 7 5 4 5 6 6
5 5 5 4 4 4 3 3 3 2 2 2 3 2 2 2 3 2 -0 -1 -0 4 3 3 4 1 -0 0 -0 5 4 4 5 3 7 9 13 9 14 11 9 7 5 9 9 7 6 6 5 4 4 5 5 5
5 5 5 5 5 5 5 3 3 3 3 2 2 3 2 3 3 3 0 -1 0 3 11 5 2 2 0 0 1 1 2 2 3 3 8 10 12 6 10 8 8 7 6 8 9 6 6 5 5 4 4 4 5 5
5 5 5 5 5 5 5 5 4 3 3 3 3 3 3 2 3 -1 -1 -1 -1 3 9 6 2 1 1 1 2 1 2 3 5 7 10 10 6 7 7 8 9 6 7 10 10 6 7 6 5 4 5 5 5 6
5 5 5 5 5 5 5 5 5 4 4 4 3 3 3 3 3 0 3 -0 -2 -0 5 11 3 3 2 2 2 3 3 3 4 6 8 6 4 6 12 11 6 5 4 4 6 5 6 5 5 5 5 6 6 7
3 4 5 5 5 5 5 5 5 5 5 4 3 3 3 3 -1 2 3 1 2 -1 6 9 8 3 3 3 3 3 3 4 4 6 7 7 6 6 10 12 6 5 4 5 5 5 7 6 6 5 6 6 6 6
3 3 4 5 5 5 5 5 5 5 4 4 3 3 3 3 3 1 -1 2 1 2 3 10 9 7 3 6 7 3 5 5 5 6 6 8 6 7 12 7 5 5 6 6 6 5 5 5 6 6 7 7 8 8
3 4 3 4 5 5 5 5 5 5 4 4 4 4 2 2 3 2 4 2 -2 2 7 10 11 12 4 7 7 7 6 10 5 10 8 7 9 12 8 6 6 6 6 6 6 6 6 7 8 8 8 8 9 8
3 4 4 4 5 5 5 5 5 5 4 4 4 6 10 7 4 3 1 4 5 4 4 9 6 10 5 8 9 9 8 10 12 9 8 12 11 6 6 6 6 6 6 6 7 8 8 9 9 9 9 8 8 8
2 2 3 4 4 4 4 5 4 5 5 6 9 11 7 5 5 6 9 9 8 11 8 7 7 8 5 9 11 9 11 11 13 10 11 11 11 8 6 7 6 6 5 6 6 7 9 9 9 9 8 7 8 7
2 2 2 2 3 4 4 4 4 5 6 7 7 6 7 8 10 10 12 12 12 11 11 12 10 7 9 7 11 13 13 12 14 9 12 13 8 7 7 6 6 6 7 8 9 9 9 8 8 8 7 8 7 7
2 2 2 2 2 2 3 4 5 5 5 6 10 12 12 13 14 13 14 13 13 12 12 12 13 12 11 10 13 12 13 13 10 13 13 9 8 7 6 7 7 7 8 9 9 9 8 8 7 8 8 7 7 6
2 1 1 1 2 1 2 2 3 4 6 11 13 13 13 13 13 12 12 12 12 11 12 12 13 12 12 12 12 13 13 12 14 15 13 9 8 7 7 7 7 8 10 10 9 8 8 8 8 7 8 7 8 7
2 1 1 1 1 2 3 3 3 3 7 11 11 14 13 12 12 12 12 12 11 10 10 10 11 10 12 13 12 13 15 15 14 13 10 8 8 9 9 9 9 10 10 9 8 8 8 8 7 7 6 5 5 6
1 1 -0 1 1 1 2 2 3 4 6 9 11 12 12 12 12 12 12 12 10 10 9 9 12 12 13 12 14 14 14 15 12 10 8 9 10 9 9 8 8 8 9 8 8 8 7 7 7 6 5 5 6 6
2 0 1 1 2 3 2 3 3 7 8 9 11 10 10 10 11 11 10 10 8 10 12 11 13 14 13 14 14 12 13 11 9 9 8 9 9 8 7 7 8 8 8 7 7 6 6 5 5 5 6 4 3 3
1 -0 1 1 0 2 4 4 5 5 9 7 9 10 9 9 10 10 9 9 9 10 10 11 11 13 14 14 13 10 10 8 8 8 8 8 8 8 7 7 6 6 6 6 5 5 5 5 5 4 4 3 3 3
-0 -1 0 1 1 3 5 6 4 8 7 7 8 8 9 10 10 9 9 9 8 8 9 10 12 12 12 11 10 9 8 8 8 8 7 7 7 7 7 6 6 6 6 5 5 4 3 3 3 3 3 3 3 2
0 0 1 1 1 3 6 6 4 6 7 7 7 7 8 8 9 9 8 8 7 7 9 10 9 8 8 7 7 6 6 6 7 7 7 7 6 6 6 5 5 4 4 4 3 4 3 2 2 2 2 2 3 3
2 2 2 2 2 3 4 5 6 6 7 7 8 6 9 8 9 9 8 6 8 8 9 7 6 5 5 5 5 5 5 5 6 6 7 7 5 5 4 4 3 3 3 3 3 3 3 2 2 1 3 3 3 3
2 2 5 4 5 6 6 5 6 5 6 7 7 6 8 9 9 9 7 8 8 6 5 5 5 5 5 5 5 4 4 5 5 5 6 5 5 4 4 3 3 3 2 3 2 3 3 2 1 1 3 4 3 3
3 4 6 6 7 7 9 5 7 7 9 9 7 9 9 9 8 7 9 7 6 4 4 4 4 4 4 4 4 4 4 4 4 4 4 3 3 2 2 2 2 3 3 2 1 2 2 2 2 3 4 3 3 4
4 7 8 8 8 10 8 9 7 8 8 9 9 10 10 8 9 9 10 7 6 4 5 5 4 5 4 5 5 4 4 3 4 3 3 3 3 3 2 2 2 1 1 1 2 2 2 3 4 3 4 4 4 4
8 10 9 11 9 10 10 10 10 10 11 10 11 10 10 9 10 10 10 7 5 5 5 4 4 4 5 5 4 4 3 3 4 4 2 2 2 2 2 2 2 1 1 3 4 4 4 4 4 4 4 4 5 5
11 10 10 10 10 10 10 11 11 10 10 11 10 9 9 9 11 11 8 6 5 6 7 6 5 5 5 4 5 5 4 3 4 5 4 2 3 3 4 5 5 3 1 2 4 4 4 4 4 5 5 5 5 5
11 11 9 8 8 9 10 9 8 9 11 11 9 10 10 12 11 8 6 7 6 7 6 6 6 6 6 6 5 6 6 6 7 7 6 6 5 6 6 6 6 4 4 4 4 4 4 4 5 5 5 5 5 5
8 8 11 9 8 7 10 10 10 10 9 7 8 11 11 10 9 8 9 9 8 7 7 6 7 8 8 8 8 8 9 9 8 6 6 5 5 8 9 8 6 6 5 5 5 5 5 5 5 5 5 6 5 5
8 7 8 11 9 8 8 8 8 7 5 6 8 8 7 9 10 10 10 9 8 8 9 10 9 9 8 8 8 9 10 11 12 13 13 12 11 10 10 10 9 8 8 7 7 6 6 6 6 6 6 6 6 7
9 6 8 10 11 10 7 5 6 6 5 4 4 6 8 11 12 10 11 11 11 12 11 11 11 11 12 12 12 11 11 12 13 14 15 14 14 12 11 11 11 10 10 9 8 7 6 6 6 6 7 8 9 9
7 7 8 8 8 6 7 7 6 6 6 5 5 6 9 12 13 13 13 12 12 12 12 13 12 12 13 13 14 14 14 12 13 14 14 14 13 13 13 13 12 11 11 10 10 9 9 9 8 9 10 11 12 12
7 8 8 9 8 7 7 7 6 7 6 7 6 8 10 10 14 14 14 13 13 14 15 14 14 14 13 13 13 13 15 14 14 14 15 15 15 14 14 14 13 13 12 12 11 11 11 11 11 11 11 13 14 14
9 8 9 9 9 9 7 8 8 8 8 8 9 10 12 12 16 14 12 13 14 15 15 15 14 14 13 13 14 14 14 14 14 14 15 16 16 16 16 15 15 15 14 12 12 12 13 13 13 14 15 16 16 17

GFSWCAN_con_lsi_006.txt.gz
Lid_Strength_Index
4 4 3 3 3 3 3 3 3 2 2 2 2 2 2 3 4 3 1 -1 2 5 4 3 3 4 4 5 9 6 7 7 9 12 13 12 14 11 11 9 12 13 14 15 13 15 17 6 6 11 8 6 6 6
5 4 4 4 4 3 3 3 3 3 3 2 2 2 2 2 3 4 2 -1 -0 3 4 1 2 1 2 3 4 5 6 7 7 10 11 10 14 13 12 14 7 12 10 12 11 12 6 5 6 5 5 6 6 6
5 5 5 4 3 3 3 3 3 3 3 3 2 2 2 2 2 3 1 0 1 4 4 4 4 1 0 1 0 6 5 3 5 4 7 9 13 10 14 12 9 7 5 10 10 7 6 5 4 5 4 5 5 5
5 6 5 5 4 4 3 3 3 3 3 3 3 2 2 2 2 3 1 -0 1 4 11 6 1 2 0 0 1 1 3 3 3 4 9 11 11 7 11 9 10 8 7 8 9 7 6 5 5 5 5 5 5 5
5 6 6 5 5 4 4 3 3 3 3 3 2 3 3 1 2 1 -1 -1 -0 4 9 6 3 2 1 1 2 2 3 4 5 8 11 10 7 8 8 8 10 6 8 10 11 6 7 6 5 5 6 6 5 6
5 5 6 6 5 5 5 4 4 3 3 3 3 3 3 3 3 1 4 0 -1 0 6 10 3 3 2 2 2 3 3 3 5 7 9 7 5 8 12 12 7 5 4 4 6 5 5 5 5 5 6 6 6 7
5 5 6 6 5 5 5 5 5 5 5 4 3 3 3 3 -0 3 4 3 3 -0 6 9 8 4 3 3 3 4 3 4 4 6 8 7 7 6 11 12 7 5 4 4 4 4 6 6 6 5 6 6 7 7
5 5 5 6 6 6 5 5 5 5 5 4 4 3 3 3 3 2 0 1 2 2 4 10 10 7 3 7 8 4 6 5 6 6 7 8 7 7 12 7 6 5 4 5 5 5 5 5 5 6 7 7 9 9
5 5 5 6 6 6 5 5 5 5 4 4 4 4 1 1 3 2 4 2 -1 3 8 11 11 12 4 7 7 6 5 10 5 10 9 8 10 12 8 7 6 5 5 5 5 5 6 7 7 8 8 9 10 10
3 4 5 5 5 5 5 5 5 5 5 4 4 6 10 6 3 3 2 4 5 4 5 9 6 10 6 8 9 9 9 10 12 9 8 11 10 6 5 5 4 5 5 5 6 8 7 8 9 9 9 9 9 9
2 2 3 4 4 5 4 4 4 4 4 6 9 11 7 5 3 5 9 9 8 10 7 7 7 9 5 9 10 8 11 10 13 10 11 12 12 8 6 5 5 5 5 5 5 6 8 9 9 9 9 9 9 9
2 2 2 2 3 3 4 3 3 4 6 6 7 6 7 9 11 11 12 12 11 11 10 12 9 7 8 5 9 11 12 13 14 10 13 13 9 6 6 7 6 6 6 7 8 9 9 9 9 8 9 9 9 9
2 2 2 2 2 2 3 3 3 4 5 6 9 12 11 13 14 13 14 13 13 13 12 12 13 11 11 10 12 13 13 13 11 13 13 11 8 7 7 6 7 8 9 9 9 9 9 9 9 9 10 9 10 9
2 1 1 2 2 2 3 4 4 3 5 10 12 13 13 14 13 13 13 13 13 12 12 12 13 12 13 13 13 14 13 12 14 15 14 10 8 7 7 7 8 10 12 11 10 9 10 9 9 10 10 10 10 9
2 1 0 1 2 2 2 3 3 2 5 9 11 13 13 12 12 13 13 12 12 11 12 13 13 12 13 13 13 13 15 15 14 13 12 10 9 9 9 9 10 11 12 11 9 10 11 10 10 9 8 7 7 8
1 1 0 1 1 1 2 2 2 3 5 7 9 11 12 12 13 13 13 12 10 11 10 10 13 13 14 13 14 14 14 15 12 10 9 10 10 10 10 9 9 9 10 9 9 9 9 10 9 7 6 7 7 7
2 1 1 2 2 2 2 2 3 6 8 9 9 7 9 10 11 11 10 10 8 10 12 11 13 15 13 14 14 12 13 11 10 9 9 9 10 9 9 9 10 9 8 8 8 8 7 7 7 7 7 5 5 5
2 1 1 1 1 2 3 3 4 5 8 7 8 8 7 8 9 9 9 8 8 10 10 12 11 13 14 14 13 10 9 8 9 9 9 9 8 8 8 8 7 7 7 7 7 7 6 7 6 5 4 4 4 4
1 0 1 1 1 3 6 6 5 8 7 7 7 6 7 7 7 7 8 8 8 8 9 10 12 12 11 10 9 8 8 8 9 8 8 8 8 8 8 7 7 6 6 6 6 5 5 4 4 3 3 3 3 3
1 1 1 2 2 4 7 6 3 6 7 7 6 7 7 8 8 8 8 8 8 8 10 10 9 8 8 7 6 6 6 6 6 7 7 6 6 6 6 5 5 5 5 5 4 5 4 3 3 2 2 3 3 3
2 2 3 2 3 2 4 5 5 5 6 7 7 6 9 8 8 8 7 6 8 8 8 6 5 5 5 5 4 4 5 5 6 5 6 7 5 4 5 4 4 4 4 3 3 3 4 3 2 2 3 4 4 4
3 3 5 4 6 5 5 4 5 4 6 7 7 6 9 9 9 8 7 8 8 6 5 5 4 4 4 4 4 3 4 4 4 4 6 5 5 5 4 3 3 3 3 3 3 4 3 3 2 2 4 4 4 4
3 4 6 6 7 7 9 5 7 7 9 9 7 9 9 9 8 7 9 7 6 4 3 3 3 3 4 3 4 4 4 4 4 4 4 3 3 3 3 3 3 4 4 3 3 3 3 4 3 4 4 4 4 4
2 6 7 7 7 9 7 9 7 8 7 8 9 10 9 9 8 9 10 7 5 4 5 5 4 5 4 5 5 4 4 3 4 4 3 4 4 4 3 3 3 3 3 3 4 4 4 4 4 4 4 4 4 4
7 8 7 10 8 9 10 10 9 9 10 9 10 10 10 9 10 10 10 7 7 7 6 4 4 5 5 4 4 4 4 5 5 6 4 4 4 4 4 4 4 3 3 5 5 5 5 5 4 4 4 4 5 5
10 9 9 9 9 9 10 11 10 10 10 11 10 9 9 9 11 11 9 7 8 8 8 7 6 6 6 6 6 7 7 7 7 8 7 6 7 8 8 8 8 7 8 7 7 7 7 6 4 4 5 5 5 5
10 10 8 8 8 9 10 9 8 9 11 11 10 11 11 12 12 9 8 9 9 8 7 7 8 8 8 8 8 8 8 8 9 9 8 7 6 8 9 11 11 10 8 8 8 8 8 7 6 5 6 5 5 5
9 8 11 9 9 8 10 10 10 10 9 7 8 11 11 11 10 10 10 9 9 8 7 7 8 8 9 9 8 9 9 9 9 8 8 7 7 9 10 10 10 10 10 10 10 9 9 8 7 7 7 7 6 6
9 7 8 11 9 9 9 9 8 7 6 6 8 8 8 11 11 11 11 10 9 9 10 10 10 9 9 9 9 9 10 12 13 15 15 14 13 13 12 11 12 12 11 11 11 10 9 8 7 7 7 7 7 8
9 7 8 9 10 9 7 5 6 6 5 5 5 7 10 12 12 10 10 11 11 12 11 10 10 11 12 12 12 12 10 12 13 15 17 17 16 14 13 13 14 13 13 12 12 11 9 10 8 7 9 10 11 10
7 7 8 8 8 7 7 7 7 7 6 6 6 7 11 13 13 12 12 11 11 11 12 12 12 12 13 13 14 15 15 13 13 14 14 15 15 15 15 15 15 14 14 13 13 12 12 11 10 10 12 13 13 13
7 8 8 9 8 7 7 7 8 8 6 7 7 9 10 10 13 14 13 12 12 14 14 14 15 15 13 13 12 12 13 13 13 14 15 15 16 16 16 16 15 15 16 15 13 12 12 12 12 14 13 15 15 16
8 8 8 9 8 9 7 8 8 9 8 8 9 10 12 12 15 14 12 12 13 14 15 14 14 13 13 13 14 13 14 13 14 13 14 15 16 16 17 16 16 17 17 17 13 13 14 14 15 15 16 17 18 19

GFSWCAN_con_lsi_009.txt.gz
Lid_Strength_Index
3 3 3 4 3 3 3 3 3 3 2 3 3 3 3 3 4 3 2 2 3 7 6 4 4 7 7 7 11 8 9 9 13 13 15 14 15 14 14 11 13 15 17 16 15 19 19 7 8 12 9 7 7 8
4 4 3 3 3 3 3 3 3 3 3 3 3 3 3 3 3 5 3 2 2 4 5 3 3 4 4 5 6 7 8 8 8 11 13 12 14 13 14 16 9 14 12 14 13 14 9 7 8 7 6 7 7 7
5 4 4 4 4 3 3 3 3 3 3 3 3 3 3 3 2 5 2 2 3 6 5 5 6 3 2 3 2 7 7 5 7 5 9 10 14 11 15 13 14 9 7 13 11 9 8 8 6 5 5 6 6 6
5 5 5 4 3 3 4 4 4 3 3 3 3 3 3 2 3 4 2 2 3 6 11 7 2 4 1 2 2 3 4 4 4 8 11 11 13 8 13 11 13 9 8 10 11 8 8 7 6 6 6 5 5 5
5 5 5 5 4 4 3 3 4 4 4 4 4 4 3 3 3 3 1 1 2 5 10 11 4 3 2 2 3 3 4 5 7 11 13 12 12 10 14 12 13 8 9 12 13 8 8 8 6 5 5 5 5 6
5 5 5 5 5 5 4 3 3 4 5 4 4 3 3 3 3 3 5 2 2 3 8 11 5 5 4 4 4 4 4 5 6 10 12 8 6 9 13 14 8 6 5 5 8 6 6 6 5 5 6 7 8 8
5 5 6 6 6 5 4 4 4 4 4 4 3 3 3 3 3 5 5 4 4 3 9 11 11 6 5 4 6 5 4 6 6 10 12 12 9 8 13 13 8 6 6 6 5 6 7 6 7 6 7 8 7 8
6 5 6 6 6 6 5 5 4 4 4 4 3 3 2 3 4 4 2 3 4 4 7 10 10 10 5 11 11 7 10 8 7 9 9 11 10 12 14 8 7 6 5 6 6 5 6 5 6 7 7 9 10 11
6 6 6 6 6 6 6 5 4 4 4 4 4 4 1 3 6 4 4 4 1 4 10 12 11 12 6 9 10 10 8 12 7 12 11 9 12 12 9 8 7 6 6 7 6 5 5 7 8 10 10 11 12 12
6 6 6 5 6 5 5 5 5 4 4 4 4 5 10 7 4 4 3 6 8 9 8 11 9 10 7 11 12 11 12 12 12 11 9 12 11 8 6 6 6 6 6 6 7 8 9 9 11 11 11 11 11 12
5 6 5 5 5 5 5 5 5 5 4 6 9 11 7 5 5 8 10 11 10 11 9 9 9 10 8 11 12 11 12 12 13 13 11 13 13 10 8 7 7 6 6 7 8 8 9 10 11 11 11 12 12 12
3 4 5 5 5 5 5 5 5 6 7 7 7 6 7 9 11 11 12 12 12 12 12 12 11 9 11 8 12 12 12 13 14 11 13 15 13 9 8 8 7 8 9 9 9 10 10 10 10 11 12 12 12 12
3 3 3 3 4 5 5 5 5 6 6 7 9 11 10 13 13 14 14 14 13 13 12 13 13 12 12 11 13 13 13 14 12 13 15 15 9 8 8 11 11 11 11 11 11 10 10 11 11 12 13 12 14 11
3 2 2 3 3 3 4 5 5 5 7 10 11 13 13 14 14 14 14 13 13 13 13 13 13 13 13 13 13 14 14 14 15 17 18 13 10 10 9 11 12 12 13 13 12 12 12 12 12 13 13 13 15 12
2 2 2 2 2 3 3 3 3 4 7 10 10 13 13 13 13 13 13 13 13 12 12 13 13 12 13 14 14 14 16 16 15 15 14 12 11 11 12 12 13 13 13 13 11 12 13 14 13 11 11 11 10 12
2 1 1 1 2 2 2 2 3 5 9 10 11 12 11 12 12 12 12 13 11 12 12 12 13 13 14 14 15 15 15 16 14 13 13 12 12 12 12 11 11 11 11 11 11 11 12 13 14 10 10 10 11 9
2 3 1 2 2 2 2 3 5 8 9 9 10 9 10 10 11 11 11 12 10 12 13 13 14 15 14 15 15 13 14 13 12 12 12 11 11 10 10 10 11 11 11 10 10 10 10 10 12 11 10 7 8 7
3 2 2 1 1 2 5 4 7 8 10 10 9 9 9 9 9 9 9 9 10 12 12 13 12 14 14 15 15 13 12 12 11 11 11 11 10 10 9 10 9 10 10 10 10 9 9 11 9 8 7 6 7 7
2 1 2 2 3 4 7 7 6 10 9 9 9 9 9 9 8 8 9 8 8 9 10 12 13 14 14 13 12 12 12 12 12 11 10 10 9 9 9 9 9 9 9 8 8 8 8 7 7 7 7 7 7 7
2 2 2 2 2 7 8 8 6 9 9 9 9 9 9 9 9 9 8 8 8 8 10 12 12 12 12 11 10 10 10 10 10 11 10 9 9 8 8 8 8 7 8 7 7 9 8 8 7 7 7 8 10 8
2 3 3 3 6 5 7 8 8 8 9 10 8 8 10 9 9 9 8 8 8 8 9 11 10 9 8 8 8 8 8 8 8 9 10 10 9 9 9 8 8 8 9 9 10 8 9 8 6 7 7 8 6 6
4 3 6 6 8 8 8 7 8 9 9 9 9 9 11 10 10 9 9 9 9 10 9 10 8 9 8 7 7 6 6 7 7 8 9 9 9 9 9 8 9 10 10 9 8 8 8 7 8 9 6 6 6 6
4 5 7 7 8 8 10 7 8 8 11 10 8 10 10 10 10 9 10 9 10 8 8 7 6 6 7 7 7 7 7 7 9 9 8 8 8 9 8 8 9 10 8 8 8 7 7 8 6 8 8 6 7 6
4 7 8 8 8 10 8 10 8 9 9 10 11 11 10 10 11 11 12 13 10 8 8 8 8 9 8 8 8 8 8 7 8 8 7 8 9 8 8 8 8 8 8 7 7 7 7 6 8 8 7 7 7 7
6 10 9 9 7 10 14 10 10 12 12 11 12 12 14 13 15 17 16 12 10 10 9 9 8 8 9 9 9 9 9 9 10 11 10 10 11 11 10 10 9 10 9 10 9 9 9 8 8 8 8 8 9 11
9 10 12 9 9 11 12 12 11 12 13 11 12 11 13 15 18 18 11 10 10 10 10 10 11 11 10 10 10 11 10 10 11 12 11 10 10 10 12 12 13 13 11 11 11 12 12 12 11 10 9 8 9 9
10 10 8 7 8 9 10 10 10 11 12 13 12 13 17 20 19 13 11 11 10 10 9 9 10 10 10 10 10 9 10 12 12 11 10 9 11 11 13 14 15 13 12 12 13 13 13 12 12 12 11 10 9 9
9 8 11 9 9 9 11 12 13 13 13 11 12 16 17 17 15 12 11 11 10 9 9 10 10 11 10 11 10 13 15 15 14 14 14 10 12 14 15 15 14 14 15 14 15 14 14 13 13 12 11 10 10 11
9 8 10 13 12 12 13 13 13 11 9 11 15 15 13 13 13 12 12 11 10 11 12 13 14 13 13 14 12 13 18 19 19 21 23 23 19 18 16 15 16 17 16 15 15 14 14 13 12 12 11 11 13 14
10 8 12 14 16 13 10 9 8 8 9 9 10 11 13 14 14 13 13 14 15 15 13 13 16 19 20 21 20 19 15 18 21 21 23 23 19 17 17 17 17 18 17 17 17 16 15 13 12 11 14 14 14 16
8 8 9 10 9 9 8 8 8 8 7 7 8 13 16 16 16 15 15 14 15 17 18 20 19 19 22 21 19 22 22 22 20 17 20 21 20 22 21 19 19 18 18 19 19 18 17 14 13 14 16 16 16 17
8 10 9 11 10 8 8 9 9 9 8 9 10 11 13 16 20 19 19 17 19 21 21 22 22 20 21 20 18 20 15 18 19 21 21 19 20 21 21 20 19 18 21 20 19 19 16 16 16 16 17 18 18 19
10 12 12 14 15 15 10 14 14 15 15 15 13 15 18 18 21 19 16 17 20 22 22 22 22 22 18 20 22 18 21 22 21 15 15 16 18 20 22 20 18 19 22 20 20 17 17 17 18 18 19 19 20 20

GFSWCAN_con_lsi_012.txt.gz
Lid_Strength_Index
3 4 4 4 3 3 3 3 4 3 3 3 4 4 4 4 5 2 4 4 4 8 7 5 5 7 7 8 11 8 10 10 13 15 17 15 15 14 14 12 14 15 17 18 19 22 19 9 9 12 11 8 8 8
4 4 4 3 4 3 3 3 4 3 3 3 3 3 3 4 6 4 4 3 3 5 6 4 4 4 4 5 7 8 9 8 9 12 13 12 14 13 16 16 10 14 13 14 13 14 10 8 9 8 7 7 9 9
4 4 3 3 4 4 3 4 4 4 4 4 4 4 3 3 5 3 3 4 4 8 6 6 6 4 3 3 3 8 9 5 7 8 11 13 16 13 15 14 13 10 8 13 12 9 9 8 7 6 7 8 8 7
4 4 3 3 3 4 4 4 4 4 4 4 5 5 5 5 5 3 3 4 5 7 12 8 3 5 3 3 3 4 4 5 7 9 11 12 15 10 15 13 13 11 9 10 12 9 8 7 7 7 8 8 7 6
5 5 5 4 4 3 4 4 4 5 5 4 4 4 4 4 5 2 2 4 4 5 10 11 5 3 3 3 4 4 5 6 9 12 14 13 14 12 14 14 13 8 10 12 12 9 9 8 7 7 7 7 5 6
5 5 5 5 4 4 4 4 4 5 5 4 4 3 3 3 5 3 5 3 5 4 8 11 7 6 4 4 4 5 5 6 8 11 13 11 7 11 13 12 9 7 6 7 8 6 6 7 7 6 6 6 7 9
6 6 5 5 5 5 4 4 5 5 5 4 3 3 3 4 4 5 6 4 5 4 9 11 11 7 6 5 7 7 6 7 7 11 12 11 11 9 13 14 8 6 6 6 6 6 8 7 8 6 7 7 9 11
6 6 6 6 5 5 5 4 4 4 5 4 3 3 3 4 4 4 4 5 5 6 8 12 13 11 6 12 11 9 11 8 9 10 10 11 11 12 12 9 7 6 6 6 6 6 6 6 6 8 8 10 11 12
6 6 6 6 6 6 5 5 4 4 4 4 3 3 3 4 6 4 5 5 3 5 10 13 12 12 7 10 11 12 9 13 9 12 12 10 12 12 9 8 7 6 7 7 6 7 7 7 9 10 11 11 12 12
6 6 5 6 6 6 6 5 4 4 4 3 4 6 8 6 4 4 5 8 8 8 10 12 9 11 8 12 12 12 12 13 12 11 9 12 12 9 8 6 6 6 6 6 9 10 11 11 11 11 11 11 12 12
5 5 5 5 5 5 5 5 5 4 4 5 8 10 6 4 5 8 11 11 10 11 9 10 11 11 10 11 12 12 12 13 13 13 12 14 14 11 8 8 8 8 8 8 8 9 10 10 11 11 12 12 12 12
5 5 5 5 5 6 5 5 5 6 7 6 7 6 7 9 11 11 12 12 12 13 12 12 12 9 11 10 11 12 13 13 15 12 13 15 13 10 9 10 10 9 10 10 10 10 10 10 11 12 13 13 12 12
5 5 5 5 6 6 5 6 6 6 6 7 9 11 10 13 13 13 13 14 13 13 13 13 13 13 12 11 13 13 13 14 13 14 15 14 10 11 11 11 11 10 11 11 10 10 11 11 12 12 13 12 14 12
4 5 5 5 5 6 6 6 5 6 8 11 12 14 13 14 14 14 14 13 13 13 13 13 13 13 13 13 13 14 13 13 15 17 18 13 11 11 11 11 11 12 13 13 12 12 12 13 13 13 15 15 15 14
4 4 4 4 4 5 5 6 6 7 11 12 13 15 15 14 13 13 13 13 13 12 12 13 13 12 13 14 14 15 16 16 15 16 14 13 11 11 12 12 13 13 13 13 12 12 13 14 13 12 12 13 11 14
3 3 4 3 4 4 4 5 6 8 12 11 12 13 12 12 12 12 12 12 11 12 12 12 13 13 15 14 16 15 16 17 14 13 12 11 11 11 11 11 12 11 11 11 11 11 11 14 15 11 11 12 13 13
2 4 2 2 2 2 3 6 8 9 10 11 11 10 10 10 11 11 11 11 10 11 13 12 16 16 14 15 15 13 15 13 12 11 11 11 11 11 10 10 11 10 10 10 10 10 10 10 12 11 11 8 8 8
4 2 2 2 2 3 6 5 8 10 11 10 10 10 9 9 9 10 10 9 10 12 12 14 13 15 15 15 14 12 11 11 11 11 11 10 10 10 9 10 9 10 10 10 10 10 9 11 9 9 8 7 8 8
3 2 2 2 3 7 8 8 8 12 12 9 9 9 9 9 9 9 9 9 9 9 11 14 16 16 15 13 14 12 13 13 12 11 11 10 10 10 10 9 9 9 9 8 8 9 8 7 8 8 8 8 9 9
2 3 2 2 3 10 10 10 7 10 11 10 9 10 10 10 9 9 9 9 9 9 10 15 14 13 13 11 11 11 12 12 12 13 11 9 8 7 8 8 9 8 8 8 8 10 9 8 7 7 8 9 9 7
4 4 4 5 6 7 8 10 9 9 9 10 9 10 11 10 10 9 9 9 9 10 13 12 13 11 9 10 10 10 9 9 10 11 11 11 10 10 9 9 8 9 10 10 11 9 11 10 7 7 10 7 7 8
5 4 7 6 8 9 9 8 9 9 9 10 10 10 11 11 11 10 9 11 12 12 10 11 9 10 9 8 8 8 8 8 8 9 10 10 10 10 9 9 9 11 10 11 9 10 9 8 8 7 6 6 7 6
5 6 8 8 11 11 14 8 10 9 12 11 10 11 12 11 10 9 10 9 9 9 9 8 8 7 8 8 8 9 9 8 9 10 9 10 10 11 11 10 11 13 11 9 9 10 10 10 8 8 7 7 6 7
5 8 10 11 10 15 11 11 10 10 11 11 11 12 11 10 10 11 16 13 9 10 10 10 10 9 9 10 11 11 11 10 11 11 11 12 12 11 11 11 11 11 11 11 11 12 11 11 12 11 10 9 9 8
9 13 12 19 14 16 17 14 11 11 14 14 14 13 15 14 17 20 18 12 10 11 12 12 10 10 10 11 11 11 11 12 13 13 12 12 14 14 12 12 12 13 13 14 14 14 14 14 13 13 12 12 11 10
11 12 11 14 13 13 12 12 14 13 14 11 12 13 14 15 16 19 13 11 11 11 12 11 14 13 12 11 12 12 13 12 13 14 12 12 13 15 16 17 16 16 15 15 15 16 16 16 15 14 14 13 12 11
13 15 10 8 8 9 10 9 9 10 12 13 14 13 14 17 20 13 12 12 11 11 11 11 11 11 12 12 12 14 14 15 15 14 13 13 14 15 16 18 18 17 16 17 16 17 17 17 16 16 15 14 13 12
11 11 13 10 9 9 11 11 11 12 11 10 12 15 16 19 17 14 13 12 11 11 11 11 12 12 13 13 15 17 17 17 17 16 13 15 16 18 19 21 20 16 19 19 18 17 18 18 17 16 15 14 14 15
9 8 9 11 11 12 12 12 13 10 9 12 15 16 15 15 16 14 13 13 13 12 14 15 17 16 15 16 17 19 21 21 21 25 27 28 26 23 20 23 24 22 20 20 18 17 18 16 16 14 13 15 16 17
11 10 14 16 14 13 10 10 10 9 10 11 13 14 15 16 15 15 15 15 15 17 16 17 20 20 25 24 25 22 21 25 24 25 27 27 23 20 23 22 20 20 20 19 20 20 18 19 16 14 16 16 17 18
9 9 10 11 11 10 10 9 8 8 8 8 12 15 19 18 17 17 17 18 19 20 20 23 23 27 24 23 24 26 24 21 22 22 24 23 23 25 26 23 23 23 20 20 21 21 20 20 18 18 19 19 19 19
9 11 12 14 14 13 8 9 9 9 9 9 12 15 18 21 24 21 20 20 22 24 26 28 26 23 23 23 23 24 24 25 25 25 21 22 24 25 24 23 23 23 21 25 24 21 20 21 21 22 22 21 21 21
18 20 18 22 17 16 16 18 20 19 16 13 15 17 20 21 22 20 19 23 23 25 26 26 27 28 25 25 26 26 25 27 26 20 20 18 22 23 24 25 26 27 28 28 26 23 24 24 24 23 23 23 22 22

GFSWCAN_con_lsi_015.txt.gz
Lid_Strength_Index
3 3 3 3 4 4 4 3 3 4 4 4 4 4 5 4 4 4 5 5 5 9 7 6 6 8 8 9 12 9 10 11 15 16 18 17 17 15 15 13 14 15 17 19 18 21 19 10 10 12 10 10 8 8
3 3 4 4 4 4 4 4 4 4 4 4 4 4 5 5 4 4 5 3 3 6 6 5 5 5 5 6 8 9 9 10 10 14 16 14 15 13 16 17 12 15 14 15 14 14 10 9 9 8 8 8 8 8
4 4 4 4 4 4 4 4 4 4 4 5 6 5 6 6 5 3 4 4 5 9 7 7 7 4 3 4 4 9 10 7 8 9 11 14 17 14 15 15 14 11 10 14 13 10 10 9 8 7 7 8 8 7
4 4 4 4 4 4 4 4 4 5 5 5 4 4 6 5 4 3 4 4 5 8 12 9 4 5 3 3 3 5 5 6 8 9 12 13 15 11 15 13 13 11 10 11 12 10 9 7 7 7 7 7 7 7
5 5 5 5 4 4 4 5 5 5 5 4 4 3 5 4 3 3 4 5 4 5 10 11 6 5 5 4 4 5 6 7 10 12 13 13 14 12 13 14 13 9 10 13 13 9 9 9 7 7 8 7 7 7
5 5 5 4 4 4 5 6 5 5 5 4 4 4 4 5 3 3 6 4 5 4 8 11 7 6 5 5 5 5 6 7 9 11 13 12 10 11 13 12 9 7 7 8 9 8 8 7 7 7 7 7 6 10
5 4 4 4 4 4 4 5 5 5 4 4 4 4 4 4 4 6 8 5 6 5 10 11 12 8 7 6 8 7 7 8 8 11 13 12 11 9 13 14 9 8 7 7 6 7 9 8 8 6 7 9 10 11
5 5 5 5 4 4 4 4 5 5 4 4 4 4 4 4 4 4 4 6 6 7 9 12 13 11 7 11 11 8 11 9 9 10 11 11 11 12 13 9 8 7 7 7 7 6 7 7 7 9 11 11 12 12
6 6 6 6 5 4 4 4 4 5 4 3 3 4 4 5 5 4 4 5 5 6 11 13 13 13 8 10 11 11 10 13 9 12 12 11 12 12 10 9 8 7 7 7 7 7 7 8 9 11 11 11 12 12
6 6 6 6 6 6 5 5 4 5 4 4 5 7 9 6 4 4 5 9 9 8 10 13 10 11 7 12 12 12 12 13 13 11 9 12 11 10 9 9 8 7 7 7 9 10 11 12 11 11 11 11 11 12
5 5 5 5 5 5 5 5 5 4 4 6 7 10 6 4 6 8 11 12 11 11 10 10 11 10 8 11 12 12 13 13 13 14 12 13 14 12 10 11 11 10 9 9 9 10 10 11 12 12 12 12 13 12
5 5 6 5 5 5 5 5 5 6 6 6 7 6 8 9 10 11 12 12 12 12 12 11 11 9 11 10 11 12 13 13 14 12 13 15 14 13 12 12 11 11 11 11 10 10 10 10 10 11 12 13 12 13
5 5 6 6 6 5 5 6 6 6 6 6 9 11 9 12 12 12 13 13 13 13 13 13 12 12 11 11 13 13 13 14 13 14 15 14 12 11 11 11 11 10 10 11 10 10 10 12 12 13 13 12 14 13
6 6 6 6 6 6 6 5 6 6 8 11 12 13 13 15 15 14 14 13 13 13 13 13 13 13 13 13 13 14 13 14 15 17 18 13 12 12 11 11 11 12 13 12 12 12 13 13 13 13 13 14 15 14
6 6 6 6 6 6 6 6 6 8 10 13 13 16 17 14 14 13 13 13 13 12 13 13 13 12 13 14 14 14 17 17 17 18 14 13 12 12 12 12 12 12 13 12 12 12 13 13 13 12 12 13 12 14
4 5 6 6 6 6 6 7 9 11 14 12 13 14 13 13 13 13 13 13 12 13 13 13 13 14 15 14 15 15 17 19 17 14 12 11 11 11 11 11 11 11 11 11 11 11 11 13 14 11 12 13 15 15
3 5 3 4 4 5 5 9 11 12 15 13 14 13 13 13 13 13 12 12 11 12 13 13 17 17 14 15 15 13 15 14 12 11 11 11 11 11 10 10 11 10 10 10 10 11 11 11 13 13 12 9 9 9
4 4 3 3 3 5 7 8 11 11 11 11 11 11 11 10 10 10 10 10 12 12 12 13 12 15 16 17 15 13 11 11 11 11 11 10 10 11 10 10 10 10 10 10 11 10 9 11 9 9 8 8 9 9
4 4 3 3 4 8 10 8 9 13 11 10 10 10 10 10 10 9 9 9 11 12 12 15 17 16 15 12 13 11 12 13 11 11 11 10 10 10 10 10 10 9 8 8 8 9 9 8 9 9 8 9 9 9
3 3 3 3 4 10 10 11 8 11 11 10 10 10 10 10 10 9 9 9 9 10 14 16 15 14 13 12 12 12 12 12 11 12 12 10 9 9 9 9 10 9 9 9 9 11 9 9 8 8 8 9 9 8
5 5 5 6 7 8 9 10 9 9 9 10 10 10 11 10 10 10 9 9 12 11 12 13 14 12 11 11 12 11 10 9 10 11 12 11 10 10 9 10 10 10 11 10 10 10 10 10 9 9 8 8 7 7
6 4 8 6 9 9 9 9 9 9 10 10 10 10 12 12 12 11 10 11 13 13 11 12 11 11 9 9 9 9 9 9 9 10 10 11 11 11 11 11 12 13 12 11 11 11 12 11 11 11 11 10 9 8
5 6 8 8 11 11 15 8 10 10 12 12 10 12 12 12 11 9 12 10 10 10 10 10 9 8 9 9 10 11 10 10 12 12 11 11 11 13 13 12 13 14 14 13 12 13 14 14 13 14 13 12 12 11
6 10 11 11 11 16 13 16 12 12 13 13 12 13 12 12 11 12 14 13 9 9 10 10 9 10 10 10 12 13 12 12 12 13 13 14 13 13 13 13 15 16 15 15 15 17 16 17 17 15 15 15 15 15
12 16 11 17 11 12 20 22 16 16 18 18 13 14 15 12 16 13 17 11 11 11 11 11 10 10 11 12 12 12 13 13 13 14 13 14 16 17 16 15 15 16 17 19 20 18 18 18 18 17 17 17 17 16
13 14 12 14 17 12 18 19 19 17 16 12 11 12 13 13 14 15 13 12 12 12 12 12 12 12 12 12 13 14 15 14 14 15 15 16 17 20 22 21 20 19 17 20 20 21 20 19 19 19 18 18 17 16
15 16 12 8 9 9 9 9 10 12 12 12 13 15 13 14 15 14 12 12 12 12 11 11 11 12 13 15 15 16 17 17 18 15 15 16 16 17 20 24 22 19 18 20 22 22 21 21 21 21 20 18 16 16
13 12 13 11 10 9 11 11 11 12 11 10 11 13 14 15 16 14 13 12 12 12 13 14 14 14 15 16 18 19 18 19 16 16 17 18 19 22 23 24 23 18 22 24 26 23 22 21 21 20 19 18 18 17
13 11 11 12 14 12 11 12 11 10 9 10 14 15 16 16 17 15 15 14 14 15 17 17 18 17 18 18 19 20 23 24 24 27 29 30 28 25 22 27 27 26 26 25 21 19 18 18 18 17 16 18 20 21
13 13 16 19 15 13 11 10 10 10 9 12 13 14 16 18 17 16 16 16 18 19 20 21 23 22 28 27 27 24 23 27 27 26 29 29 24 23 28 27 26 27 26 27 24 22 21 23 23 23 23 22 21 22
9 9 10 11 12 11 10 10 8 8 8 11 13 16 18 19 19 17 18 20 20 21 23 26 25 30 26 28 29 29 27 27 28 25 25 27 28 29 28 26 27 27 28 27 27 28 25 26 28 29 28 28 27 25
10 11 14 16 15 13 15 13 10 10 10 11 14 18 21 25 26 22 20 24 25 26 29 31 28 26 26 26 27 28 25 27 28 29 27 26 28 29 28 27 29 30 31 31 30 30 29 30 31 31 31 30 29 26
19 20 18 22 19 18 17 21 22 19 18 15 20 21 23 22 24 21 20 26 25 26 27 28 28 29 28 28 27 28 28 30 29 24 23 23 25 25 29 31 32 33 32 32 32 32 31 31 32 32 32 31 30 28

GFSWCAN_con_lsi_018.txt.gz
Lid_Strength_Index
4 4 4 4 3 3 3 3 4 4 4 4 5 5 4 2 2 2 5 5 6 9 8 6 6 9 9 10 12 10 11 11 15 16 18 18 19 16 15 14 14 15 16 20 20 24 19 11 10 13 11 11 9 9
4 4 4 3 4 3 3 4 4 4 4 5 6 6 5 4 3 2 4 3 4 6 7 6 5 5 6 7 9 10 9 10 11 15 18 18 16 16 16 17 12 15 14 16 15 15 11 10 10 9 9 9 8 9
5 4 4 4 3 4 4 4 4 5 5 5 5 6 5 4 4 3 4 5 6 9 8 7 7 5 4 5 6 9 11 8 10 11 14 16 17 15 17 16 15 12 11 14 13 11 11 10 9 9 8 8 8 7
4 4 4 3 4 4 4 5 5 5 5 5 5 6 5 4 4 4 4 4 7 9 13 9 5 6 4 4 4 6 7 8 9 11 14 14 16 12 16 14 14 11 10 12 13 10 10 9 8 8 8 7 7 7
4 4 4 4 4 5 5 5 5 5 5 4 5 5 3 4 4 4 5 5 4 7 11 12 7 6 5 5 5 6 7 8 10 13 14 14 15 13 13 14 14 10 10 13 13 10 10 10 8 7 7 7 7 7
4 4 4 5 5 5 5 5 5 5 5 5 4 5 4 4 3 6 7 5 3 5 8 12 8 8 7 6 6 7 7 8 10 11 14 13 10 12 13 14 10 8 8 9 9 9 9 9 8 7 7 8 8 10
4 4 4 5 5 5 6 5 5 5 4 4 4 4 4 3 3 6 8 6 5 5 9 11 12 8 8 7 9 8 7 9 9 11 14 13 12 11 15 16 8 8 8 7 7 8 9 8 8 7 7 10 10 11
5 5 5 5 5 5 6 6 5 5 4 4 4 4 4 4 4 5 5 5 5 7 9 13 13 11 7 11 11 8 11 9 9 10 11 13 11 12 13 10 8 8 7 7 7 7 7 7 8 11 10 11 12 11
6 6 5 5 5 5 5 6 5 5 4 4 5 4 4 5 5 5 5 5 5 7 12 14 14 14 8 10 11 11 10 13 9 12 12 10 13 12 11 11 10 9 9 8 7 8 8 10 12 12 11 11 11 12
6 6 6 5 5 5 5 5 5 4 4 5 5 7 10 7 5 5 6 9 9 10 9 12 10 11 7 12 12 12 12 12 12 12 9 12 12 11 12 12 11 11 10 8 11 12 13 12 11 11 11 10 11 11
5 5 5 5 5 5 5 4 4 4 4 6 9 10 6 6 7 10 12 12 10 12 10 11 11 11 8 11 12 13 12 13 13 12 12 14 14 14 12 12 11 11 11 11 11 11 10 10 11 11 11 12 12 13
5 5 5 5 5 5 4 4 4 5 6 6 7 7 8 10 11 12 13 12 12 12 12 11 11 9 11 10 11 12 13 12 14 12 13 15 15 13 12 12 11 10 10 11 10 10 10 10 10 11 11 12 12 12
6 6 6 6 6 5 5 5 6 6 6 8 10 12 10 12 12 16 14 13 13 13 12 11 11 12 11 11 13 13 13 14 13 14 15 14 12 11 11 11 11 11 11 11 11 11 11 11 12 13 13 12 13 12
6 6 6 6 6 6 5 5 6 6 7 11 12 13 13 14 14 14 13 13 13 13 12 12 13 13 13 13 13 13 14 14 15 17 17 14 12 12 12 11 11 12 13 13 13 12 12 12 12 13 13 13 13 13
6 6 6 6 6 6 6 6 6 7 10 12 13 15 16 14 14 13 13 13 13 12 13 13 13 12 13 14 14 14 18 20 19 20 14 13 12 12 12 12 13 13 14 13 12 12 14 14 13 12 12 12 12 13
6 6 7 6 6 6 6 8 9 9 12 13 13 14 14 14 14 13 13 13 12 12 13 13 14 15 15 14 16 18 19 21 19 14 12 11 12 11 11 11 11 11 11 11 11 11 11 13 14 11 12 13 15 15
6 8 6 6 6 7 7 10 12 13 15 13 14 13 13 13 13 13 13 13 11 13 13 14 18 17 15 17 17 14 16 15 12 11 11 11 11 10 10 10 11 10 10 10 11 11 11 11 14 13 11 9 9 9
6 6 5 5 6 8 10 12 14 13 13 13 13 13 13 12 12 12 12 12 14 13 13 15 14 18 19 19 18 13 11 11 11 11 10 9 9 10 10 11 11 11 11 10 11 10 10 10 10 10 9 9 10 9
4 4 3 3 5 9 11 11 11 13 12 11 11 12 11 11 11 11 11 11 13 14 14 16 18 17 16 14 14 11 10 12 9 9 10 10 10 10 10 10 9 9 9 9 10 10 10 9 10 10 10 10 10 9
3 3 4 4 5 10 10 11 9 11 11 10 10 11 11 11 11 10 9 9 12 14 15 16 15 14 14 13 12 13 12 12 12 13 13 12 11 10 10 10 11 10 10 10 10 11 11 11 11 11 11 11 11 10
5 5 5 7 9 9 10 11 10 10 10 10 10 10 12 11 11 11 10 10 10 12 13 14 15 13 11 12 12 12 11 11 12 13 13 12 11 11 11 11 11 12 13 13 14 13 13 13 13 13 15 15 14 12
6 5 9 9 9 11 11 9 10 10 10 10 11 11 12 13 12 11 10 11 11 12 11 13 11 10 10 11 11 10 11 11 11 11 11 12 13 13 13 13 14 15 14 16 15 16 17 15 15 16 17 16 15 14
6 8 12 12 15 16 13 9 14 12 14 13 11 13 13 13 12 10 13 11 11 10 11 10 10 10 11 11 11 12 11 12 13 13 13 13 13 13 14 15 17 19 19 17 16 16 17 19 18 19 18 18 17 17
7 13 11 11 11 13 13 17 11 13 16 17 16 15 15 14 13 14 14 13 11 10 10 10 10 11 11 11 13 13 13 12 13 14 14 14 14 15 15 16 17 18 18 19 19 21 20 22 22 20 20 20 20 19
16 16 14 14 11 13 16 18 14 13 20 21 18 19 16 16 16 15 15 13 12 12 11 10 9 10 12 12 13 14 14 13 14 16 16 16 17 18 18 17 17 18 19 23 23 24 23 23 23 22 21 22 21 20
17 16 14 16 17 14 20 20 16 15 18 17 16 14 15 15 16 14 13 13 12 12 12 12 12 13 13 13 14 15 16 15 14 17 17 17 19 22 24 25 24 23 20 26 28 27 24 23 23 24 23 22 21 19
18 18 13 8 10 10 12 13 10 11 11 12 12 13 12 13 15 14 12 12 12 12 12 12 11 12 14 16 16 17 18 18 17 17 17 18 18 19 24 27 26 22 20 23 28 30 28 25 24 24 23 21 21 20
13 12 16 14 13 11 13 15 15 13 11 10 11 14 14 15 16 14 13 12 13 13 14 15 15 16 17 18 18 19 19 18 18 19 20 20 20 24 25 26 25 20 26 29 30 28 27 24 22 21 21 21 23 25
13 12 13 16 16 15 15 14 13 11 10 11 15 16 17 16 17 16 15 14 14 15 17 18 18 18 19 20 22 22 23 26 26 27 29 31 30 26 25 30 30 29 30 29 25 21 20 20 21 22 26 24 23 25
15 14 18 21 18 17 14 12 14 11 12 12 13 15 16 18 17 16 16 17 18 20 21 22 22 23 27 28 28 26 28 31 29 28 30 31 27 25 31 31 29 28 30 33 30 28 25 28 27 29 29 29 30 31
9 10 11 12 12 13 11 11 9 9 10 14 15 18 18 20 19 18 19 21 21 23 24 28 28 33 29 30 31 30 28 29 31 28 28 29 29 31 32 30 31 33 35 35 35 35 34 33 34 35 33 32 31 32
12 18 18 17 16 16 17 17 19 12 12 12 19 20 23 23 25 22 21 23 26 27 29 33 30 27 28 29 32 32 27 29 30 30 30 29 29 29 30 31 34 35 35 34 35 35 34 34 35 35 35 34 34 33
19 18 17 17 16 14 18 23 24 22 16 17 23 24 25 23 24 22 21 24 25 27 28 29 29 31 30 29 29 30 29 31 30 25 24 24 27 27 31 33 35 35 34 34 35 36 34 33 34 35 35 36 35 34

GFSWCAN_con_lsi_021.txt.gz
Lid_Strength_Index
3 3 3 4 3 3 3 3 3 3 4 4 4 4 3 3 2 3 4 4 5 8 6 5 5 8 8 8 10 9 9 9 12 13 13 14 14 13 13 13 13 13 14 15 17 16 16 10 8 11 8 8 8 7
4 4 4 4 4 4 4 3 4 5 5 5 4 4 4 3 3 2 4 3 4 6 5 4 3 4 4 6 8 9 8 9 9 12 14 14 14 15 14 14 11 13 11 12 12 12 9 8 7 7 7 7 7 6
4 4 4 4 4 4 3 4 5 5 5 6 5 4 3 2 2 2 3 4 5 8 6 6 6 4 4 4 4 8 9 7 9 9 12 13 13 12 14 13 12 11 10 11 11 9 10 8 7 7 6 6 6 6
4 4 4 4 4 4 5 5 5 5 5 6 5 4 3 3 3 2 3 4 6 8 12 8 5 6 4 3 4 5 7 8 9 9 13 13 13 11 13 11 11 10 10 10 11 9 8 8 7 6 6 6 6 5
4 4 4 4 5 5 5 5 5 5 5 5 5 5 4 4 4 3 3 4 4 6 11 10 6 6 5 5 6 6 7 8 9 11 13 12 12 11 12 12 12 9 9 11 11 7 8 7 7 6 6 6 6 6
4 4 4 5 5 5 5 5 5 5 5 5 5 4 4 4 5 4 6 5 5 6 8 12 8 8 7 6 6 6 6 8 8 10 12 11 10 11 13 12 9 8 7 7 8 7 7 6 7 6 6 6 6 7
4 4 4 5 5 5 5 5 5 5 4 5 4 4 4 4 3 7 8 5 5 6 9 11 11 9 8 8 8 8 7 8 8 10 12 12 10 10 13 12 9 8 7 7 6 6 7 6 6 6 8 10 10 10
4 4 5 5 5 5 5 5 5 4 4 4 4 4 3 3 4 4 5 5 5 7 8 12 12 10 7 9 11 8 10 8 9 10 11 11 10 10 12 10 10 10 9 7 7 6 7 9 10 11 10 10 10 11
5 5 5 5 5 6 5 5 5 4 5 5 5 4 4 5 5 5 5 5 4 6 11 13 12 12 7 10 11 10 9 12 9 11 10 9 12 13 13 12 12 11 11 10 9 10 11 11 11 10 10 11 12 12
5 5 5 5 5 5 6 5 5 4 5 5 5 7 9 6 5 4 6 8 8 9 8 12 10 12 8 11 12 11 11 11 12 11 9 12 12 12 11 11 11 11 10 9 10 12 12 11 11 11 11 11 11 12
5 5 5 5 5 5 5 5 5 5 4 6 8 9 6 6 7 10 12 11 11 12 10 11 10 10 9 10 11 11 12 12 13 12 11 12 14 13 11 11 10 10 10 10 10 10 10 11 11 12 12 11 11 11
5 5 5 5 5 5 5 5 5 6 7 6 7 7 8 9 11 11 13 12 12 12 12 11 11 9 10 9 10 11 12 13 13 11 12 14 14 11 12 12 11 11 11 11 10 11 10 10 10 10 10 10 11 11
6 5 5 5 5 5 5 6 6 6 6 7 9 11 10 12 13 16 13 13 13 12 12 12 12 11 10 10 12 11 12 13 12 13 14 14 12 12 12 11 12 11 11 11 11 10 11 11 11 11 12 11 11 11
6 6 5 5 5 6 6 6 6 6 7 11 11 13 13 12 13 13 13 13 13 13 12 12 12 11 12 12 12 12 13 13 14 16 16 13 13 12 11 11 11 12 13 12 12 12 11 11 11 12 12 12 12 11
6 6 6 6 6 6 6 6 6 7 10 12 12 16 15 14 13 13 13 12 12 12 12 12 13 12 13 13 13 14 16 17 16 17 14 13 12 12 12 12 12 12 14 12 11 11 13 13 12 11 11 10 10 12
6 7 8 6 6 6 7 7 8 9 11 12 13 14 13 14 14 13 13 13 12 13 12 12 13 14 15 14 15 15 16 18 17 14 12 12 12 11 11 10 10 10 10 10 9 10 11 11 12 10 10 9 10 9
7 10 7 6 7 7 7 10 10 12 13 13 14 13 13 13 13 13 12 13 11 12 13 13 15 15 14 15 16 14 15 14 12 12 11 10 10 9 8 9 10 9 9 10 10 10 10 10 11 10 10 9 9 9
10 9 7 6 8 9 11 12 13 13 14 14 14 14 13 13 13 13 13 13 12 12 13 14 13 15 16 18 16 13 11 10 9 9 9 8 8 8 8 9 9 9 10 10 10 10 10 11 11 11 11 11 10 10
6 7 6 6 8 12 12 13 12 14 14 13 13 13 13 13 13 12 12 12 12 13 13 15 16 15 14 13 12 11 10 10 9 9 10 10 9 10 10 10 10 10 11 11 11 11 11 11 11 12 12 13 13 12
4 4 5 5 6 10 11 12 10 10 12 11 11 12 12 12 11 10 10 10 11 12 13 14 13 13 12 11 11 10 9 9 9 11 12 11 11 11 11 11 11 11 11 11 12 13 13 13 13 13 14 15 15 16
6 6 6 7 9 9 10 11 11 9 10 10 10 10 11 10 11 11 10 10 10 12 13 11 12 11 11 11 11 10 10 10 11 10 11 12 12 12 12 12 12 13 14 14 14 15 16 15 15 16 16 17 16 16
7 5 10 9 11 11 10 9 10 11 10 11 12 11 14 13 12 11 10 11 11 11 10 11 10 10 11 11 12 11 11 11 11 11 12 12 13 13 14 14 15 16 16 17 16 17 17 17 17 17 18 18 17 17
7 9 12 13 14 14 13 9 14 12 13 15 11 14 13 12 11 10 13 11 11 10 10 10 11 10 12 12 12 12 12 12 13 13 13 13 13 14 15 16 17 18 18 18 18 18 19 21 19 20 19 19 18 18
8 11 14 17 16 15 14 14 11 12 14 17 16 18 16 16 14 14 13 13 11 11 11 10 11 12 12 13 14 13 12 12 13 14 13 14 15 15 15 16 18 18 19 19 20 21 21 22 23 21 21 21 20 20
15 14 16 16 15 19 16 16 13 13 14 17 18 20 14 14 18 18 15 14 14 14 13 11 10 11 13 13 13 13 13 12 14 16 16 15 16 17 17 18 18 19 19 21 22 23 23 23 22 22 22 21 21 20
18 14 14 14 14 14 16 22 18 16 19 20 17 16 15 14 16 17 16 14 13 13 13 11 12 13 14 13 14 15 15 14 14 17 17 17 18 19 21 22 22 21 20 22 23 24 23 23 23 23 22 21 21 20
16 15 12 9 10 12 16 16 12 13 15 14 13 14 14 15 18 15 12 12 13 13 13 14 12 13 15 16 16 16 16 16 16 17 17 18 18 19 21 22 23 20 20 21 23 24 24 24 24 22 22 20 19 20
10 12 15 16 16 13 17 17 16 15 13 11 12 16 16 15 16 15 14 13 13 13 14 15 15 16 17 18 18 17 17 17 18 18 19 19 19 20 21 22 22 21 24 24 24 24 23 23 22 21 20 21 21 20
13 13 15 19 18 15 15 15 15 12 10 12 16 17 17 16 17 17 15 15 14 15 16 17 18 17 18 19 21 21 21 20 20 23 24 23 23 21 21 22 23 24 24 25 24 22 20 19 19 21 22 23 22 22
16 12 17 19 16 18 15 11 16 13 12 13 14 15 16 18 17 16 16 16 18 19 21 21 22 20 22 22 23 22 23 24 23 22 23 23 23 21 23 24 24 24 26 26 26 25 24 24 23 24 25 25 25 25
12 11 15 17 17 16 15 17 11 9 13 16 17 18 19 18 18 18 19 20 20 21 21 23 23 27 23 24 24 24 23 23 27 25 24 24 24 23 23 24 25 26 27 26 26 26 26 25 26 26 26 26 27 27
18 19 17 18 17 17 18 18 20 14 13 15 20 20 21 21 24 20 20 21 22 22 26 28 26 23 25 25 27 26 26 24 24 24 25 24 23 23 23 24 26 27 26 26 26 26 27 26 26 26 26 27 27 28
18 19 17 16 15 14 18 23 24 21 17 20 22 23 23 22 23 20 20 23 21 21 23 24 24 25 26 27 24 24 27 25 26 24 23 22 23 23 23 25 26 26 26 25 26 27 26 26 26 27 27 28 28 29

GFSWCAN_con_lsi_024.txt.gz
Lid_Strength_Index
3 4 4 3 3 3 3 4 4 4 3 3 4 3 3 3 3 1 1 -0 2 5 4 4 4 5 6 6 8 6 7 7 7 12 12 11 13 10 10 9 11 12 13 15 13 17 17 7 7 10 6 5 5 5
4 4 3 3 3 4 4 4 4 4 4 4 3 3 3 3 3 2 3 1 -0 3 4 2 2 2 3 3 5 5 6 6 6 9 9 10 13 12 11 12 8 12 9 10 10 9 7 6 5 4 4 5 4 4
4 4 4 4 4 4 4 4 4 4 4 4 4 4 3 3 3 2 1 1 1 4 4 4 5 2 0 1 1 6 5 4 5 4 7 8 14 9 14 11 10 8 7 9 9 7 6 6 5 5 4 4 4 3
4 4 4 4 4 4 4 4 5 5 5 4 4 4 3 2 2 1 1 1 2 4 10 6 2 3 2 1 2 2 3 4 5 4 7 9 12 7 10 8 9 7 7 8 9 6 6 5 5 5 4 4 4 3
4 5 5 5 5 4 4 5 5 5 5 5 4 4 3 2 2 1 1 1 1 3 8 7 3 3 3 3 3 3 3 4 5 7 10 10 7 8 8 7 9 6 8 9 9 6 6 5 4 4 4 4 4 4
5 5 5 5 5 5 5 5 5 5 5 4 3 3 3 2 2 1 4 2 2 1 5 10 5 5 4 3 3 3 4 4 4 6 8 7 7 7 12 10 7 6 5 5 7 5 5 4 4 4 4 6 6 6
5 5 5 5 5 5 5 5 5 4 5 4 3 4 4 3 0 3 5 3 4 2 5 9 8 6 5 4 5 4 3 4 5 6 9 8 7 6 10 11 8 8 7 6 5 4 6 5 7 7 7 7 7 8
5 5 5 5 5 5 5 5 5 4 4 4 4 4 4 4 3 2 2 4 4 3 4 9 9 7 5 7 9 7 7 5 7 9 9 9 8 7 11 10 9 8 8 6 7 6 6 7 7 7 6 8 10 11
5 5 5 6 5 5 5 5 5 5 5 4 4 4 1 2 3 2 5 5 2 2 7 11 11 12 6 9 9 7 6 10 6 9 8 7 10 12 12 11 11 10 9 8 8 7 7 8 9 10 11 11 12 12
5 5 5 6 6 6 6 5 5 5 5 4 1 3 6 3 5 4 3 4 4 4 5 10 7 10 6 7 9 8 8 10 12 9 8 10 13 12 11 11 10 9 8 6 9 11 11 12 12 11 11 11 10 10
5 5 5 5 6 5 5 5 5 4 3 2 4 6 3 4 2 5 7 8 7 9 8 8 7 8 6 9 10 9 10 10 13 10 11 12 14 13 11 10 9 9 9 9 10 10 10 10 10 10 10 9 9 9
5 5 6 6 6 6 5 5 5 3 4 4 4 4 4 5 6 10 11 10 9 11 10 9 9 8 9 7 8 10 11 11 14 8 12 13 13 11 11 11 10 10 9 9 9 9 9 9 9 9 9 10 10 10
6 6 6 6 6 6 6 6 6 6 6 3 5 9 7 10 12 13 14 12 12 11 11 11 11 9 8 7 10 9 12 13 9 12 13 13 12 12 11 10 10 10 10 10 10 10 10 10 10 10 10 9 8 8
6 6 6 6 6 6 6 6 6 5 5 8 10 13 12 12 13 12 11 11 12 12 11 9 11 9 10 11 11 13 13 12 13 14 14 13 12 12 11 10 10 11 12 11 10 10 10 10 9 9 9 9 9 9
6 6 6 6 6 6 6 7 6 6 8 11 10 14 14 13 12 12 12 11 11 11 11 11 11 9 11 12 12 12 13 14 13 13 13 13 12 11 11 10 11 11 11 10 9 9 9 9 8 8 8 8 8 9
6 6 7 6 6 7 7 7 7 8 10 11 12 13 12 12 13 13 13 13 12 12 11 11 12 12 13 12 13 13 13 14 13 12 12 11 12 11 10 10 9 8 8 7 8 8 8 9 9 8 8 9 9 9
7 8 7 7 7 7 7 7 8 10 11 12 13 12 13 12 13 13 12 12 11 12 13 11 13 14 11 13 14 11 12 11 11 11 11 10 10 9 8 7 8 8 7 7 8 9 9 9 10 10 11 10 10 9
8 7 7 7 7 7 8 9 9 11 13 12 13 13 12 12 12 12 11 11 10 10 10 12 10 12 13 14 13 11 11 11 10 10 9 8 7 7 6 7 7 7 8 9 10 10 10 10 10 10 11 11 10 10
8 8 8 7 7 7 10 10 9 13 13 12 12 12 12 12 11 11 11 11 10 9 10 10 12 12 11 9 9 11 9 9 9 9 10 8 7 8 8 8 9 10 10 10 10 10 10 11 11 11 11 11 12 11
6 6 7 7 6 8 11 11 8 12 13 12 12 13 13 12 12 11 11 10 9 8 9 10 10 9 8 8 7 6 6 5 7 10 11 10 8 8 9 9 9 10 10 10 11 12 11 11 11 12 13 13 13 13
4 5 5 4 5 6 9 10 10 9 9 10 9 10 10 9 10 9 9 8 7 10 10 10 10 9 9 8 7 6 7 7 9 8 9 10 10 10 10 10 11 11 11 11 11 12 13 13 13 13 14 14 14 13
5 5 5 6 7 7 8 7 8 7 8 8 8 8 9 9 9 9 8 8 10 10 9 9 9 9 10 11 10 9 9 9 9 9 10 10 11 11 12 11 11 12 13 13 13 14 14 14 15 15 15 15 15 14
6 6 7 7 10 9 11 7 9 10 11 10 9 10 10 9 9 8 10 9 10 10 9 9 10 10 11 10 11 11 10 10 10 11 11 11 11 12 12 13 13 13 14 14 14 15 15 18 16 17 16 15 15 15
6 9 11 11 11 13 10 11 10 11 10 12 12 13 12 11 9 10 12 12 12 11 11 10 10 11 11 12 13 13 12 11 11 11 10 11 12 13 13 14 14 15 16 16 16 16 16 17 18 16 17 17 16 16
11 13 11 13 11 12 14 14 12 11 13 13 13 12 12 10 12 13 14 14 13 13 12 11 11 11 12 13 12 12 12 11 12 14 13 12 13 13 14 15 15 16 16 16 17 18 17 18 17 17 17 17 17 17
14 12 12 12 12 12 13 13 13 13 12 13 12 10 9 10 13 15 13 12 11 11 11 11 10 11 13 12 13 14 14 12 12 14 15 14 15 15 16 16 16 16 16 17 18 18 18 18 18 18 18 17 17 17
14 13 10 8 9 10 10 9 8 9 11 11 9 10 10 13 14 13 11 12 11 12 12 12 11 12 13 14 14 14 14 14 14 15 15 15 15 16 16 17 18 17 17 17 18 18 19 19 19 18 17 16 16 17
10 9 12 10 9 8 10 10 11 11 10 9 9 12 13 13 14 13 13 12 12 12 13 13 14 14 14 15 14 14 14 15 15 15 15 15 15 16 16 16 17 18 18 18 19 18 18 18 18 17 17 18 18 17
9 8 9 13 11 10 10 10 10 9 9 9 10 12 14 14 14 14 13 12 11 11 13 14 14 14 14 15 15 15 14 14 15 17 17 16 16 16 16 16 16 17 17 18 18 18 18 17 17 18 19 18 18 18
10 8 10 13 12 11 9 8 8 8 9 10 11 13 14 15 15 13 13 13 14 15 16 16 15 14 15 14 15 16 16 16 17 17 18 18 18 17 17 17 17 17 18 18 18 18 18 19 18 18 19 19 18 19
8 8 10 10 11 9 10 10 8 8 9 11 12 13 15 15 14 14 15 15 15 15 14 15 16 16 16 16 16 17 17 17 19 19 18 18 17 17 16 17 16 17 18 19 19 19 20 20 19 20 19 20 21 21
10 12 11 12 10 10 10 10 10 9 10 11 14 14 16 15 17 15 16 14 14 15 20 17 16 16 17 16 18 17 22 18 17 18 18 18 17 16 16 16 17 18 18 19 19 19 20 20 20 20 20 20 21 22
11 11 11 11 11 11 12 12 14 13 13 14 16 16 16 16 18 16 15 16 16 16 16 17 16 16 18 19 18 17 20 17 18 19 19 19 20 18 17 16 17 18 19 19 18 19 20 20 20 20 20 22 22 22

GFSWCAN_con_lsi_027.txt.gz
Lid_Strength_Index
1 1 1 1 1 3 3 4 3 3 3 2 2 3 3 3 3 1 1 -0 2 4 4 3 3 4 4 5 8 6 7 6 7 11 12 11 13 10 10 8 11 12 13 15 13 16 17 6 6 9 7 4 4 4
3 3 3 3 3 3 4 4 4 3 3 4 3 3 3 3 3 3 2 -1 -0 3 4 2 2 1 2 2 4 5 5 6 6 8 9 9 13 11 10 12 7 11 9 10 10 10 6 5 5 4 4 4 4 4
4 4 4 4 4 3 3 4 4 4 4 4 4 4 4 3 3 3 1 0 1 4 4 4 4 2 0 1 1 5 4 4 5 4 7 8 13 8 14 11 9 7 6 8 9 6 6 5 4 4 4 4 3 3
4 4 4 4 4 4 4 4 4 4 4 4 4 4 3 3 3 3 1 -0 1 4 10 6 1 3 0 1 1 2 3 3 3 4 7 9 12 6 9 8 8 7 6 8 8 6 5 5 4 4 4 3 3 3
4 4 4 4 4 5 5 5 5 4 4 4 4 3 3 3 2 0 -1 -1 -0 3 9 7 3 2 1 1 2 2 3 3 5 7 10 10 6 7 7 7 8 6 7 9 9 6 6 5 4 4 4 4 4 4
5 5 5 5 5 5 5 5 4 4 4 4 4 3 3 3 2 1 3 0 1 0 5 9 3 4 2 2 3 3 3 3 3 6 8 5 5 6 12 10 7 5 5 5 6 4 4 4 5 5 5 6 5 6
5 5 5 4 5 5 4 5 5 5 5 4 4 3 3 3 0 3 4 2 4 -0 5 9 8 4 3 3 3 3 3 4 4 5 7 6 6 6 10 11 7 7 6 5 5 4 6 5 6 5 5 6 8 9
5 5 5 5 5 5 5 5 5 5 5 4 4 3 3 4 3 2 2 4 2 2 3 9 10 7 3 6 7 4 6 4 6 7 6 8 6 7 11 8 8 7 5 6 6 5 5 5 5 7 7 8 10 11
6 5 5 5 5 5 5 4 4 4 4 4 3 3 0 1 3 2 5 3 0 3 7 10 11 13 4 7 6 6 5 10 6 9 8 7 9 11 11 9 8 8 7 7 6 6 7 8 9 9 9 10 10 10
6 5 5 5 6 6 6 5 4 4 4 3 1 3 5 2 4 4 2 4 4 4 5 9 5 9 5 7 9 8 8 10 11 9 6 10 11 11 10 9 8 8 7 7 10 11 11 10 10 9 9 9 9 9
5 6 6 6 6 6 5 5 5 4 4 1 4 6 2 4 2 4 7 8 6 9 7 8 6 8 5 9 10 7 10 9 13 10 11 12 12 12 10 10 9 8 8 8 8 9 9 9 10 10 9 9 9 10
5 6 6 6 6 6 6 5 4 3 3 3 2 2 3 4 6 10 11 9 9 10 9 9 8 7 7 4 8 8 11 9 14 7 12 13 13 11 11 10 9 8 8 9 8 9 9 9 9 9 10 10 9 9
6 6 6 6 6 6 6 6 6 6 5 1 3 8 6 8 13 12 14 12 12 10 10 9 10 7 7 6 9 9 13 13 7 12 12 12 12 11 10 9 9 8 9 9 9 9 10 10 10 9 10 9 7 7
6 7 7 7 7 7 6 6 5 4 3 7 9 12 11 12 12 12 11 11 12 11 10 8 10 9 9 11 10 12 12 10 13 15 13 13 12 11 10 9 10 11 11 10 10 10 10 10 10 9 9 9 9 9
7 7 7 7 7 7 7 6 6 5 8 10 10 14 14 13 13 13 13 12 12 10 9 8 9 7 10 11 10 11 13 14 12 13 12 12 11 11 10 10 10 11 11 10 9 10 10 8 8 8 8 9 9 10
6 6 7 7 7 7 7 6 5 6 9 11 12 13 13 13 13 13 13 13 11 11 10 7 10 11 12 11 13 13 13 14 13 11 12 11 12 11 10 9 9 9 9 9 8 8 8 9 8 8 9 10 9 10
6 7 7 7 7 6 6 7 7 10 11 12 13 12 12 13 13 13 12 12 11 11 13 11 12 13 11 12 13 11 12 11 11 11 11 11 10 10 9 9 9 8 7 7 7 7 8 9 9 10 11 10 10 10
7 6 7 7 6 6 7 7 8 10 13 11 13 12 11 12 12 12 11 10 9 10 10 12 10 12 12 13 12 11 11 11 11 11 10 9 9 8 7 7 7 6 7 8 8 9 9 10 10 10 10 11 10 10
8 7 7 7 6 6 10 10 8 13 12 11 11 11 11 11 10 10 10 9 8 8 9 10 11 12 12 11 11 11 11 10 11 11 9 8 8 7 6 7 8 8 8 9 9 9 9 10 10 10 11 11 11 10
7 7 7 7 6 8 11 11 8 11 13 12 11 12 11 11 10 11 11 9 9 9 12 13 14 14 13 11 9 8 7 8 8 9 9 8 7 7 8 8 8 8 9 10 11 10 10 10 10 11 11 11 11 12
4 5 4 3 5 7 10 10 10 10 10 12 11 11 11 10 11 11 11 8 10 11 12 11 10 9 9 8 7 6 7 6 6 5 7 8 8 8 8 9 9 9 9 9 10 11 11 11 11 11 11 11 12 11
4 4 3 4 6 7 7 6 7 6 8 8 8 8 9 9 9 9 7 8 10 10 9 9 9 8 9 10 9 9 7 7 8 8 8 8 9 10 10 10 10 10 11 11 11 12 11 12 13 13 12 13 12 12
4 4 5 6 8 9 10 6 9 8 10 10 8 10 10 9 8 6 9 9 11 10 9 10 10 9 10 10 11 11 10 9 10 10 10 11 11 11 11 11 10 10 11 12 12 12 13 14 13 14 13 13 12 13
5 8 9 9 9 11 9 10 8 9 9 10 11 12 12 10 8 9 12 12 11 10 11 10 9 10 10 11 12 12 12 11 12 11 10 10 11 11 11 12 12 13 13 13 13 13 13 14 15 14 14 14 14 14
9 11 9 11 8 10 11 11 10 10 12 11 12 11 11 9 11 12 13 13 12 13 12 11 11 11 12 12 12 13 12 11 12 12 12 10 11 12 12 13 14 14 13 14 14 14 14 14 14 15 15 14 15 15
12 11 11 11 11 11 11 12 12 12 11 11 11 10 9 9 12 14 13 12 12 12 12 11 10 10 11 11 12 12 12 10 11 13 14 13 12 12 13 13 13 13 14 14 15 15 15 15 15 16 15 15 15 15
12 12 10 8 9 9 9 9 8 9 10 11 9 9 9 12 12 12 11 11 11 11 11 10 10 11 11 12 12 12 12 12 12 13 13 13 13 13 14 15 16 15 14 14 15 15 16 16 16 16 15 14 14 14
10 9 11 9 8 7 9 9 9 10 9 8 8 11 11 12 12 12 12 10 10 10 11 11 12 12 12 12 12 11 12 12 13 12 12 12 12 12 13 13 14 17 15 15 16 16 16 16 16 15 15 15 15 15
9 8 8 11 9 8 9 9 9 8 7 8 9 10 12 13 12 12 12 11 9 9 11 12 12 11 12 12 12 12 12 12 13 15 15 14 13 13 13 14 14 14 14 15 15 15 15 16 16 16 16 16 16 15
9 7 8 10 10 10 9 8 8 8 7 8 9 11 12 13 12 11 11 11 12 12 12 12 12 12 13 12 13 13 13 14 15 16 16 16 16 15 15 15 15 15 15 15 15 15 15 15 15 15 15 16 16 16
7 7 9 9 10 9 8 7 6 7 8 9 9 10 12 13 13 12 13 13 12 12 12 13 13 13 13 14 14 14 14 14 16 16 17 16 15 15 14 14 14 14 15 15 15 15 16 16 16 16 16 16 17 17
8 10 10 11 9 8 7 8 8 8 9 9 11 11 12 12 14 14 13 12 12 13 16 13 13 14 14 14 14 14 19 16 15 16 16 16 15 14 14 14 14 14 15 16 16 16 16 16 16 16 16 17 17 19
9 8 9 9 9 10 9 9 10 11 10 11 13 12 13 13 16 14 13 13 14 14 14 14 13 14 15 16 15 15 16 14 15 16 16 17 18 17 17 15 15 15 16 16 16 16 16 16 17 17 18 18 18 19

GFSWCAN_con_lsi_030.txt.gz
Lid_Strength_Index
2 2 2 2 1 0 0 -0 -0 -0 -0 0 1 1 4 4 4 5 3 2 3 7 4 3 3 5 5 6 9 7 7 7 8 12 12 12 14 11 10 9 12 13 15 15 14 17 18 6 6 10 7 5 5 5
1 1 1 0 0 0 0 0 0 0 -0 1 2 4 4 4 4 3 5 2 2 5 5 2 2 2 3 3 5 6 6 7 7 9 10 10 13 12 12 13 7 12 10 12 11 12 6 4 5 4 4 4 4 5
2 2 2 1 1 0 0 0 1 1 2 2 3 4 3 3 3 3 4 4 2 5 5 4 5 2 1 1 1 7 5 4 5 4 8 9 13 10 14 12 10 7 6 9 9 6 6 5 4 4 4 4 4 4
4 4 3 3 3 4 4 3 4 3 3 3 3 4 3 3 3 3 4 3 2 4 10 7 1 3 1 1 1 2 3 3 3 5 8 10 12 7 11 9 9 7 7 8 8 6 6 5 5 4 4 4 4 3
6 6 5 5 5 4 4 4 4 4 3 3 3 3 3 3 3 3 2 1 1 4 9 7 3 2 1 2 2 2 3 4 5 8 10 11 7 9 8 8 10 6 7 10 11 7 7 6 5 4 5 5 5 6
6 5 5 5 5 5 4 4 4 4 4 4 4 3 3 3 4 3 5 1 0 1 6 10 4 4 3 2 3 3 3 4 5 7 8 6 5 8 12 12 7 6 5 5 7 5 5 4 5 5 7 7 7 7
5 5 5 5 5 5 5 5 4 4 4 4 4 3 3 4 2 4 5 3 5 1 6 10 9 4 3 3 4 4 3 4 5 6 8 7 7 7 11 12 7 7 6 5 5 4 6 5 7 6 8 8 8 9
5 5 5 4 4 4 5 5 5 4 4 4 4 4 4 4 3 3 2 3 3 3 4 10 11 8 4 7 8 4 6 5 6 7 6 8 7 8 11 8 8 7 6 6 5 5 6 6 7 8 8 8 10 10
5 5 5 5 5 5 5 4 4 4 4 4 3 4 2 2 4 2 4 4 0 3 8 10 12 13 4 6 6 6 5 10 6 9 8 8 10 12 9 9 8 7 6 7 6 6 7 8 9 9 9 9 10 10
5 6 6 6 5 5 5 5 5 4 3 3 2 3 7 3 4 4 2 4 5 5 5 9 7 10 6 8 10 9 8 10 12 9 7 11 13 11 10 9 8 7 6 7 9 10 10 10 10 9 9 9 10 10
6 6 6 6 5 5 5 4 4 3 3 2 4 6 2 4 2 5 8 8 7 10 8 8 7 9 6 10 11 8 11 10 13 11 11 12 12 11 9 8 8 7 6 7 8 8 9 9 9 9 10 10 11 11
6 6 6 6 6 6 5 5 4 2 2 2 3 1 2 5 7 10 11 9 10 11 10 9 8 8 7 5 8 9 11 10 14 8 12 13 12 10 9 9 8 8 8 8 8 9 8 9 9 10 11 11 11 11
7 7 7 7 6 6 5 5 5 5 4 1 4 8 7 9 12 13 14 12 13 12 11 10 11 8 8 7 10 9 12 13 8 13 12 12 11 10 10 9 9 8 8 8 9 9 10 10 10 11 12 11 11 11
7 7 7 7 7 6 6 6 5 3 3 7 10 12 12 13 13 13 13 13 13 12 11 9 11 10 10 11 10 12 12 10 14 15 13 13 12 11 9 9 9 10 11 10 10 10 11 11 12 12 12 12 12 11
7 7 7 7 7 6 6 6 6 5 7 10 10 14 14 13 13 13 13 12 12 10 10 9 8 8 11 11 10 12 13 14 13 13 13 12 11 10 10 10 11 11 12 10 11 11 12 11 11 11 11 10 11 12
6 6 8 7 7 6 6 5 6 6 10 12 12 14 13 13 13 13 13 13 12 12 9 8 11 12 12 12 12 13 13 14 13 12 12 11 11 10 10 10 10 9 9 10 10 11 11 11 10 10 10 11 12 12
6 7 8 7 7 7 6 6 7 10 11 12 13 13 13 13 14 13 13 13 11 12 13 11 12 13 11 12 13 11 13 12 12 12 11 11 10 10 9 10 10 9 9 9 9 9 9 9 10 10 11 11 11 11
7 6 7 6 5 6 6 6 10 11 13 13 14 13 13 13 13 13 12 11 11 12 12 12 11 13 13 13 13 12 12 12 11 11 11 10 9 9 9 9 9 9 9 9 9 9 9 9 10 11 11 12 11 11
7 7 7 6 5 7 9 9 8 13 12 12 12 11 11 11 10 10 11 9 8 8 9 11 13 14 14 13 13 12 12 12 12 12 11 10 10 10 9 8 8 8 8 8 9 9 11 11 11 11 12 12 12 11
7 7 7 6 6 8 11 10 7 11 13 12 11 12 11 11 10 11 11 9 10 10 13 15 15 15 14 13 13 12 11 11 11 12 12 10 8 8 8 8 8 9 10 11 11 10 10 11 12 12 12 12 12 12
5 6 5 5 6 8 10 10 11 11 11 12 11 11 12 10 11 11 11 9 12 13 14 14 13 13 12 13 13 12 11 9 9 8 8 9 8 7 8 8 9 9 10 10 11 12 12 13 12 12 12 11 12 11
4 4 3 3 6 7 8 7 8 7 9 10 10 9 11 12 11 11 9 12 14 13 12 12 12 11 11 12 11 10 9 9 9 9 9 9 10 10 10 10 11 12 13 12 12 12 12 13 13 13 13 13 13 11
3 3 4 5 9 9 10 6 9 8 11 10 8 10 10 10 9 6 11 11 11 10 9 10 10 10 11 11 11 11 10 10 11 11 11 12 12 12 13 13 12 12 13 13 12 12 13 14 13 14 12 13 13 13
4 8 9 9 8 11 7 10 8 9 9 11 11 12 12 10 8 10 13 12 12 11 11 11 10 10 11 12 14 13 12 11 12 12 11 12 13 13 12 13 13 13 12 12 13 13 13 13 14 14 14 14 14 14
9 11 9 11 8 9 11 11 10 10 12 11 11 12 11 9 11 12 13 13 13 13 12 11 11 12 12 12 13 13 12 12 13 14 13 10 11 12 12 13 13 14 13 14 14 14 14 14 14 14 15 15 15 15
13 11 11 11 11 11 11 12 12 11 11 11 11 10 8 9 12 14 13 12 13 13 13 12 11 11 13 12 13 13 13 10 11 13 13 12 12 12 13 13 13 15 14 14 15 16 15 15 15 16 16 15 16 15
13 12 10 8 9 9 10 9 8 9 10 10 9 9 9 11 12 12 11 11 11 11 11 11 11 11 12 12 12 12 12 12 13 13 12 13 13 13 14 15 16 16 15 14 15 16 17 17 17 16 16 15 15 15
10 10 12 9 9 7 9 9 9 10 9 8 8 10 12 13 14 12 11 10 10 10 11 11 11 12 12 12 11 11 11 11 12 11 12 12 12 12 13 13 14 15 14 14 15 16 16 17 17 17 16 16 16 15
10 8 7 11 8 8 9 9 9 9 8 8 10 10 12 13 12 11 11 10 9 9 11 11 11 10 11 11 12 12 13 13 14 15 15 14 13 14 13 13 14 14 14 15 15 15 15 15 16 16 16 16 16 15
9 7 8 9 10 10 9 8 8 8 8 8 9 11 12 13 12 10 11 11 12 12 12 12 12 12 13 12 13 13 13 14 15 16 17 17 17 15 14 14 15 15 15 15 15 15 14 15 15 16 15 15 15 16
7 7 8 8 9 9 8 7 7 7 8 9 9 10 13 13 13 12 12 11 11 11 11 12 13 13 14 15 15 15 15 14 15 15 17 16 16 15 15 15 14 14 14 15 15 16 16 16 16 17 16 17 17 17
8 10 9 10 9 8 7 8 8 7 8 9 11 11 12 11 14 14 13 12 12 13 14 13 14 14 14 14 14 14 17 15 15 16 16 17 17 16 16 15 15 14 14 15 15 15 16 16 16 16 17 17 17 18
8 8 8 9 9 9 8 9 9 10 10 11 12 11 13 14 17 14 12 12 13 14 14 14 13 13 14 15 15 15 15 14 15 14 15 15 18 17 17 16 15 16 16 16 16 16 16 16 16 16 17 18 18 19

GFSWCAN_con_lsi_033.txt.gz
Lid_Strength_Index
3 3 2 2 2 2 2 1 0 0 0 0 0 -0 1 1 2 3 5 4 4 7 6 5 4 6 6 7 11 8 9 9 10 13 13 15 16 13 13 11 13 14 15 17 15 17 18 7 8 11 9 7 7 7
2 2 2 2 2 2 2 1 0 0 0 0 -0 0 1 1 1 3 6 4 3 6 6 3 4 4 4 4 7 7 8 8 8 11 12 13 14 14 13 16 9 14 12 14 13 13 8 7 8 7 7 7 6 6
2 2 2 2 2 2 1 1 0 0 0 -0 -0 0 2 1 3 3 6 4 4 5 6 5 7 3 2 2 2 8 7 6 7 6 9 11 13 12 16 14 12 9 7 11 11 9 8 7 6 5 5 6 5 7
2 2 2 2 2 1 1 1 0 0 0 -0 -0 1 2 1 4 5 6 4 3 6 10 8 2 4 2 2 2 3 4 5 5 6 10 12 13 9 13 10 11 9 8 9 10 8 7 7 6 6 6 6 8 8
3 2 1 0 0 0 0 0 0 0 0 0 1 2 2 3 4 4 4 3 3 5 9 8 4 3 2 3 3 3 4 6 7 10 14 12 9 11 11 11 12 9 9 12 13 8 8 8 7 7 8 8 8 9
4 4 3 2 1 1 1 1 1 1 1 2 2 2 3 4 3 4 6 4 3 3 7 11 5 5 4 4 4 5 5 5 6 8 11 9 7 10 14 15 8 8 7 7 8 6 7 8 8 8 9 9 9 9
6 6 5 4 4 4 4 3 2 2 2 2 3 3 4 3 3 5 7 3 4 4 7 11 10 5 4 4 6 6 5 6 6 8 11 9 9 9 14 14 9 8 7 7 7 7 9 8 10 9 9 10 9 10
6 6 5 6 5 5 5 4 3 3 3 3 3 3 4 3 2 4 2 4 5 4 5 11 11 9 4 8 10 7 8 8 9 10 10 11 10 13 14 10 9 8 8 8 8 7 8 9 9 9 9 10 10 11
5 5 5 5 5 5 5 4 4 3 3 3 3 3 3 3 4 4 3 4 2 4 10 13 12 13 5 9 10 8 8 13 8 13 12 11 15 14 11 10 10 9 9 10 9 9 9 10 10 10 10 11 11 11
5 5 5 5 5 5 4 4 4 4 4 3 2 4 8 4 4 4 4 7 7 7 8 11 8 11 7 11 12 12 12 13 13 11 10 13 14 12 11 11 10 9 9 9 11 12 11 11 11 10 10 11 11 11
5 5 5 5 5 5 4 4 4 3 3 3 5 7 4 4 4 7 12 12 11 13 11 9 9 10 7 12 13 12 13 13 15 14 13 14 15 13 10 10 9 9 8 9 9 9 9 9 10 11 12 12 12 13
6 6 5 5 4 4 4 4 3 2 3 3 4 3 4 5 10 12 13 13 12 13 12 11 11 8 10 7 13 12 13 14 15 11 13 15 14 11 10 10 9 9 9 9 9 9 9 10 10 11 11 12 13 14
6 6 6 6 5 5 4 4 4 3 4 4 7 10 9 12 13 13 15 13 14 13 12 12 13 12 11 10 12 13 13 14 12 13 14 14 12 11 10 10 9 9 9 9 11 11 11 12 12 12 13 13 14 14
7 7 7 6 6 5 5 5 5 4 5 10 12 14 13 14 15 15 14 13 13 13 13 12 13 12 13 13 13 14 13 13 15 18 17 14 12 11 10 9 10 11 12 12 12 12 13 13 14 14 15 15 15 15
7 7 7 7 6 6 6 6 5 6 9 13 13 16 15 14 13 13 13 13 13 12 12 12 12 11 13 13 13 14 14 15 15 15 14 12 11 11 11 11 12 12 13 12 11 12 13 13 14 14 14 14 15 15
6 7 8 7 6 6 6 6 7 8 11 12 13 14 13 13 14 13 13 13 12 13 12 12 13 13 14 13 14 14 16 16 14 14 13 11 11 11 12 11 11 11 11 12 12 12 12 13 14 14 14 14 16 16
6 9 7 7 6 6 6 7 9 12 13 13 14 13 13 13 14 13 13 13 11 12 13 13 14 15 13 14 15 14 16 14 14 13 12 11 11 11 11 11 11 11 11 12 12 13 13 13 13 13 13 13 12 13
8 7 6 6 6 7 7 8 12 13 14 14 15 14 13 13 13 13 13 12 12 13 13 14 13 14 16 16 16 14 14 13 13 12 12 10 10 10 10 10 10 11 12 13 13 13 12 12 12 13 13 13 13 13
8 7 6 6 6 9 12 11 10 14 14 13 13 13 13 13 12 12 11 11 11 11 12 14 17 17 17 16 16 14 13 13 13 13 12 11 11 11 10 11 12 12 13 12 12 13 13 13 13 14 14 13 14 15
7 7 6 7 6 11 12 12 9 12 14 13 12 13 13 13 12 12 12 12 12 13 15 16 17 16 16 15 15 14 13 12 12 13 13 12 11 11 11 11 12 12 12 12 12 12 13 14 13 14 14 15 17 17
7 8 6 7 9 10 12 13 13 12 12 13 13 13 14 13 13 13 14 13 15 15 16 16 15 15 14 14 14 13 14 13 13 12 12 12 11 11 11 10 10 10 11 13 13 14 15 16 15 14 18 20 20 19
7 4 9 8 11 12 12 12 12 11 12 12 13 13 14 16 15 14 14 16 17 15 14 15 15 15 15 16 15 14 13 13 13 13 12 11 12 13 12 13 14 15 15 14 14 15 15 15 15 16 20 20 18 17
4 5 8 9 13 14 15 10 14 11 15 12 12 13 13 14 12 10 15 13 13 12 12 11 11 12 13 13 13 12 12 12 13 13 13 14 14 14 15 15 14 15 15 14 13 14 14 15 16 19 18 20 20 22
5 9 11 12 13 13 13 14 11 11 11 12 13 14 13 13 11 15 15 14 14 12 13 12 11 12 13 14 15 15 13 13 14 14 13 14 15 15 15 15 15 14 13 13 14 14 15 18 18 19 23 25 25 24
14 14 13 17 13 15 17 15 15 13 13 13 15 16 13 12 17 15 16 15 16 16 15 13 14 14 14 15 15 15 14 13 15 16 15 13 14 14 14 14 15 15 14 16 18 20 22 23 24 24 23 26 22 23
15 12 14 13 12 13 13 14 13 13 12 14 13 11 13 13 17 18 15 15 17 15 15 15 13 15 15 14 15 15 15 12 13 15 15 14 15 15 15 16 17 18 17 21 24 24 23 24 25 24 25 22 21 21
14 13 11 9 10 10 11 10 11 14 14 15 12 12 15 14 18 15 13 12 13 14 13 13 12 13 13 13 13 13 14 14 15 14 14 14 15 15 18 22 23 20 19 21 24 26 26 26 26 26 26 21 22 23
12 11 13 11 11 10 11 11 11 12 11 10 11 16 17 16 18 14 13 11 11 11 12 12 13 13 13 14 14 15 15 15 17 16 15 15 15 17 19 20 19 17 19 20 23 22 24 23 25 26 26 26 26 26
12 10 13 18 15 11 11 11 12 10 9 10 14 16 16 14 14 13 12 11 11 12 13 14 13 13 15 16 16 17 18 18 20 23 24 23 21 20 20 21 21 21 22 22 19 18 20 21 20 23 25 22 21 22
12 9 14 16 17 13 11 9 10 10 9 9 12 13 14 15 14 13 13 13 14 16 16 14 14 16 17 16 18 19 21 22 22 25 27 27 26 22 22 19 20 23 23 24 25 24 20 23 22 25 25 24 21 22
8 10 14 13 15 13 9 8 9 9 10 12 14 16 17 16 16 15 15 14 15 14 14 17 18 19 20 21 22 24 22 22 22 21 24 25 25 25 21 22 20 19 24 19 22 25 26 26 24 23 25 25 23 23
12 14 16 16 12 12 8 9 11 10 11 13 17 17 18 16 20 18 15 14 16 16 17 18 20 20 22 22 22 23 22 23 20 23 24 25 26 26 26 25 24 20 19 20 20 20 21 22 24 21 22 22 26 27
13 13 14 15 14 13 12 15 13 14 15 16 17 16 18 19 21 18 15 16 19 21 20 19 17 17 20 22 23 22 19 20 21 17 17 17 21 22 25 24 25 26 26 26 25 26 24 22 19 20 22 24 26 25

GFSWCAN_con_lsi_036.txt.gz
Lid_Strength_Index
4 4 4 4 3 3 3 3 2 2 2 2 2 2 1 2 2 2 3 2 5 7 6 5 5 7 6 7 11 9 9 9 11 13 14 15 17 13 14 12 13 14 16 19 16 19 17 7 9 11 10 8 8 7
4 4 4 3 3 3 3 2 2 2 2 2 2 1 1 2 1 1 4 2 2 6 6 4 5 4 4 4 7 8 8 8 8 11 12 14 15 16 15 16 10 14 12 13 13 13 9 8 8 7 7 7 7 7
3 3 3 3 2 2 2 2 2 1 1 1 0 0 0 1 1 2 4 3 4 8 7 5 6 4 3 3 3 8 8 6 7 6 9 11 14 14 16 15 13 10 8 11 11 9 9 7 7 6 6 8 8 8
2 2 2 2 2 2 2 1 1 1 1 0 -0 0 0 1 1 2 5 3 4 5 11 8 2 4 3 2 3 4 4 5 5 7 11 13 14 9 14 11 12 10 9 11 11 9 8 8 8 8 8 9 9 9
2 2 2 2 2 2 1 0 0 0 0 0 -0 -0 -0 1 1 2 3 3 2 5 9 9 5 3 3 3 3 3 4 6 8 10 13 13 10 10 13 12 12 9 10 13 13 8 9 9 8 8 9 9 10 10
1 2 2 2 1 1 0 0 0 0 0 -0 -0 -0 1 2 2 2 8 4 2 2 7 11 5 5 4 3 4 5 5 6 7 8 11 9 8 11 14 16 9 9 8 8 9 8 9 9 9 9 10 10 11 11
3 1 0 1 1 1 1 1 1 0 0 0 -0 1 2 2 3 5 6 3 3 3 8 12 10 5 4 5 7 6 5 6 6 8 11 11 10 10 15 14 9 9 8 9 9 9 11 10 12 11 11 11 10 11
4 3 2 1 0 1 1 1 1 0 0 0 1 1 2 2 3 6 2 3 3 5 6 12 11 10 5 10 11 8 9 8 8 10 12 13 10 13 14 10 9 9 10 9 10 9 10 11 11 11 11 11 12 12
4 4 3 3 2 1 1 1 1 1 1 1 2 2 2 2 5 5 4 4 3 5 10 13 12 13 7 10 10 11 11 13 9 13 13 11 14 15 12 11 10 10 10 11 11 11 11 12 12 12 11 12 12 13
5 5 4 3 3 2 2 2 3 2 2 2 3 5 8 5 3 3 4 6 7 8 9 12 10 12 8 13 13 14 13 13 15 13 10 14 14 13 12 11 10 10 10 11 13 14 13 13 13 12 12 12 12 13
4 4 4 4 4 4 5 4 4 2 2 3 5 8 4 4 4 7 11 12 11 13 11 10 10 10 8 13 13 13 13 13 14 12 13 14 14 12 11 11 9 10 9 10 10 11 11 11 12 12 13 13 14 14
4 4 4 4 4 4 3 4 4 3 3 3 4 4 5 7 11 12 14 13 13 13 12 12 11 9 10 8 11 11 13 14 15 11 13 15 14 11 10 10 10 10 10 10 10 11 11 11 11 12 13 14 14 14
5 4 4 4 4 3 3 3 3 3 3 5 8 11 10 13 14 15 16 14 14 13 12 12 12 12 11 9 12 14 17 15 14 14 15 15 13 11 11 10 11 11 11 11 11 11 11 12 12 14 15 15 14 15
6 6 5 5 4 4 4 5 5 5 7 11 13 15 14 15 15 15 14 14 13 13 13 12 12 13 13 12 13 14 14 14 16 17 17 14 12 11 11 11 12 12 13 12 12 13 13 14 14 14 15 15 15 16
6 6 6 6 5 5 5 6 6 7 10 13 13 16 15 14 13 13 13 13 13 12 12 12 12 12 14 14 14 14 15 16 17 18 14 13 12 12 12 12 12 13 13 13 13 14 14 15 15 15 15 15 15 17
7 7 7 6 6 6 6 7 8 9 11 13 14 14 13 14 14 13 13 13 12 13 12 12 13 14 14 14 14 15 16 17 16 15 13 12 12 12 12 12 12 12 12 13 13 14 14 15 15 15 15 16 17 18
7 9 7 6 6 6 6 9 10 13 13 15 15 13 14 14 14 14 14 13 12 13 13 15 15 15 14 15 16 15 17 15 14 13 12 12 12 12 12 12 12 12 12 12 13 13 14 14 14 15 16 16 16 16
10 9 6 6 7 7 8 9 12 14 15 14 15 14 13 13 14 13 13 12 12 13 13 14 13 16 18 19 19 16 14 13 13 13 12 12 12 12 11 12 11 12 12 13 13 13 14 15 16 16 15 14 14 13
8 7 7 6 7 10 13 12 11 15 14 13 13 13 13 13 13 13 13 12 12 12 13 15 18 18 19 17 18 17 14 14 14 13 13 12 11 11 11 12 12 12 13 14 14 16 16 15 15 14 14 14 16 15
7 7 7 7 8 12 13 13 10 13 14 13 13 13 13 13 13 14 15 14 14 15 17 18 19 18 18 17 16 15 15 13 13 13 14 13 12 12 12 13 14 14 14 15 16 16 15 15 14 14 15 16 18 18
9 9 8 10 11 12 14 14 13 13 13 13 13 13 14 14 15 16 16 15 16 17 18 16 17 16 16 16 15 15 15 15 16 14 13 14 13 13 14 14 13 14 14 15 16 16 16 16 15 15 16 18 20 20
9 7 13 11 14 14 15 13 14 14 14 14 15 14 17 18 17 17 16 17 18 17 15 16 16 17 17 17 16 15 15 15 15 16 16 16 16 16 15 15 15 16 15 15 16 16 16 16 15 16 16 18 17 16
7 9 11 13 16 16 17 12 15 12 16 15 14 15 15 15 13 13 17 16 16 15 14 15 16 15 16 16 15 15 15 15 16 15 15 16 16 16 16 15 15 16 16 15 14 15 16 15 16 17 18 18 20 22
7 12 15 14 15 17 17 14 12 12 12 14 16 15 13 13 13 17 17 17 15 14 14 14 13 15 15 16 17 17 15 15 16 16 14 15 17 17 16 16 16 16 15 15 16 16 17 18 18 19 21 26 28 28
15 16 17 20 17 18 21 20 18 16 19 19 19 18 15 15 18 20 19 17 17 18 17 15 15 16 17 17 17 16 15 15 17 17 16 14 15 16 16 16 17 17 16 19 20 22 22 23 25 27 26 30 24 25
16 14 16 13 13 14 15 16 15 15 18 18 16 15 14 18 22 21 16 17 18 16 17 17 16 16 16 15 16 16 16 13 14 16 16 15 16 17 17 18 20 19 19 22 26 28 27 28 29 28 29 25 22 24
15 16 12 10 11 13 15 16 15 18 20 19 17 18 18 21 22 16 13 13 14 14 13 14 13 14 15 15 14 15 15 15 15 15 15 15 16 17 21 25 24 21 20 23 27 28 27 28 29 29 30 30 28 29
12 13 15 14 14 15 18 20 20 18 18 12 14 20 22 22 20 15 14 13 12 12 13 13 13 14 15 17 17 18 19 18 15 16 16 17 18 19 20 20 21 17 22 23 25 24 25 24 24 25 26 29 27 28
13 13 17 18 20 18 14 17 17 13 10 11 17 20 19 16 15 15 13 13 12 14 15 15 15 16 17 18 20 20 20 21 24 26 29 29 27 24 20 19 19 20 24 24 21 19 21 23 22 26 28 28 24 25
18 16 19 23 21 18 14 12 14 13 12 15 15 15 16 17 15 15 15 15 16 16 17 17 17 18 21 23 23 21 22 23 22 26 29 29 27 24 25 26 25 22 21 22 23 22 21 27 26 27 26 26 30 30
14 18 19 18 16 15 11 9 13 12 18 20 19 21 21 19 18 16 15 16 15 17 18 20 21 25 23 24 27 29 27 24 24 24 25 27 29 30 30 30 30 29 26 26 26 25 25 26 26 26 26 23 24 27
20 21 20 18 17 14 15 15 12 12 18 19 21 24 22 23 24 19 17 19 19 19 19 22 24 21 25 28 29 27 23 23 23 23 23 24 25 24 27 28 30 30 31 31 31 29 29 28 27 24 22 22 24 26
18 21 23 22 16 17 18 19 15 17 19 19 20 21 22 22 23 20 17 18 20 23 24 24 23 22 21 23 25 25 24 27 27 22 22 21 23 23 27 28 29 29 28 29 30 31 27 28 29 29 26 24 24 26

GFSWCAN_con_lsi_039.txt.gz
Lid_Strength_Index
3 3 3 4 4 4 4 4 4 4 4 3 3 3 3 2 1 2 4 1 3 7 7 5 5 7 7 7 10 8 9 9 12 13 14 15 17 13 15 13 14 14 17 19 19 21 18 10 10 12 11 9 8 9
4 4 3 4 4 4 4 4 4 4 3 3 3 2 2 2 0 1 5 2 1 5 6 4 5 4 5 5 6 7 8 9 8 11 13 14 15 17 14 16 11 14 12 14 14 15 11 9 9 8 8 8 8 7
3 3 3 4 4 4 4 4 3 3 3 3 2 2 2 1 -0 1 3 1 3 6 6 6 7 4 3 4 3 8 8 6 7 7 10 12 14 14 16 15 13 11 9 12 11 10 9 8 8 8 7 8 8 7
3 3 3 3 3 3 3 3 3 2 2 2 2 2 2 1 0 1 2 2 3 6 10 7 2 5 2 3 3 4 5 5 6 7 11 13 15 10 16 12 12 11 9 11 12 10 9 9 9 10 10 9 10 10
3 3 3 3 3 3 2 2 2 2 1 1 2 1 1 0 0 0 1 2 2 6 9 8 5 4 3 3 4 3 4 6 9 11 15 13 11 10 12 12 13 10 10 12 13 9 9 9 9 9 10 10 10 11
2 2 2 2 2 2 1 1 1 1 1 0 0 1 0 -0 -0 2 6 4 3 3 7 12 7 5 4 4 4 5 5 6 7 9 12 9 8 9 13 15 10 9 8 9 9 8 9 10 10 10 11 11 11 11
1 2 2 1 1 1 1 1 1 0 1 0 -0 -0 -0 -0 1 5 7 5 3 3 8 12 12 7 4 6 6 6 6 7 6 8 11 10 10 10 14 16 10 10 9 10 10 10 12 11 12 11 11 11 11 12
2 2 2 1 1 1 1 1 0 0 0 0 0 -0 0 0 2 5 2 2 2 5 7 12 12 10 5 9 10 7 9 7 8 9 12 13 11 14 13 12 11 10 10 10 11 10 11 12 12 12 12 12 13 14
1 1 2 2 1 1 1 1 0 0 -0 -0 0 0 1 3 6 4 2 2 0 4 10 12 13 13 7 10 10 11 9 12 9 13 12 11 14 14 12 11 11 10 10 12 12 12 12 13 13 13 13 14 14 15
1 1 2 2 2 2 1 1 0 -0 -0 -0 1 4 8 5 3 3 4 6 6 5 7 12 9 11 7 13 13 13 13 13 13 13 12 13 14 13 12 11 11 11 11 12 14 14 14 14 14 14 14 14 14 15
2 2 2 2 2 2 2 1 1 1 1 3 5 6 2 1 4 7 11 11 11 12 11 11 10 11 9 13 14 14 14 14 14 13 13 15 15 13 12 12 11 11 11 10 10 11 11 12 13 13 14 14 14 15
3 3 3 3 3 2 2 2 2 3 3 4 3 3 4 6 10 12 13 13 13 14 12 12 11 9 12 10 13 13 14 14 15 12 14 15 14 12 10 10 10 10 10 11 10 11 11 12 12 13 14 15 15 14
5 4 5 5 4 4 5 4 4 3 3 4 7 11 10 12 14 14 15 15 14 14 13 13 13 13 12 12 15 16 16 16 13 14 15 14 12 10 10 11 11 10 10 11 12 12 12 13 13 14 15 14 15 15
4 4 4 5 5 5 5 5 5 5 6 11 13 15 14 16 15 15 14 14 14 14 13 13 13 13 13 13 14 17 14 14 16 17 16 14 12 12 12 12 12 12 13 13 13 13 14 15 15 15 15 15 16 17
5 5 5 5 5 5 5 5 5 7 10 13 13 16 16 14 14 14 13 13 13 12 13 12 12 12 13 13 13 14 14 16 17 20 15 14 12 12 13 13 14 14 14 14 14 14 15 15 15 16 15 16 17 18
6 6 6 5 6 5 6 7 8 9 13 14 14 15 14 14 14 13 13 13 12 13 13 13 15 16 14 14 15 16 16 18 17 15 14 13 13 13 13 13 13 13 14 14 14 14 15 15 16 16 16 17 18 19
7 9 7 6 6 6 6 8 11 13 13 14 14 13 13 14 14 13 13 13 12 13 13 15 15 16 13 16 18 16 18 16 15 14 13 13 13 13 13 13 13 13 14 14 14 14 15 15 16 16 17 17 16 17
10 9 6 6 6 7 8 10 12 13 15 14 15 14 14 15 15 15 14 13 13 13 14 16 14 18 21 21 20 18 17 14 13 13 13 13 12 12 12 12 12 12 13 13 14 15 15 16 16 16 16 16 16 17
9 9 7 7 7 9 12 12 12 15 14 13 13 13 14 15 15 15 14 13 13 13 14 16 19 20 20 19 19 18 17 15 14 13 13 13 12 12 12 12 13 13 14 14 15 15 16 16 16 16 16 17 17 17
8 8 8 8 8 12 14 14 11 13 15 14 13 15 15 16 15 16 16 15 15 15 18 20 20 19 19 18 17 17 17 16 13 14 14 15 14 14 14 14 15 15 16 16 16 16 16 17 17 17 17 17 17 17
10 9 10 10 12 13 14 14 14 12 13 14 14 14 15 15 17 18 18 16 18 18 19 18 18 18 16 17 17 16 17 17 18 16 15 17 16 16 16 16 15 16 17 17 18 18 17 17 16 16 17 19 18 17
11 9 15 13 15 15 15 14 14 15 14 15 16 15 17 19 20 18 17 19 19 19 18 18 18 18 18 18 18 17 16 16 17 17 17 17 18 18 18 17 17 18 18 17 17 18 17 16 16 16 17 18 16 17
9 10 13 13 16 17 18 13 17 14 18 17 16 17 17 18 16 14 19 17 18 16 16 17 17 17 18 18 18 17 17 17 18 18 18 19 18 18 18 18 17 17 17 17 16 16 17 16 17 18 18 18 18 21
9 15 17 18 16 21 19 17 13 14 16 18 17 16 15 15 15 19 20 19 17 16 16 16 15 16 16 17 18 17 16 16 17 17 16 17 18 18 18 18 18 17 17 17 18 19 19 20 20 20 22 24 25 26
15 17 18 20 19 19 22 22 20 18 22 22 21 17 15 17 21 22 21 19 19 18 18 16 17 17 18 18 17 17 15 16 18 18 17 15 16 17 18 18 18 18 18 20 22 22 22 24 25 26 25 29 24 27
18 15 16 17 18 19 21 21 21 19 21 20 18 16 18 23 25 23 18 19 19 17 19 17 18 17 17 16 17 17 17 15 16 18 18 17 18 19 20 21 21 20 20 25 27 29 28 29 30 28 30 27 26 29
21 21 14 12 14 16 20 20 18 20 18 18 16 24 23 27 25 18 14 14 15 15 14 14 15 16 17 17 16 16 17 16 17 17 17 18 19 19 22 25 25 21 20 25 28 28 26 28 30 29 29 33 32 31
17 17 21 20 20 18 24 24 23 20 20 16 18 25 27 26 22 16 15 13 13 13 14 15 16 17 19 19 19 19 18 18 18 19 20 20 20 21 22 20 19 18 21 23 24 27 30 26 26 26 29 29 27 31
14 16 18 22 22 20 17 20 20 14 13 16 23 22 21 18 18 17 15 14 14 15 17 18 19 19 19 20 21 22 22 24 25 28 31 32 30 26 26 27 27 27 26 25 23 19 18 21 24 28 28 29 26 26
20 19 22 26 23 19 17 18 21 20 16 18 17 17 18 19 17 15 15 16 18 19 21 22 23 22 26 27 27 23 24 27 27 28 30 30 27 26 32 32 32 30 30 30 29 27 23 27 25 27 28 28 30 31
20 21 22 21 19 18 17 20 19 20 23 24 25 24 23 20 19 17 17 18 19 21 21 24 27 31 28 29 30 30 28 24 26 25 26 27 28 29 28 29 33 34 34 35 35 33 31 31 31 31 29 27 26 26
22 25 22 21 18 17 13 16 17 21 22 22 23 27 23 26 26 21 19 21 23 25 25 28 27 25 26 29 30 29 26 27 28 29 29 30 29 29 31 30 33 34 33 34 35 34 33 32 32 33 33 31 28 27
24 26 26 23 20 20 21 21 17 20 20 22 22 23 24 25 26 22 20 23 25 27 28 29 29 28 25 26 27 29 28 31 31 25 24 23 25 27 31 33 34 35 33 34 34 33 33 32 34 35 32 29 27 26

GFSWCAN_con_lsi_042.txt.gz
Lid_Strength_Index
1 1 1 1 1 1 1 2 2 3 3 3 3 3 3 2 2 4 5 3 6 7 6 5 5 7 7 7 10 8 8 8 11 13 13 15 16 14 15 13 13 14 16 19 19 20 18 11 11 13 11 10 9 9
3 3 3 2 2 2 2 3 3 3 3 3 3 3 3 2 2 3 6 3 2 6 6 4 5 5 6 5 6 7 8 9 8 11 13 14 16 17 14 16 12 14 13 14 14 14 11 11 11 10 9 10 9 9
4 4 4 4 3 3 3 3 3 3 3 3 3 3 3 3 2 3 5 4 5 7 6 6 7 4 4 4 3 7 7 6 7 6 10 11 14 14 16 15 13 12 11 13 13 11 10 10 10 9 8 8 8 8
3 3 3 4 4 4 4 4 4 4 4 4 4 3 3 3 2 3 5 3 4 5 10 8 2 4 2 3 4 4 4 5 6 7 11 13 14 11 15 12 12 11 11 12 13 11 10 9 9 9 10 9 10 10
3 3 3 3 3 3 4 4 4 4 4 3 3 3 3 2 2 3 3 3 1 5 9 8 4 4 3 3 4 4 4 6 8 11 14 13 11 11 13 12 14 11 11 13 13 10 9 9 10 9 10 11 10 11
3 3 3 3 3 3 3 3 3 3 3 3 3 3 2 2 2 3 6 2 2 2 6 10 5 6 4 3 4 5 5 6 8 10 12 10 8 9 13 14 10 10 9 9 10 9 10 10 11 10 11 12 11 11
2 2 2 2 3 3 2 2 2 2 2 2 2 2 2 2 3 5 6 3 2 2 7 11 11 6 4 4 5 6 6 7 8 10 13 10 10 9 15 14 10 10 9 10 10 10 12 11 12 12 12 12 11 12
2 2 2 2 2 2 2 1 1 1 1 1 2 2 2 1 1 4 2 1 2 5 7 12 12 10 5 8 9 7 9 9 8 11 12 12 11 14 13 12 11 11 11 11 11 11 11 12 12 13 12 12 13 14
2 1 2 1 1 1 1 1 1 1 0 1 1 1 1 2 5 4 1 2 2 5 11 12 12 13 6 10 9 10 10 13 9 13 12 11 14 13 12 12 11 11 11 13 13 13 13 13 14 13 13 14 14 14
2 2 2 2 1 1 1 0 0 0 0 0 1 4 6 5 1 1 3 6 7 5 6 10 9 11 8 12 12 12 12 13 13 12 10 13 13 12 12 11 11 12 12 12 14 15 14 15 14 14 14 14 14 14
2 2 2 2 1 1 1 0 0 0 0 3 5 6 3 1 3 6 10 11 9 11 10 10 10 10 8 12 13 13 14 14 14 13 13 14 14 13 12 11 11 11 12 11 11 12 12 13 14 14 14 14 15 15
2 2 1 1 1 1 1 1 1 2 4 4 3 2 3 6 8 10 11 11 12 12 11 12 11 9 11 9 12 13 14 14 15 12 14 15 14 12 12 12 12 11 11 12 12 12 13 13 13 14 15 15 15 15
2 2 3 3 4 4 3 3 2 3 3 3 6 10 9 12 13 13 15 14 14 13 12 12 12 12 11 11 13 14 15 15 14 15 16 16 13 12 11 11 11 10 11 11 12 12 12 14 14 14 15 15 15 16
5 5 5 4 4 4 4 4 4 4 6 11 12 15 16 17 15 15 14 14 14 14 13 13 13 13 14 13 14 14 15 14 17 18 18 15 13 13 12 12 12 13 13 13 13 14 14 15 15 15 15 16 16 16
6 6 5 5 5 5 4 5 5 6 10 13 13 16 16 13 13 14 13 13 13 13 13 13 13 12 14 14 14 14 15 17 17 18 15 13 13 13 13 13 14 14 14 14 15 15 16 16 16 17 17 16 16 17
5 5 5 5 5 5 5 6 7 9 12 13 14 15 14 15 15 15 14 14 12 13 13 13 14 14 14 14 16 17 17 19 17 15 14 13 14 14 14 14 14 14 14 14 15 15 15 16 16 17 17 18 18 19
6 8 5 5 6 6 6 8 10 13 14 14 15 15 15 15 16 16 15 14 12 12 14 14 19 19 15 18 20 18 20 17 16 14 13 13 14 14 14 14 14 14 14 15 15 15 15 15 16 17 18 18 17 18
9 7 6 6 6 7 8 9 13 13 15 14 16 16 16 16 17 17 15 14 13 13 15 17 16 21 22 22 22 20 18 17 14 14 14 13 13 13 13 13 13 13 14 14 15 15 16 16 16 17 17 17 18 17
8 8 6 6 7 9 12 12 12 16 16 15 15 15 16 16 16 16 15 14 14 14 15 17 20 22 22 20 21 20 19 18 16 15 16 15 13 13 13 13 13 14 15 15 15 16 16 16 17 17 17 17 18 18
8 8 8 7 7 11 13 13 11 14 15 16 15 17 17 18 17 17 17 16 16 17 19 21 21 20 20 20 19 18 18 18 16 16 18 18 16 17 17 16 16 16 17 17 17 17 17 18 18 18 17 17 18 19
10 10 10 11 12 12 14 14 13 13 13 14 14 15 17 17 19 20 20 17 19 20 21 19 20 19 18 18 18 17 18 18 19 18 18 19 18 17 18 17 17 18 19 19 19 19 19 19 18 18 19 19 18 18
12 10 15 13 15 15 15 15 15 15 15 16 17 16 19 22 22 20 18 21 21 20 19 19 19 19 19 19 19 18 18 18 18 19 19 19 20 20 20 19 19 20 19 19 19 20 20 19 18 19 19 18 17 18
11 12 14 14 17 18 19 14 17 14 18 18 17 17 18 18 16 15 21 17 17 16 16 15 16 17 18 18 18 18 17 18 19 19 19 20 20 20 21 21 20 20 21 20 19 19 20 19 19 20 19 19 19 21
10 16 19 19 17 22 20 20 15 16 18 19 19 19 17 17 17 21 21 20 18 16 17 16 16 17 17 17 18 18 17 17 18 18 17 18 20 20 20 20 20 20 19 19 20 21 21 22 22 22 23 25 25 27
15 17 19 21 20 20 24 24 21 19 24 23 20 18 17 19 23 24 23 20 19 19 19 17 17 18 19 19 18 18 17 17 19 20 19 17 18 19 19 20 20 20 19 22 24 26 27 28 30 31 29 33 26 29
18 16 17 23 21 20 23 23 19 24 23 21 21 18 21 25 27 25 20 20 21 19 20 19 17 18 18 17 18 18 18 17 17 20 19 19 20 22 23 24 24 21 21 28 29 30 29 30 32 29 32 29 29 34
21 22 15 14 16 17 22 22 20 22 20 18 22 27 27 30 28 20 16 17 17 16 16 17 17 18 18 17 17 17 18 18 19 19 19 20 20 20 22 26 25 21 20 23 26 27 27 29 30 30 32 34 34 33
20 18 22 22 21 19 26 25 22 23 21 17 23 27 31 29 25 19 17 15 16 16 17 17 18 19 20 20 19 19 20 21 20 21 22 22 22 24 25 26 25 21 28 28 27 28 29 28 26 27 29 29 28 30
20 20 19 25 23 21 20 23 20 17 17 21 29 26 24 20 20 19 16 16 15 17 19 19 20 21 21 22 23 23 23 27 27 29 32 32 31 27 26 31 33 32 33 31 26 23 21 23 24 27 28 28 27 28
21 20 23 25 23 19 21 21 24 26 19 21 19 19 20 20 18 16 17 18 19 22 27 29 29 26 29 29 28 25 26 30 30 29 32 32 29 27 30 32 33 33 35 37 36 33 27 33 30 33 34 33 34 33
22 22 23 23 22 21 22 27 27 25 27 26 28 27 25 23 21 19 19 22 23 26 26 28 28 32 30 30 32 32 30 29 30 29 29 31 31 32 33 33 33 36 37 37 37 37 37 37 38 38 37 34 33 32
25 27 24 24 19 20 20 20 25 24 26 28 25 30 28 28 28 23 22 24 27 27 28 31 30 27 29 30 32 32 29 31 31 31 30 31 32 33 34 33 37 37 36 37 38 37 37 36 38 39 39 37 35 34
28 29 28 25 21 20 21 20 20 22 24 24 25 26 28 27 28 24 22 27 27 29 29 30 31 30 28 29 31 32 31 33 34 27 26 25 28 29 33 36 37 37 36 36 38 38 36 36 37 38 38 38 37 36

GFSWCAN_con_lsi_048.txt.gz
Lid_Strength_Index
1 1 1 1 1 1 1 1 1 1 0 0 0 0 1 1 1 2 3 0 3 5 5 4 4 5 5 6 9 6 8 8 9 11 11 12 13 10 11 9 12 12 14 15 12 16 17 6 7 9 6 5 5 5
1 1 1 1 1 1 1 1 1 1 1 1 1 1 1 1 1 2 5 2 1 3 6 3 2 2 3 3 5 5 6 6 6 9 9 8 13 12 10 14 8 12 10 11 10 11 6 5 5 4 4 4 5 4
2 1 1 1 1 1 1 1 1 1 1 1 1 1 1 1 1 2 4 3 3 4 4 5 6 2 1 1 1 6 5 4 5 4 7 8 12 9 14 11 9 8 7 10 10 7 6 6 5 5 5 4 5 4
2 1 1 1 1 1 1 1 1 1 1 1 1 2 1 1 2 3 4 2 3 5 7 7 2 3 1 1 1 2 3 3 3 4 7 9 11 7 10 8 10 7 8 9 9 7 7 6 5 4 5 5 5 4
2 2 2 2 2 2 2 2 2 2 2 2 2 1 1 2 2 2 2 2 2 5 8 7 4 3 3 2 2 2 3 4 5 7 9 9 7 8 8 8 10 7 8 10 10 6 7 5 4 4 5 6 5 5
3 3 2 2 2 2 2 2 2 2 2 2 2 2 3 3 3 4 7 3 1 2 7 10 4 5 4 3 3 3 4 4 5 6 7 6 6 7 12 11 6 6 5 5 6 6 6 7 7 4 5 5 5 5
3 3 3 3 3 3 3 3 3 3 2 2 3 3 3 3 3 5 6 3 2 2 7 10 8 5 4 4 4 4 3 4 5 6 7 7 7 7 10 12 7 6 5 5 6 7 7 8 8 8 7 7 7 7
3 3 3 3 4 3 4 3 3 3 3 3 3 3 3 3 3 3 1 2 0 2 4 10 10 8 3 6 8 5 7 6 6 7 6 8 7 8 11 7 6 6 6 6 6 7 7 8 9 9 9 9 9 9
2 2 3 3 3 3 4 4 3 3 3 3 3 3 3 3 4 5 2 2 -1 2 8 10 11 12 5 7 7 7 6 11 6 9 8 7 9 12 8 7 7 6 7 7 9 9 9 9 10 11 10 10 10 11
2 2 2 2 3 3 3 3 3 3 3 3 4 6 8 4 2 3 5 6 5 5 5 9 7 10 7 8 9 9 9 11 13 10 7 11 10 7 8 7 7 7 8 8 10 10 10 11 11 11 11 10 11 12
1 1 1 1 2 2 2 2 2 3 3 4 6 7 3 2 4 5 8 9 8 10 7 7 7 9 6 10 10 7 10 12 14 12 12 13 12 11 9 8 8 9 8 8 7 7 8 9 10 11 12 11 12 13
0 0 1 1 1 1 1 2 2 2 3 4 4 2 2 5 6 9 10 9 10 11 8 9 8 7 7 6 9 10 12 13 15 11 13 14 13 12 10 10 9 8 8 8 8 9 9 10 10 11 12 13 14 15
1 1 1 1 1 2 2 1 1 2 3 2 4 7 7 8 12 12 14 12 12 12 10 9 10 8 8 8 11 11 13 14 12 14 15 15 14 13 13 13 13 12 12 12 12 12 12 12 13 14 15 15 15 16
2 2 2 2 2 3 2 2 2 3 4 7 9 11 11 12 11 11 12 11 11 11 11 11 11 11 12 12 12 13 13 12 14 15 17 15 15 14 13 13 14 15 15 15 15 15 15 16 16 15 16 16 16 16
3 3 3 3 3 3 3 3 4 4 7 10 10 13 13 12 12 12 12 11 11 12 12 12 11 10 12 12 13 12 14 17 17 18 16 15 15 13 14 14 15 16 16 16 16 16 16 15 15 15 15 15 15 16
4 4 4 4 4 4 4 4 5 6 9 12 15 16 14 14 15 15 15 15 12 13 13 11 12 13 15 15 17 18 17 21 19 18 16 14 14 14 14 14 14 15 15 14 15 15 15 16 16 16 16 16 17 17
5 6 5 5 5 5 5 7 8 11 12 14 16 15 16 17 17 17 16 15 14 13 14 14 18 18 15 18 20 19 21 19 18 17 17 15 14 14 14 14 14 14 15 15 15 16 16 15 15 16 17 17 17 17
7 5 5 5 5 6 7 8 11 13 16 16 18 18 17 17 18 17 16 15 12 14 15 18 16 20 21 21 21 20 19 18 16 17 17 16 15 15 14 15 15 15 15 15 15 15 16 16 17 17 17 16 17 17
6 6 6 6 6 8 11 11 12 17 17 16 17 16 17 17 16 15 15 14 14 14 15 17 20 21 21 20 20 19 19 18 17 18 18 17 17 16 16 16 16 16 16 16 16 17 16 16 16 16 16 16 17 17
6 6 7 7 6 9 11 12 10 14 16 16 15 17 17 18 17 16 16 15 16 17 20 21 21 20 20 19 18 19 18 17 15 18 19 18 17 18 18 17 17 17 18 18 18 17 17 18 17 17 17 17 17 17
7 8 8 8 10 10 12 11 12 12 13 13 13 15 16 16 17 18 18 16 18 20 21 19 19 19 18 17 17 17 18 18 18 18 19 20 18 18 18 18 18 18 18 18 19 19 19 19 18 17 17 17 17 17
10 10 9 10 10 11 12 12 12 11 12 13 13 14 16 17 18 18 17 19 20 19 18 18 18 18 18 18 18 17 17 18 18 18 19 18 19 19 19 18 18 19 19 19 19 19 19 19 18 18 18 18 17 18
10 10 11 10 11 11 14 10 12 12 14 13 12 14 15 16 16 14 19 18 18 16 15 16 16 16 16 16 16 16 15 15 16 16 17 17 17 17 17 18 17 18 19 19 18 18 19 19 19 18 17 16 16 16
9 12 13 13 11 14 12 13 11 12 12 13 14 16 16 16 15 17 20 19 17 16 16 16 15 16 16 16 17 17 16 15 16 16 16 16 17 17 17 17 17 17 16 16 17 17 17 17 18 17 17 17 18 18
13 14 12 15 12 14 15 15 15 14 15 14 15 16 16 14 18 19 20 18 17 17 17 16 16 16 17 17 17 17 16 16 17 18 17 15 15 15 16 16 17 17 16 16 17 17 18 17 17 18 18 18 19 19
17 15 14 14 14 14 15 17 17 17 16 17 17 16 15 18 20 21 19 17 17 17 17 16 16 17 17 16 16 16 16 14 15 17 17 16 16 16 17 17 17 18 17 17 18 18 18 18 19 19 19 19 20 20
17 16 14 13 13 14 15 15 15 16 17 18 17 19 18 22 22 19 17 16 17 17 17 16 15 15 16 16 16 15 15 15 16 17 16 17 17 17 17 18 20 19 17 18 18 19 19 19 19 19 19 19 18 19
15 15 18 17 16 15 18 17 18 18 17 17 17 23 22 22 21 18 17 16 16 16 16 16 16 15 15 15 15 15 15 16 16 16 16 16 17 17 18 18 19 20 19 19 19 18 18 19 19 19 20 20 20 20
16 15 16 21 18 18 18 18 18 18 18 17 20 21 21 20 18 17 16 15 14 14 16 16 17 16 16 16 16 16 15 15 18 20 20 19 18 18 18 18 18 18 19 19 19 19 18 19 19 20 21 21 20 20
17 15 17 19 20 20 20 19 19 19 18 18 18 19 19 19 18 15 14 14 15 15 16 15 16 15 16 15 17 18 18 18 18 18 19 19 19 19 18 19 19 19 19 19 20 19 20 20 20 19 20 20 20 21
16 14 16 17 19 18 18 18 18 18 19 19 19 19 20 18 17 16 17 16 16 17 16 17 17 17 16 17 17 17 18 18 20 20 20 19 18 18 19 20 19 19 20 20 21 21 21 21 20 21 21 22 22 22
17 18 17 19 19 18 18 17 17 18 18 18 19 19 19 18 19 17 16 16 16 16 19 17 16 16 17 18 19 18 24 19 19 20 22 19 18 18 19 19 20 20 20 21 21 21 22 22 21 21 21 22 22 23
18 17 17 18 18 19 17 17 17 19 18 18 18 18 18 17 19 17 18 17 15 15 16 16 16 17 18 19 19 19 21 19 22 22 23 22 23 21 20 19 20 20 21 21 20 21 21 22 21 21 21 22 22 23

GFSWCAN_con_lsi_051.txt.gz
Lid_Strength_Index
2 1 0 0 0 1 0 1 1 1 1 1 1 1 1 1 1 1 2 0 3 5 5 4 4 6 6 6 8 6 7 7 8 11 11 10 11 9 9 9 12 13 13 15 13 15 17 6 6 9 6 5 4 4
1 1 1 1 1 1 1 1 1 1 1 1 1 1 1 1 1 1 3 0 -0 4 5 2 2 2 3 3 5 5 7 7 6 8 8 8 11 11 9 13 7 13 10 12 11 11 6 5 6 4 4 4 4 4
1 1 1 0 0 0 1 1 1 1 0 1 1 1 1 1 1 1 2 1 2 5 5 4 5 2 1 1 0 6 5 4 5 3 6 7 11 8 13 11 9 7 6 9 9 7 6 5 4 4 4 4 3 3
2 1 1 1 1 1 1 1 1 1 0 0 0 1 1 1 1 1 2 1 2 4 8 6 2 3 1 1 1 2 3 3 3 4 6 8 10 5 9 8 9 7 6 8 8 6 6 5 5 4 4 3 3 3
2 2 2 2 1 1 1 1 1 1 1 1 1 1 1 1 1 1 1 1 1 4 7 6 3 2 1 2 2 2 3 4 5 6 9 9 6 6 6 7 8 6 8 10 10 6 7 6 4 4 4 4 4 4
2 2 2 2 2 2 2 2 2 1 1 1 1 1 1 1 2 2 6 2 1 2 5 7 3 3 2 2 3 3 4 4 4 6 7 5 4 6 11 10 6 5 5 5 6 4 5 5 5 5 4 4 3 4
3 2 2 2 2 2 2 2 2 2 2 2 2 2 2 2 2 5 6 3 2 1 4 7 8 4 3 4 4 4 3 4 5 6 7 6 6 6 9 12 6 5 5 4 4 5 6 5 5 5 4 3 5 4
3 3 3 3 2 2 2 2 2 2 2 2 2 2 2 2 3 3 2 2 1 3 3 10 10 8 4 7 8 4 6 5 5 6 6 7 6 7 11 7 6 5 5 5 5 4 5 6 6 6 6 6 6 6
3 3 3 3 3 3 3 3 3 3 3 3 3 3 3 4 5 4 2 2 0 3 8 9 11 12 5 8 7 7 6 9 5 8 8 7 9 11 8 7 7 6 6 6 5 6 6 7 7 7 7 8 7 7
2 3 4 4 4 4 3 3 3 3 3 3 4 5 7 4 2 2 4 6 5 4 6 9 6 10 7 7 9 9 8 10 12 9 6 10 10 8 10 8 6 6 6 6 7 7 7 7 8 8 8 7 8 8
2 2 2 3 3 3 3 3 3 3 3 3 5 7 3 2 4 6 9 9 8 10 8 7 7 9 5 10 11 8 11 10 14 12 10 12 12 13 11 10 8 6 6 6 6 6 6 7 7 8 9 9 9 10
1 2 2 3 3 3 3 4 4 3 3 4 3 3 4 6 7 10 10 9 9 10 8 8 7 6 5 5 10 9 11 11 15 10 12 15 13 12 11 12 11 9 9 9 8 8 8 8 8 9 10 12 13 14
1 1 1 2 2 3 3 3 3 3 2 1 4 6 7 8 11 12 13 11 11 9 9 8 10 7 6 8 11 11 13 13 13 14 15 15 13 13 12 12 13 12 12 12 13 13 14 14 14 14 15 14 14 15
2 2 2 2 2 3 3 3 3 3 5 8 9 11 11 12 13 13 13 11 10 10 10 10 9 9 10 12 13 13 12 12 14 15 17 15 15 13 13 13 14 15 15 15 15 15 16 16 16 15 15 15 15 16
2 2 2 2 2 2 3 3 3 3 6 10 9 13 13 12 12 12 11 11 11 11 11 10 10 10 11 13 12 12 13 17 17 18 16 15 14 13 14 14 14 14 14 14 14 15 16 16 16 16 16 15 16 17
3 3 3 3 2 3 3 3 2 3 7 11 13 14 14 13 15 15 14 13 11 11 11 11 11 13 14 14 16 17 17 20 18 16 16 15 14 14 14 14 14 14 14 15 15 16 16 16 16 16 16 16 16 16
4 5 4 5 5 5 5 5 7 10 11 13 15 14 14 15 16 16 15 14 12 12 13 13 16 17 14 17 19 18 20 18 17 17 16 16 16 15 15 15 15 15 15 15 15 15 15 15 15 16 17 17 17 17
5 4 4 5 4 5 7 7 11 13 16 15 16 16 15 16 16 15 15 14 12 14 15 17 15 19 20 20 21 18 17 15 16 17 17 16 16 16 15 16 15 15 15 15 15 15 15 16 17 17 17 16 17 17
5 5 5 6 6 7 9 10 11 16 16 15 15 15 15 16 15 14 14 14 14 13 15 17 20 21 21 19 18 17 16 15 17 17 17 17 17 16 16 16 16 16 16 16 16 17 16 16 16 15 15 16 16 16
7 7 7 7 6 8 11 12 9 13 16 15 14 15 15 16 15 15 15 14 15 17 19 21 21 20 19 18 17 17 16 14 15 17 18 17 16 17 17 16 16 16 16 17 17 16 17 17 17 17 16 16 17 17
7 7 7 7 8 9 10 11 11 12 12 14 13 14 15 14 16 16 16 16 17 19 20 18 18 18 16 16 16 16 17 16 17 17 17 18 17 16 17 16 16 17 17 17 18 18 18 18 17 17 17 17 17 17
7 9 7 8 10 10 11 10 11 10 12 12 13 12 14 15 16 15 15 17 18 17 16 16 16 16 16 16 15 14 15 15 15 15 15 15 16 16 16 15 16 17 17 17 17 18 18 18 17 17 16 16 16 17
9 8 9 9 11 11 13 8 11 11 12 12 11 13 14 14 14 12 16 16 17 15 14 15 15 14 15 15 15 14 14 14 14 14 15 15 15 15 15 15 15 16 16 16 16 16 17 17 16 16 15 15 15 15
9 11 11 11 10 13 9 11 9 11 11 12 13 15 15 14 12 15 18 17 16 15 15 15 14 15 15 15 16 16 15 14 15 15 14 15 16 16 15 16 15 15 15 14 15 15 15 15 16 15 16 16 16 16
12 13 11 13 10 11 13 13 12 12 14 13 15 15 15 12 16 17 18 17 16 16 15 15 14 15 15 15 15 16 15 14 15 16 15 13 13 13 14 14 15 16 14 15 15 15 16 15 16 16 16 17 18 18
15 13 13 12 12 12 13 14 14 14 14 15 15 14 13 15 18 19 18 16 16 16 16 15 15 15 16 15 16 16 15 13 13 15 15 15 15 14 15 16 16 17 15 15 16 16 16 17 17 17 17 16 18 18
15 14 12 11 11 12 13 12 12 13 15 16 14 16 15 19 20 19 16 15 16 15 15 14 14 15 15 15 14 14 14 14 14 15 14 14 15 15 15 17 18 18 15 16 16 16 17 17 17 17 17 17 17 18
13 13 16 14 14 12 15 15 15 16 15 14 14 19 19 19 19 16 15 15 15 15 15 15 13 13 13 13 13 12 13 13 14 14 13 14 14 15 16 15 17 18 17 17 17 16 17 17 17 18 18 19 18 18
14 12 14 18 16 16 16 16 16 16 16 14 16 18 19 18 15 16 15 15 14 14 14 14 14 13 13 13 13 13 13 14 15 18 19 16 16 16 16 16 16 16 16 16 17 17 17 18 18 18 19 18 17 17
14 12 15 17 18 18 17 16 17 16 16 15 16 17 18 17 16 13 14 13 13 14 13 13 13 12 13 13 15 16 15 15 16 16 17 17 17 16 16 16 17 17 17 17 17 17 18 17 17 17 17 18 17 18
12 12 15 15 17 17 16 16 15 15 15 16 15 16 17 17 16 14 14 14 13 13 14 15 14 13 14 14 14 15 16 16 18 18 17 16 16 16 17 17 17 17 17 17 18 18 19 18 17 17 17 18 19 19
13 14 15 18 18 16 15 14 14 15 15 15 17 16 16 16 17 16 14 13 13 13 17 13 13 14 14 15 15 16 19 16 16 17 20 17 16 17 17 17 17 17 17 18 18 18 19 19 19 18 18 18 19 20
14 14 15 16 17 17 15 14 15 17 15 16 16 15 15 14 17 15 14 13 12 12 13 12 13 14 16 16 16 16 18 16 20 20 21 20 21 20 19 17 17 18 18 18 18 18 18 19 19 19 19 20 20 20

GFSWCAN_con_lsi_054.txt.gz
Lid_Strength_Index
3 2 1 1 1 0 0 0 0 0 0 1 0 0 0 0 0 1 3 0 3 6 5 4 5 6 6 6 9 6 8 8 9 12 12 12 12 10 10 9 12 13 15 16 14 16 18 6 7 10 8 6 5 5
2 1 1 1 0 1 0 1 1 1 1 1 1 0 0 0 0 1 3 1 0 4 5 2 3 2 3 3 6 5 7 7 7 11 9 9 13 11 10 14 8 13 11 13 12 12 7 6 6 5 5 5 5 5
1 1 1 0 0 0 1 1 1 1 1 1 0 0 0 0 0 1 2 1 2 5 5 5 5 2 1 2 1 7 5 5 7 5 7 8 11 8 14 12 10 8 7 10 10 8 7 7 5 5 4 5 4 4
2 2 1 0 1 1 1 1 1 1 1 1 1 1 1 1 1 0 2 1 2 4 9 7 2 3 1 1 2 2 4 3 4 5 7 9 11 6 11 9 10 8 7 9 9 7 6 6 5 5 5 4 4 3
2 2 1 1 1 1 1 1 1 1 1 1 1 1 1 1 1 0 1 1 0 4 8 8 3 2 1 2 3 3 3 5 7 8 9 10 7 8 7 8 10 6 7 9 11 7 7 6 5 4 4 4 4 4
2 2 2 2 1 1 1 1 1 1 1 1 1 1 1 1 1 2 6 1 0 1 6 9 4 4 3 2 3 4 4 5 5 8 8 7 4 7 11 11 7 5 5 5 6 5 5 5 4 4 5 4 4 4
2 2 2 2 1 2 1 1 1 1 1 1 1 1 1 1 1 4 5 2 1 1 5 8 8 4 3 3 4 4 3 5 6 7 8 7 7 6 10 12 6 5 5 5 4 5 6 5 6 5 5 5 4 3
3 2 2 2 2 2 2 2 2 1 1 1 1 1 1 1 1 3 1 1 1 3 5 9 9 7 3 6 7 4 6 5 6 7 7 8 7 7 11 8 7 6 6 5 5 4 5 4 5 5 5 5 5 5
3 3 2 3 3 2 2 2 2 2 2 2 2 2 2 3 4 3 2 2 -0 3 7 9 11 12 4 7 6 6 6 11 6 9 8 7 9 12 11 10 9 7 7 7 5 5 5 5 6 6 7 7 7 7
3 3 3 3 3 3 3 2 2 2 2 2 2 4 7 4 2 3 4 5 5 4 4 9 6 10 7 8 9 8 7 11 11 9 6 10 11 11 11 11 10 9 8 6 7 7 6 7 6 7 7 7 7 7
3 3 3 3 3 3 3 3 3 3 3 3 5 7 4 2 4 6 9 9 8 10 7 7 7 9 6 10 10 8 11 10 14 11 11 12 14 13 11 11 11 10 9 8 7 7 7 7 6 7 8 9 11 13
3 3 3 3 3 3 3 3 3 3 3 4 4 4 4 6 8 10 10 9 9 10 8 8 8 7 7 6 11 10 11 11 15 9 12 16 14 12 12 13 12 12 11 11 11 10 10 10 11 12 13 14 15 15
3 3 3 3 3 3 3 4 4 3 2 2 4 7 8 8 12 12 13 11 11 9 9 10 10 8 7 8 12 12 13 13 11 13 16 15 14 12 12 12 13 13 13 14 14 13 13 14 13 14 15 15 15 16
3 3 3 3 4 4 4 4 4 3 4 7 9 11 11 12 12 13 12 11 10 10 10 11 10 11 11 12 12 13 13 12 14 17 18 16 14 14 13 13 14 14 14 15 15 15 15 15 15 15 16 16 17 18
2 3 3 4 4 4 4 4 3 3 7 10 10 14 13 12 12 12 12 11 10 10 10 10 10 9 12 12 13 12 14 18 18 19 18 16 15 15 15 15 15 15 16 16 16 16 17 17 17 17 17 17 18 18
2 2 3 4 4 4 4 4 4 5 8 12 14 15 14 14 15 14 14 13 10 11 11 11 10 12 14 15 16 18 18 20 19 17 16 15 15 15 15 15 15 15 15 16 16 16 17 17 18 18 17 17 17 17
2 3 3 3 4 4 4 5 7 10 12 13 15 14 14 15 16 15 14 14 11 12 12 12 15 16 13 17 19 18 20 19 18 18 16 16 16 16 16 15 15 15 15 16 16 16 16 16 16 17 18 17 17 17
5 4 5 4 3 4 5 6 9 12 15 14 16 16 15 15 16 15 14 13 12 12 13 16 15 19 20 20 20 17 17 17 17 18 18 16 17 17 16 16 16 16 17 16 16 16 15 16 17 17 17 16 17 17
5 5 5 5 5 6 9 10 10 15 15 14 14 14 15 15 15 15 14 13 14 14 15 17 20 21 21 20 19 18 17 17 18 18 17 17 16 16 16 17 17 17 17 17 17 17 17 17 17 16 16 17 17 16
6 7 7 7 6 8 11 11 9 13 15 15 14 15 15 16 15 15 16 15 16 17 20 21 21 20 20 19 18 17 15 15 16 18 18 17 16 17 17 16 17 17 17 18 18 17 18 18 17 17 18 18 18 19
7 6 7 6 8 8 9 11 12 12 12 14 13 14 15 15 17 18 17 16 18 19 21 19 19 18 16 16 16 16 16 16 16 16 16 17 15 15 16 15 16 16 17 18 19 19 18 18 17 16 17 18 18 17
7 8 7 7 9 9 10 9 11 10 12 12 12 12 14 15 16 16 15 16 18 17 16 16 16 16 16 15 15 14 14 14 15 15 15 15 16 16 16 15 16 16 16 17 17 18 18 18 16 16 16 16 16 17
9 8 8 8 11 11 12 8 10 10 12 12 11 13 14 14 14 12 17 16 16 14 14 15 15 15 15 15 15 15 14 14 15 15 15 15 15 15 16 16 15 16 17 16 16 16 17 17 17 16 16 16 15 15
8 11 12 11 10 13 10 11 10 11 11 12 13 15 15 14 12 15 19 17 16 15 15 14 14 15 15 16 16 16 15 14 15 15 14 15 16 16 16 16 16 15 15 15 15 15 15 16 16 16 16 17 17 17
13 15 12 12 9 11 12 12 12 12 14 13 14 15 14 12 16 17 19 17 16 16 15 15 14 15 16 16 16 16 15 15 16 16 15 13 13 13 14 15 16 16 15 15 16 16 16 16 16 16 16 17 18 18
16 13 12 12 12 12 12 14 13 13 13 15 15 14 12 14 17 19 18 17 17 16 15 15 15 16 17 16 17 17 16 13 13 16 16 15 15 14 15 16 16 17 15 15 16 16 17 17 17 17 17 17 19 18
15 14 12 9 10 11 12 12 11 13 15 15 14 14 15 19 20 19 16 15 16 15 14 14 14 15 16 16 15 14 14 14 14 15 14 14 15 15 16 17 19 18 16 17 16 17 17 17 17 18 18 17 18 18
13 12 15 13 13 12 14 14 15 16 15 14 14 19 19 19 19 16 16 15 14 14 15 15 14 14 14 13 13 13 13 13 14 13 14 14 14 15 15 15 17 16 16 17 17 17 17 17 18 18 19 19 18 17
13 13 14 18 16 16 16 15 16 16 15 14 16 18 19 17 15 15 15 14 13 14 15 15 15 13 14 13 13 14 14 14 15 17 17 16 16 17 15 15 16 16 16 16 16 16 17 17 18 18 18 18 17 16
14 11 15 17 18 19 17 15 16 14 14 16 16 17 18 17 15 13 14 14 14 14 14 13 13 13 14 13 15 15 15 15 16 16 17 17 18 16 16 17 16 16 16 16 17 17 16 17 16 16 17 17 17 18
11 12 15 16 18 17 16 14 14 14 15 15 14 17 18 18 16 14 14 14 14 13 14 14 14 13 13 14 14 14 16 16 17 18 17 16 16 16 16 17 16 17 17 17 18 17 18 18 18 18 18 18 19 19
12 14 16 18 18 15 14 13 14 15 15 16 17 16 16 16 18 16 14 13 13 13 16 13 13 14 14 14 15 17 18 16 16 17 17 17 16 17 17 17 16 17 17 18 18 18 18 19 19 19 19 19 19 20
13 13 14 15 16 16 14 14 15 16 15 16 16 15 16 15 17 16 14 12 12 12 13 13 13 14 15 15 15 17 18 17 19 19 20 20 21 20 20 18 18 19 19 19 18 18 18 18 19 19 20 20 20 20

GFSWCAN_con_lsi_057.txt.gz
Lid_Strength_Index
3 3 3 3 1 1 1 0 0 1 1 0 0 0 0 0 0 1 3 2 4 7 6 5 5 7 7 7 10 8 8 8 9 12 13 13 15 12 12 11 13 14 15 16 15 18 19 8 8 10 9 7 6 6
2 2 1 1 1 0 0 0 0 0 0 0 0 0 0 0 0 0 4 2 1 5 6 3 3 3 4 5 7 6 8 8 8 11 11 11 14 12 12 15 9 15 12 14 13 14 9 7 8 6 6 7 6 6
2 1 1 1 0 0 0 1 0 0 0 0 0 0 0 0 0 0 2 2 3 5 6 6 6 3 1 2 2 8 7 6 7 6 9 10 13 10 14 12 10 9 8 11 11 9 8 7 6 6 5 6 5 5
2 2 1 1 1 0 1 1 1 1 1 1 0 0 0 0 0 0 2 2 2 5 9 7 2 4 1 2 2 3 4 4 5 6 9 10 12 8 11 10 11 9 8 10 10 8 7 6 7 6 6 5 6 5
2 2 1 1 1 1 1 2 1 1 1 0 0 0 0 0 0 1 1 1 1 5 9 8 4 3 2 2 3 3 4 6 7 9 11 11 8 9 9 9 11 8 9 12 12 8 8 7 6 5 6 6 6 5
2 2 1 1 1 1 1 1 1 1 1 0 0 0 0 0 0 2 6 2 1 2 7 10 5 5 3 3 4 4 5 6 6 8 9 8 6 8 13 13 8 7 7 7 7 6 6 6 5 6 6 6 5 6
2 2 2 1 1 1 1 1 1 1 1 1 1 1 1 1 1 4 6 4 1 1 7 10 10 5 4 4 5 6 5 6 7 8 9 9 8 8 13 13 9 7 6 6 6 6 7 7 7 6 6 6 6 6
2 2 2 2 1 1 1 1 2 2 1 1 1 1 1 1 1 3 2 1 1 4 5 12 12 9 4 8 9 5 7 7 7 8 8 9 8 9 13 11 9 8 7 7 7 6 7 7 6 7 7 7 7 8
2 2 2 2 2 1 1 2 2 2 2 1 1 1 2 3 6 4 1 1 1 4 9 11 12 12 6 8 8 7 7 12 7 10 9 9 11 14 13 12 11 11 10 8 7 6 6 7 6 7 7 8 9 10
2 3 2 2 2 2 2 2 2 1 1 1 2 4 8 5 1 2 3 5 5 5 6 11 9 11 7 9 9 10 12 12 13 10 8 11 14 11 12 11 11 11 10 9 9 10 10 9 8 10 11 11 12 14
2 2 2 2 2 2 2 2 2 2 2 3 6 7 5 2 5 7 10 10 8 11 9 9 8 10 6 10 10 10 11 11 14 12 12 12 16 14 12 12 12 11 11 11 10 10 10 11 11 12 13 14 14 15
3 3 3 3 3 3 3 3 2 3 4 4 4 3 4 6 8 10 11 10 12 12 9 10 10 7 8 6 9 9 11 11 14 10 13 17 15 13 13 13 13 13 12 13 13 13 13 13 13 14 15 16 16 16
3 3 3 3 3 3 3 3 3 2 3 4 5 9 8 10 13 16 15 12 12 11 10 10 10 10 9 9 11 11 12 13 10 14 18 17 14 13 13 13 13 13 13 14 15 14 15 15 15 15 16 16 16 17
4 3 3 4 4 4 3 3 3 4 5 10 10 16 14 16 15 15 14 13 11 11 12 11 11 10 11 12 12 13 12 12 15 19 20 17 15 15 14 14 14 16 16 16 16 16 17 17 18 18 17 17 18 18
4 3 4 4 4 4 4 4 3 6 10 13 13 16 16 13 14 13 12 12 11 11 11 11 11 10 12 13 13 13 16 20 19 21 19 16 15 15 15 15 15 16 17 17 17 18 18 18 18 18 18 18 18 19
3 4 4 4 4 3 3 4 6 7 10 14 16 18 16 17 17 16 15 14 11 12 12 11 12 16 16 17 19 20 20 22 21 19 17 16 17 16 16 16 16 16 17 17 17 18 18 19 19 19 18 18 18 18
3 5 4 4 4 4 4 6 9 12 14 15 17 16 16 17 17 16 14 14 12 13 14 14 18 19 15 20 21 19 22 21 19 18 18 18 18 18 17 17 17 16 17 17 17 17 17 17 17 18 19 18 18 18
5 4 4 4 4 4 7 8 12 14 17 16 18 17 16 17 17 16 14 14 13 14 15 17 16 21 23 23 21 19 19 19 18 19 18 18 18 18 17 18 17 17 17 18 18 18 17 17 18 18 17 17 18 18
5 4 4 4 5 7 10 10 11 16 16 16 16 15 16 17 16 16 15 15 14 14 16 18 22 22 22 20 20 19 18 19 20 19 19 18 17 17 17 18 18 19 18 18 18 18 19 19 19 19 18 19 20 18
5 6 5 5 5 9 12 12 10 14 16 16 15 17 18 18 17 17 17 16 16 17 20 21 22 21 20 19 18 17 17 17 18 19 19 18 17 18 18 18 18 18 18 18 18 18 18 18 18 18 19 19 20 20
6 7 6 6 9 9 11 12 13 13 14 14 14 15 17 17 19 20 19 17 20 21 21 20 20 18 17 16 16 16 16 16 17 17 18 18 16 17 17 17 17 17 18 19 20 20 20 19 18 18 20 22 21 19
8 7 9 9 11 11 12 11 12 12 13 14 14 13 16 19 20 18 17 18 19 18 17 17 17 16 16 16 16 15 15 15 16 17 17 17 18 18 18 18 18 19 19 19 20 21 20 19 18 19 20 19 21 21
8 8 11 11 14 14 15 10 13 11 15 15 14 16 17 18 16 15 20 18 17 16 16 16 16 15 16 16 15 15 15 16 17 17 18 19 19 19 20 19 19 20 20 19 18 19 20 20 20 21 22 20 20 21
9 13 15 15 14 18 14 16 12 13 14 16 17 19 18 17 16 20 21 19 17 15 15 15 16 17 17 17 18 17 16 16 18 18 16 18 19 19 19 19 19 18 17 16 18 20 20 23 21 20 26 26 25 26
17 18 16 17 13 17 19 19 17 16 20 17 20 19 18 15 21 21 21 19 17 18 18 16 16 17 19 19 18 18 17 17 19 20 18 17 16 17 18 18 18 18 17 21 19 24 26 25 24 23 23 28 23 25
21 18 16 16 17 17 16 20 20 19 19 20 18 16 17 21 24 23 19 19 22 19 18 17 20 19 19 18 20 20 18 16 17 19 18 17 18 20 21 20 22 20 19 21 25 23 24 24 26 25 24 22 26 28
20 18 14 11 12 13 17 16 14 18 20 21 20 19 22 27 27 20 17 17 20 18 16 16 16 18 18 18 17 17 17 17 18 17 16 17 17 18 21 25 26 23 19 23 25 24 26 26 27 26 28 28 28 28
15 15 19 17 17 15 20 20 21 22 21 17 19 25 27 25 23 18 18 18 18 17 17 17 17 17 17 16 15 16 17 18 19 17 17 18 19 21 21 21 21 18 20 24 26 27 27 27 28 28 29 28 27 26
17 15 17 21 20 19 18 20 21 18 17 16 24 24 23 18 19 18 18 18 17 17 19 21 21 21 19 18 19 19 20 21 23 25 26 22 23 23 23 24 23 24 25 24 20 20 23 25 26 26 27 27 26 24
17 14 19 22 23 22 19 18 17 19 18 20 19 19 19 19 17 17 17 15 16 18 20 20 18 18 18 19 22 23 23 25 26 25 25 25 25 25 24 26 25 26 26 25 26 25 19 26 24 23 24 25 26 29
13 16 19 20 22 21 21 20 17 17 19 19 20 23 22 22 21 18 19 21 21 22 22 22 21 20 21 22 21 22 25 25 26 26 26 26 25 23 27 26 25 26 26 26 28 27 27 28 29 28 27 27 27 26
16 19 22 24 21 18 17 16 19 19 20 24 25 24 23 22 24 23 21 20 19 19 20 17 19 23 24 24 26 26 24 24 24 25 26 26 25 28 28 26 22 23 27 27 27 27 26 27 28 28 29 29 29 29
17 18 19 20 20 21 18 18 20 20 21 23 24 22 23 22 24 22 21 19 16 17 18 20 22 24 24 22 24 26 24 27 26 21 24 25 27 26 30 29 29 30 29 30 29 28 26 26 26 27 28 29 29 30

GFSWCAN_con_lsi_063.txt.gz
Lid_Strength_Index
1 1 1 2 2 3 3 3 3 3 3 3 3 4 3 3 3 4 5 4 7 10 9 6 6 8 9 9 12 10 10 10 12 14 14 15 17 13 13 12 13 15 16 16 15 17 19 8 9 13 10 8 8 7
1 1 1 2 1 1 1 1 2 2 3 3 3 3 3 3 3 3 7 4 4 8 9 5 6 6 6 6 8 8 9 8 9 12 13 13 16 16 13 16 10 14 12 14 13 13 8 7 8 7 7 7 7 7
1 1 1 1 1 1 1 1 1 1 1 2 2 2 2 2 2 3 5 4 5 8 8 8 9 5 3 3 4 9 8 6 7 7 10 11 14 12 16 14 12 10 8 12 11 9 8 7 6 6 6 6 6 6
1 1 1 1 1 0 0 0 0 0 0 1 1 1 1 1 1 1 4 3 5 6 10 10 5 7 3 3 2 3 5 4 5 6 9 11 12 9 13 11 11 10 9 10 10 8 7 7 6 5 6 5 5 5
1 1 1 1 0 1 1 1 1 1 1 0 0 0 0 -0 -0 0 2 2 2 6 10 10 5 5 4 3 3 3 4 5 7 9 10 11 9 9 9 10 12 9 10 12 13 9 9 8 6 5 6 6 5 6
1 1 1 1 1 1 1 1 0 0 0 1 0 0 0 0 -0 2 5 2 1 2 7 12 6 5 4 3 4 5 5 5 6 8 9 8 6 9 12 12 9 8 7 7 8 7 8 6 6 6 7 6 6 7
1 1 1 2 1 1 1 0 1 0 0 0 0 0 0 0 1 4 6 3 0 1 6 10 11 5 4 4 5 6 4 6 6 8 9 9 8 8 13 14 10 9 9 8 7 7 8 7 8 7 7 8 9 11
1 1 1 2 1 1 0 0 0 0 0 0 0 0 0 0 1 3 1 1 0 3 5 10 10 9 4 8 8 5 7 7 7 8 7 9 8 9 14 12 11 10 9 8 9 7 8 7 9 10 10 11 12 14
2 2 2 2 2 1 1 0 0 0 0 0 0 0 1 2 4 3 0 0 1 4 9 11 13 13 5 7 7 7 6 10 7 10 9 8 12 16 14 13 13 12 12 11 10 8 8 10 11 12 13 13 14 16
2 2 2 2 2 1 1 1 1 0 0 0 2 5 8 4 1 1 3 6 7 5 8 12 10 11 7 9 11 10 10 10 12 10 8 13 15 13 13 13 13 13 11 11 11 11 11 10 12 14 14 15 15 16
2 2 2 2 2 1 1 1 1 1 2 4 6 7 3 2 4 6 9 10 9 12 11 10 9 10 7 10 10 9 10 11 13 12 13 15 17 14 14 14 13 13 12 13 12 13 13 13 14 15 15 16 16 16
2 2 2 2 2 2 2 2 2 4 5 5 4 4 5 7 10 12 14 12 11 11 9 9 8 8 9 7 10 9 11 11 15 12 16 19 16 14 15 15 15 15 15 15 15 15 15 15 16 16 17 17 17 17
2 2 2 3 3 3 3 2 3 2 2 5 7 10 11 14 18 18 15 13 13 12 12 10 10 9 8 8 10 10 12 13 12 18 20 19 16 15 15 15 15 15 16 16 16 16 16 17 16 17 18 18 18 18
3 3 3 3 3 4 4 4 4 5 8 11 14 18 18 20 18 17 17 16 14 13 13 11 10 10 11 11 12 14 15 14 20 22 23 18 17 16 16 15 16 17 17 17 17 17 18 18 18 18 18 18 19 19
3 3 3 3 4 4 5 4 6 8 11 14 15 21 19 16 16 16 15 14 13 12 12 11 11 12 14 15 15 16 20 23 21 24 21 17 16 16 17 16 17 17 18 18 18 18 18 18 19 19 18 18 18 19
4 4 5 3 3 4 5 7 8 9 12 14 16 19 18 20 19 19 18 16 13 14 13 13 15 16 17 17 19 20 22 24 23 21 17 17 18 18 18 18 18 17 17 17 17 17 17 18 19 19 18 19 19 19
4 6 4 4 4 6 6 10 11 13 14 15 17 16 18 21 21 19 18 16 14 15 17 17 21 21 16 20 23 21 24 22 20 20 19 18 19 19 18 18 18 18 19 18 18 18 17 17 18 19 20 19 18 19
8 6 4 4 5 8 10 11 13 14 18 17 18 18 17 18 20 20 17 16 16 16 17 20 18 23 24 24 26 22 22 20 19 20 19 19 19 19 19 20 19 19 19 19 19 19 18 18 19 19 19 19 20 20
5 6 4 4 7 10 12 12 12 19 18 17 17 17 17 18 17 17 17 16 17 16 18 20 24 25 25 23 23 21 21 20 21 21 20 19 19 19 19 19 20 20 20 20 20 20 20 20 19 19 19 19 21 21
4 5 5 5 7 11 13 13 11 16 18 17 16 17 18 18 17 19 18 17 17 18 21 23 24 24 22 19 18 18 18 17 18 20 21 20 19 19 20 19 19 19 20 19 20 20 20 21 20 21 21 21 22 23
7 7 6 8 10 10 12 13 15 15 16 17 16 17 18 17 19 19 19 18 20 21 21 19 19 18 17 17 17 17 17 17 18 18 19 20 19 19 19 20 20 21 22 22 23 22 22 22 21 22 24 26 25 24
10 7 11 11 12 12 13 12 13 14 15 15 16 16 21 24 23 21 18 21 20 20 18 18 17 17 18 18 18 17 17 18 18 19 20 19 21 21 22 22 21 23 23 24 24 26 24 22 22 24 26 30 25 26
9 10 14 14 15 15 15 11 15 12 17 17 17 19 22 24 19 18 22 19 19 18 18 18 17 17 18 18 17 17 17 18 20 21 21 22 22 22 22 22 22 25 23 22 22 23 25 25 24 25 25 26 27 30
11 15 17 18 16 19 17 18 13 16 18 20 21 22 21 22 19 22 22 21 19 17 18 18 18 19 19 19 20 19 19 19 20 21 21 21 22 22 21 21 20 21 20 20 22 25 25 30 28 27 29 31 34 32
18 19 18 21 18 20 24 25 23 20 24 23 23 22 23 20 25 26 25 21 20 21 22 19 19 19 21 23 21 20 19 19 21 21 20 20 21 21 21 20 20 20 20 25 30 31 30 33 32 31 31 33 28 32
22 21 19 21 20 19 21 23 24 24 24 24 23 21 23 26 29 27 22 23 24 22 27 25 22 21 21 20 21 21 21 19 19 20 19 18 19 23 26 27 26 24 22 27 30 31 31 32 32 30 32 31 32 34
23 22 16 15 15 16 20 20 18 21 24 24 23 27 28 33 33 23 19 20 20 21 19 19 19 20 21 21 20 20 20 19 19 19 18 18 19 20 24 27 27 23 23 27 30 31 31 32 33 34 34 34 34 33
19 19 23 24 23 20 26 27 27 27 25 19 24 30 32 30 25 22 21 20 21 18 19 19 18 19 19 20 21 21 22 22 21 20 19 19 20 24 26 27 25 21 28 31 32 34 33 33 33 33 34 33 32 33
23 21 22 28 26 24 22 25 24 20 19 22 30 29 25 20 23 22 20 21 21 19 21 23 25 26 25 24 26 25 26 25 26 28 30 30 31 25 26 30 30 31 32 29 24 23 26 31 30 31 32 31 29 31
23 21 25 29 28 25 25 24 27 28 22 23 21 20 21 22 20 22 21 23 24 27 28 28 29 28 30 29 31 29 32 32 28 25 30 32 28 29 33 33 32 32 33 34 33 31 25 31 28 32 33 34 35 35
20 23 25 25 24 25 25 30 28 25 29 28 30 29 26 25 22 20 20 24 27 27 25 28 29 31 29 32 33 32 30 31 34 32 31 32 33 33 33 33 34 34 34 35 35 35 34 34 34 34 34 33 35 37
25 28 25 25 24 24 25 30 31 31 33 31 31 34 30 30 31 25 24 25 25 28 30 31 28 28 32 33 34 34 29 30 32 31 29 32 33 35 35 34 36 36 36 36 37 36 35 34 35 35 35 35 37 37
25 23 25 25 26 27 26 26 27 28 30 31 28 30 31 31 30 26 24 27 26 25 26 28 30 29 30 30 29 31 31 32 32 25 28 28 31 31 36 38 38 37 35 36 37 36 35 34 36 37 37 38 38 39

GFSWCAN_con_lsi_066.txt.gz
Lid_Strength_Index
1 1 1 1 1 1 2 2 3 4 3 3 3 3 3 2 2 3 4 2 5 9 7 5 6 8 8 9 12 10 10 10 11 13 14 14 16 14 14 12 14 14 15 16 15 17 19 8 9 12 10 8 8 8
1 1 1 1 1 1 1 1 1 2 3 3 3 3 3 3 3 2 7 3 3 7 8 5 4 4 6 6 8 8 9 9 10 13 14 14 16 17 14 16 11 15 12 14 13 14 8 8 8 6 6 7 7 7
1 1 1 1 1 1 1 1 1 1 1 2 3 3 3 3 3 4 6 5 5 9 8 7 8 5 4 5 4 9 9 7 9 9 12 13 15 14 17 15 13 11 9 11 12 9 8 8 7 6 6 6 5 5
1 1 1 1 1 1 1 1 1 1 1 1 1 2 2 3 3 3 6 5 6 8 11 10 5 6 3 4 4 4 6 4 5 6 11 13 14 11 15 13 13 11 10 11 11 9 8 7 7 6 6 5 5 5
1 1 1 1 1 1 1 1 1 0 0 0 1 1 1 2 2 3 4 4 5 8 11 11 6 5 3 4 4 4 4 6 6 8 11 12 11 11 11 10 11 9 11 12 12 9 9 8 7 6 7 6 6 6
1 1 1 1 1 1 1 1 1 1 0 0 0 0 0 1 1 3 7 4 3 5 9 14 8 7 6 5 4 5 4 5 6 8 10 8 7 9 14 14 9 7 8 8 8 7 8 7 7 8 7 8 9 11
1 1 2 1 0 0 0 0 0 0 0 0 0 0 0 0 1 6 7 4 2 3 8 12 12 5 5 4 5 6 4 5 6 8 9 8 9 8 11 14 11 9 9 8 7 8 8 8 9 10 10 10 11 13
2 2 1 1 1 0 0 0 0 0 0 0 0 0 0 -0 1 3 2 1 1 4 5 10 10 8 4 8 8 5 7 6 7 8 7 9 8 8 12 12 11 11 11 9 9 8 7 7 9 11 11 12 14 15
2 1 1 1 1 1 0 0 0 0 0 0 0 0 1 2 4 3 0 0 1 4 9 10 12 12 5 7 7 7 6 10 7 10 9 8 12 15 14 13 13 13 13 12 11 10 8 10 11 12 13 14 15 16
2 2 2 1 1 0 1 1 1 0 0 1 2 4 7 4 -0 0 4 6 6 6 6 10 9 11 7 8 9 9 9 10 12 10 9 13 15 13 13 13 13 13 12 12 12 12 13 12 13 15 15 15 16 16
2 2 2 2 1 1 1 1 0 0 1 3 5 7 3 0 4 7 9 9 9 10 9 9 9 10 6 10 11 9 10 10 14 11 12 15 17 14 14 14 14 14 13 13 13 14 14 14 15 16 16 16 17 17
2 2 2 2 2 2 1 1 1 3 4 3 4 3 4 8 9 10 11 10 11 11 10 9 8 9 8 6 9 9 11 11 16 12 16 20 16 14 14 15 15 14 14 15 15 15 15 16 16 17 17 18 18 18
3 3 3 3 3 3 2 2 2 1 3 6 8 11 12 15 19 18 14 14 14 12 12 10 9 9 8 8 10 10 12 15 13 18 20 19 16 15 15 15 16 15 16 16 16 16 17 17 17 18 18 18 18 19
3 3 2 3 4 3 4 4 4 5 7 12 14 20 21 23 19 18 17 16 14 12 12 11 10 11 11 12 13 15 16 15 20 22 23 19 17 16 16 16 16 17 17 17 18 18 18 18 19 18 19 19 19 20
3 3 3 3 4 4 5 5 6 8 11 14 15 21 20 17 17 17 15 15 13 12 12 10 12 13 15 15 16 16 20 22 22 25 21 18 17 16 17 17 17 17 17 17 18 18 18 19 19 19 19 19 19 20
4 4 5 3 4 5 6 7 8 9 11 14 16 19 18 19 19 18 18 18 14 14 12 13 14 16 17 17 19 21 22 24 23 20 18 17 17 17 17 17 17 17 17 17 18 18 18 19 20 20 19 20 20 20
4 7 4 3 5 5 6 9 10 13 14 16 19 18 22 22 21 19 18 16 14 14 17 16 19 20 16 21 23 22 24 22 21 20 19 18 18 18 18 18 18 18 18 18 18 18 18 18 18 19 20 19 19 19
7 6 4 4 6 7 9 10 12 15 18 17 20 20 20 21 21 20 17 16 16 16 17 19 18 22 23 24 25 23 21 21 20 20 20 19 19 19 19 20 19 19 19 19 19 19 19 18 19 19 19 20 20 21
6 7 5 5 7 10 12 12 13 19 18 18 18 18 19 19 18 17 17 16 16 16 18 20 23 24 25 23 23 22 21 21 22 21 21 20 20 20 20 20 20 20 20 20 20 20 21 20 20 20 20 21 22 21
4 5 6 6 7 11 13 13 12 16 18 17 16 18 18 18 18 20 18 17 17 19 21 23 24 23 22 20 19 19 19 18 19 21 22 21 20 20 21 20 21 20 21 21 21 21 21 21 21 21 22 22 24 24
7 8 7 8 10 11 13 13 14 15 15 17 16 17 18 17 20 20 20 18 21 21 22 20 19 18 17 17 17 17 17 17 18 18 20 21 19 19 20 20 20 21 22 24 23 23 23 24 23 23 25 29 29 27
10 7 11 11 12 12 14 13 14 14 14 15 16 16 21 24 23 21 18 21 21 21 18 18 18 18 18 18 18 17 18 18 19 20 20 19 21 22 23 24 23 25 25 27 26 28 25 23 24 25 28 32 27 27
9 11 14 13 15 16 16 13 16 14 20 19 18 20 23 24 19 17 22 19 19 17 17 18 18 17 18 18 18 18 18 19 21 22 22 23 23 24 24 23 25 26 25 23 23 24 25 24 25 28 29 29 30 33
11 15 18 19 16 20 18 19 14 17 19 20 21 22 23 22 19 22 23 21 19 17 18 18 18 20 19 20 21 20 20 20 21 22 22 22 23 22 21 21 21 22 21 21 23 26 27 32 30 28 33 35 36 35
17 19 18 22 19 21 25 26 23 21 25 23 23 24 24 20 25 26 26 23 23 25 24 20 19 20 22 23 21 21 19 20 22 23 22 21 22 21 21 21 21 20 21 27 31 32 33 35 35 33 31 35 28 33
23 20 19 22 21 21 22 24 25 25 25 24 24 23 24 26 29 27 23 26 26 24 28 26 24 22 21 21 22 22 22 20 20 21 20 19 21 25 26 27 26 23 23 29 31 33 32 33 33 31 33 31 32 35
24 24 17 16 16 18 22 22 20 24 27 25 25 29 30 34 33 24 20 22 22 22 20 20 20 20 21 21 21 21 21 21 21 21 21 21 21 21 24 28 27 24 24 28 31 32 32 33 34 34 34 34 36 36
21 20 24 26 24 22 29 29 30 28 25 20 25 31 33 32 26 23 21 20 20 19 20 21 20 20 21 22 23 23 24 24 22 22 22 22 22 26 27 28 25 22 29 32 33 35 34 34 34 35 36 34 33 35
24 22 23 29 26 25 25 28 26 22 21 24 31 29 26 22 24 22 20 21 22 20 22 24 27 28 26 26 28 27 27 27 27 30 31 32 33 28 29 31 32 33 34 31 26 26 30 33 33 34 34 32 32 35
26 23 27 31 30 28 29 26 28 28 23 24 21 21 22 23 21 21 24 24 25 28 29 29 33 32 32 31 31 29 31 33 29 25 28 31 29 31 34 34 33 34 36 35 34 32 25 31 30 34 35 36 38 38
22 26 28 27 27 27 28 32 32 27 30 29 31 29 27 27 23 22 24 28 29 29 28 31 32 35 31 34 33 32 29 32 35 33 33 35 36 35 34 35 36 35 35 36 36 36 36 36 37 36 36 35 36 38
28 30 27 27 27 26 27 33 34 32 36 31 33 36 32 31 31 27 25 26 26 28 29 32 31 28 30 32 35 35 31 31 33 33 31 33 34 35 36 36 39 38 38 38 38 38 36 36 37 37 37 37 38 39
26 26 26 27 28 29 27 27 28 30 32 33 32 34 34 32 30 27 26 28 27 27 28 29 32 34 32 32 31 33 32 33 33 25 28 28 32 32 38 39 39 38 36 37 38 38 37 36 37 37 38 39 38 39

GFSWCAN_con_lsi_069.txt.gz
Lid_Strength_Index
2 2 1 1 1 1 1 1 1 1 2 3 3 3 2 2 2 3 3 1 4 7 6 4 5 7 7 8 11 9 9 9 9 12 13 13 13 12 12 11 13 13 15 15 14 16 17 7 8 11 8 6 6 6
2 2 1 1 1 1 1 1 1 1 1 2 3 3 3 2 2 2 5 1 1 6 6 3 3 3 4 5 7 7 8 9 8 10 11 11 13 13 12 15 10 13 11 13 12 12 8 7 7 5 5 6 6 6
2 1 1 1 1 1 1 1 1 1 1 1 2 3 3 3 2 2 5 3 4 9 7 6 7 4 3 3 3 8 7 6 7 6 9 10 13 11 14 13 11 10 8 11 10 8 7 6 5 5 5 6 5 5
2 1 1 1 0 1 1 0 1 1 1 1 1 2 3 3 3 4 6 4 5 7 10 8 4 5 3 3 3 3 5 4 4 5 8 11 12 10 12 11 11 9 9 10 10 8 7 6 6 6 5 5 6 6
1 1 1 1 1 1 1 1 1 0 0 0 0 1 2 2 3 4 4 4 3 6 11 10 6 5 4 4 4 3 4 5 6 9 10 11 9 9 9 9 11 8 9 11 11 8 9 8 6 6 7 8 9 10
1 1 1 1 1 1 1 0 0 1 1 0 0 1 1 2 2 5 9 4 3 3 8 11 7 7 5 4 5 5 5 5 6 8 9 8 7 8 11 12 9 8 8 8 9 7 7 6 5 8 8 8 9 11
1 1 0 0 0 0 0 0 0 0 0 0 0 0 1 1 3 6 8 5 3 3 8 11 10 6 5 5 6 6 5 6 6 7 9 8 8 7 10 12 11 10 10 9 8 8 7 7 8 8 9 9 10 12
1 1 0 0 0 0 0 0 0 0 0 0 0 0 1 1 2 4 3 2 3 5 6 10 10 8 5 8 8 5 7 6 7 8 7 9 8 8 12 13 12 12 11 9 10 9 9 7 9 10 10 10 12 13
1 1 1 1 0 0 0 0 0 0 0 0 0 -0 1 3 6 4 1 1 1 5 10 10 11 12 6 7 6 7 6 10 6 9 9 8 11 12 15 15 14 13 13 12 11 10 10 10 12 13 13 13 14 15
2 2 1 1 1 1 1 0 0 0 0 0 1 4 7 4 1 1 4 6 6 6 6 10 8 10 7 8 9 9 8 10 12 10 9 12 15 14 14 14 13 13 13 13 13 13 13 13 14 15 15 15 15 16
2 2 2 1 1 0 0 1 1 1 1 2 5 6 2 1 4 6 8 9 8 10 8 8 8 9 6 10 10 8 10 10 13 11 11 14 16 15 13 14 13 13 13 13 13 14 14 14 15 16 16 16 17 17
2 2 2 2 1 1 1 1 1 2 3 3 4 3 5 8 8 9 10 9 10 11 10 9 8 7 7 7 9 9 11 10 14 11 15 18 16 15 15 15 15 14 14 14 14 15 15 16 16 17 17 18 18 19
2 2 3 3 2 1 1 1 1 1 3 5 8 11 11 14 19 18 14 14 14 12 12 10 9 9 8 7 9 10 12 15 12 17 20 18 16 15 15 15 15 15 15 15 16 15 16 17 17 18 19 18 19 19
3 3 3 3 3 4 4 3 3 5 7 11 13 19 19 21 18 17 17 16 13 12 12 10 10 11 11 12 13 15 15 15 19 21 22 18 17 16 15 15 16 17 17 17 17 17 18 18 18 18 18 19 20 20
3 3 3 3 4 4 4 5 6 8 11 14 15 21 19 16 16 16 15 14 13 12 11 10 12 12 14 16 15 16 18 21 21 22 19 17 16 16 16 16 16 17 17 17 17 18 19 19 19 19 19 19 19 20
3 4 4 4 4 5 6 7 8 9 11 14 17 19 18 19 18 17 17 16 13 14 11 11 14 16 17 18 20 21 21 23 22 19 18 17 17 17 17 17 17 16 17 17 17 18 18 19 19 19 19 20 20 20
4 7 4 4 5 6 6 9 11 14 15 17 19 18 20 19 19 18 17 16 14 14 16 15 19 20 16 20 23 21 23 21 20 20 19 18 19 18 18 17 17 17 18 18 17 18 18 18 18 19 20 20 19 19
7 6 4 3 5 7 9 10 13 15 19 18 20 20 19 19 18 18 17 15 15 15 16 18 17 21 22 23 23 21 21 20 20 21 20 20 19 19 18 19 18 18 19 19 19 19 19 19 19 19 19 19 20 20
6 6 4 5 6 9 12 13 13 19 19 17 17 18 18 19 18 16 16 15 15 15 16 18 21 23 23 21 22 21 20 20 21 21 21 20 19 19 19 19 19 20 20 19 19 20 20 20 20 20 20 20 21 21
6 5 5 5 6 10 13 14 12 16 19 17 16 17 17 18 17 18 18 17 17 18 21 22 23 22 21 20 19 18 18 18 18 20 21 20 19 20 20 19 19 19 19 20 20 20 20 21 21 21 21 21 21 22
7 7 7 8 9 11 13 14 15 15 15 17 16 17 18 18 19 20 20 18 20 21 22 21 21 19 17 17 16 16 17 16 17 18 19 20 19 19 19 19 19 20 21 21 21 22 22 22 21 22 22 23 23 22
10 8 12 11 12 12 14 13 15 14 15 16 17 17 20 21 21 20 19 22 21 20 18 18 18 18 18 18 18 17 17 18 18 19 19 19 21 21 22 22 22 23 23 23 22 22 22 21 21 21 22 22 22 21
9 10 14 13 16 17 16 12 16 15 19 19 18 21 22 23 20 18 21 19 19 17 17 17 17 17 18 17 17 18 18 19 20 21 21 22 22 22 21 21 20 21 21 20 20 20 20 22 23 22 22 21 21 22
11 16 19 20 17 21 20 21 16 18 20 20 21 22 22 21 19 21 22 21 18 17 18 18 18 19 19 19 20 20 20 20 20 21 20 21 22 21 20 20 19 19 19 19 20 21 22 23 23 22 23 23 24 23
17 19 19 23 20 21 24 25 23 21 24 22 22 23 23 19 24 24 24 22 20 21 21 19 19 19 21 21 20 20 19 19 20 21 20 19 20 20 20 20 20 19 19 20 21 21 23 24 24 23 23 23 22 23
22 20 20 22 22 21 22 25 26 25 24 25 25 23 23 25 27 26 23 22 22 22 24 23 21 21 21 20 20 20 20 18 19 20 20 18 19 20 21 21 21 20 20 21 21 21 22 24 23 23 23 25 29 24
25 25 19 18 18 19 24 23 21 24 26 26 25 28 28 31 31 24 20 20 21 21 20 19 18 19 20 21 21 21 20 20 19 20 19 19 20 20 20 21 21 20 20 21 22 21 21 22 23 24 24 24 24 25
21 22 26 27 25 23 29 28 28 28 25 21 25 31 32 30 25 22 21 20 20 20 21 21 20 20 20 21 22 22 22 21 21 20 19 20 21 22 23 22 22 21 22 24 23 24 23 23 23 24 25 23 23 26
25 24 23 29 27 27 26 28 26 22 22 25 30 28 25 22 23 21 20 20 20 20 22 23 25 25 24 24 25 24 22 21 21 24 24 23 24 21 24 24 24 24 24 22 25 22 23 23 24 24 25 24 25 27
26 23 28 32 31 28 29 26 27 26 24 23 21 21 22 23 21 20 21 21 21 23 26 26 27 25 25 24 24 24 25 25 23 21 22 22 22 23 24 24 23 25 26 24 23 22 23 24 23 25 25 25 25 25
24 27 28 27 28 26 27 31 31 28 29 29 29 28 26 25 22 22 25 28 27 28 26 26 28 29 26 26 24 25 23 25 30 27 26 26 26 25 25 26 27 27 26 26 25 25 25 26 26 26 25 25 27 29
30 32 28 29 27 27 27 32 33 31 33 29 30 33 30 28 29 24 25 25 26 26 28 27 25 22 26 25 27 27 29 25 25 26 26 25 24 26 27 27 29 28 27 27 27 27 27 27 26 27 27 27 28 29
29 29 28 27 28 28 28 28 29 30 31 31 31 34 34 30 28 25 25 26 24 23 24 25 26 28 27 27 25 26 28 26 28 22 27 27 29 27 27 28 28 27 27 26 27 27 27 28 27 28 28 29 29 29

GFSWCAN_con_lsi_072.txt.gz
Lid_Strength_Index
2 2 2 2 1 1 1 1 1 1 1 1 2 2 2 2 2 3 4 2 4 7 5 3 3 5 5 6 9 8 9 8 9 12 12 11 12 10 11 10 12 13 14 15 13 15 17 6 7 10 8 5 5 5
2 2 2 2 1 1 1 1 1 1 1 1 1 2 2 2 2 2 6 2 1 4 5 1 1 1 2 3 5 6 7 8 7 10 9 9 11 9 10 13 8 13 10 11 10 11 6 6 6 4 5 6 5 5
2 2 1 1 1 1 1 1 1 1 1 1 1 1 2 2 2 2 5 3 3 6 5 4 5 2 0 1 1 7 6 5 6 4 7 8 11 8 12 11 9 8 6 9 9 7 6 5 4 5 4 5 4 4
2 2 2 1 1 1 1 0 1 1 0 1 1 1 1 2 2 2 5 3 4 6 9 7 3 4 1 1 2 2 3 3 4 4 8 9 10 7 9 8 9 8 7 8 8 6 6 5 5 5 5 4 4 5
2 2 1 1 1 1 1 1 1 1 0 0 1 1 1 2 2 2 3 3 3 5 8 7 4 3 2 2 3 3 4 5 6 8 9 10 7 7 7 8 9 7 8 9 9 7 7 6 5 4 5 5 5 6
1 1 0 0 0 0 0 0 1 1 1 0 0 0 1 2 3 5 9 5 3 3 7 9 4 5 4 3 4 5 4 5 6 7 8 7 5 7 10 11 7 6 6 6 7 7 7 6 5 6 6 6 7 8
1 0 0 0 0 0 0 0 0 0 0 0 0 0 1 2 4 6 6 5 3 3 7 9 8 5 4 4 5 5 5 7 7 8 8 8 7 6 10 11 9 9 8 8 8 8 7 7 9 8 8 7 7 8
1 1 0 0 0 0 0 0 0 0 0 0 0 0 1 2 2 4 3 2 2 4 5 9 10 8 5 7 8 5 7 7 8 8 7 8 7 8 12 12 11 11 10 9 10 9 10 8 10 11 10 10 11 12
2 1 1 1 0 0 0 0 0 0 0 0 0 1 2 4 6 4 1 1 0 4 8 9 11 12 5 7 6 6 6 10 6 10 9 8 10 12 15 14 13 13 13 12 10 9 10 11 12 12 13 13 14 15
2 1 1 1 1 0 0 0 0 0 0 1 2 5 8 4 1 1 3 7 7 6 5 8 6 10 6 7 9 9 7 10 12 9 8 10 14 13 13 13 13 13 13 12 12 11 11 12 12 13 14 14 14 15
2 2 1 1 1 1 1 1 0 0 0 2 5 6 3 1 3 5 8 8 8 9 7 6 7 9 5 9 9 8 10 9 12 11 11 11 14 14 12 13 12 12 12 12 12 12 12 12 13 14 15 15 16 17
2 2 1 1 0 1 1 1 1 1 1 2 4 4 5 7 6 9 10 9 9 10 8 9 8 7 7 6 8 8 11 10 14 9 11 14 15 14 13 13 13 13 13 13 12 13 13 14 14 15 15 16 17 17
2 2 2 2 1 0 1 1 1 1 1 3 6 9 8 11 12 12 13 11 11 10 9 9 9 7 7 8 9 9 11 13 10 13 15 15 15 14 14 14 14 13 13 14 14 14 14 15 15 16 17 17 18 18
3 3 3 3 3 2 3 3 3 3 5 9 10 15 14 15 14 13 12 12 11 10 10 8 8 8 8 10 10 12 12 11 15 16 18 16 15 15 14 14 15 16 15 16 16 16 17 17 17 17 17 18 19 19
3 3 3 4 3 4 4 4 5 6 8 12 12 16 15 13 13 13 12 11 11 10 9 8 9 8 11 12 12 13 16 18 17 18 17 15 15 15 15 15 15 16 16 16 16 17 17 17 17 18 18 18 18 19
3 4 5 4 4 5 5 6 6 7 10 13 14 15 13 13 14 13 13 12 11 10 8 8 11 13 15 14 16 18 18 20 19 17 16 16 17 16 16 15 15 15 15 16 16 16 17 18 18 18 18 18 19 19
3 5 4 5 6 6 6 8 9 12 13 14 15 14 14 14 15 14 14 13 11 10 12 12 15 17 14 17 20 19 20 19 18 18 17 17 17 17 16 16 16 16 16 16 16 16 17 17 17 18 19 18 18 18
5 4 4 3 4 6 8 9 12 14 16 14 16 15 14 14 14 14 13 12 11 12 13 16 14 18 19 21 20 19 19 18 18 18 18 18 17 17 16 17 17 16 17 17 17 17 16 17 17 18 18 17 18 18
5 4 4 4 5 7 11 11 11 16 16 15 14 14 14 14 14 14 13 13 13 13 14 16 18 20 19 18 18 18 17 17 17 18 18 18 17 17 17 17 17 17 17 17 17 17 17 17 17 16 16 17 17 17
5 5 5 5 5 9 12 13 10 14 16 15 14 15 15 15 15 15 15 15 15 16 18 19 19 18 18 17 15 15 15 15 15 17 17 16 16 16 16 15 16 16 16 16 16 16 16 17 17 17 17 17 17 18
6 6 6 6 8 9 11 12 14 14 14 15 14 15 16 15 16 17 17 16 18 19 20 18 17 16 15 14 14 13 14 13 14 14 15 16 16 15 16 16 16 16 16 16 17 18 17 17 17 17 17 17 17 17
6 7 6 7 9 10 11 10 12 12 14 15 15 15 16 17 17 18 16 18 19 18 16 16 16 15 15 16 15 15 15 15 15 16 16 16 17 17 17 16 16 17 16 16 16 16 16 16 16 16 16 17 16 16
7 7 9 9 12 12 14 10 14 14 16 16 15 18 18 18 17 16 18 18 17 16 15 16 16 15 16 16 16 16 16 16 16 17 17 16 16 16 16 16 15 16 16 16 15 15 16 18 17 16 16 15 15 16
10 13 15 14 13 17 14 15 14 15 15 16 18 20 19 17 15 17 20 18 17 16 16 16 16 17 16 16 16 17 16 16 16 16 15 15 16 16 15 15 15 15 15 15 15 15 15 16 17 15 16 16 16 16
14 17 15 17 15 16 17 17 17 16 18 17 18 18 18 16 19 20 21 19 17 16 16 15 15 16 16 17 16 16 16 15 15 16 16 15 15 15 15 15 15 15 14 14 15 15 16 16 15 15 16 16 17 18
19 18 17 16 16 16 16 18 17 17 17 19 19 19 17 19 21 22 19 17 17 16 16 15 15 16 16 15 16 16 16 14 14 15 16 14 14 14 14 15 16 16 15 14 15 15 16 16 16 18 17 19 22 19
19 19 17 16 15 16 17 16 16 17 19 20 19 21 20 23 23 20 17 16 16 16 15 14 14 15 16 17 17 16 16 15 15 15 15 15 15 15 14 15 18 16 15 15 15 15 16 17 17 17 17 16 17 18
18 18 20 21 20 19 21 20 21 21 20 19 19 24 23 23 21 18 17 16 16 16 16 16 16 15 16 17 17 17 17 17 17 16 15 15 15 15 16 15 16 18 16 17 16 16 16 16 17 17 18 18 18 18
20 19 20 26 23 22 23 22 21 20 20 19 21 22 22 20 19 17 17 16 16 16 17 18 19 18 18 18 17 15 15 14 17 19 19 16 16 16 16 16 16 16 16 16 21 18 18 17 18 18 20 18 18 18
21 18 22 24 25 24 23 21 21 21 20 19 19 20 20 20 19 16 16 16 16 17 17 17 18 16 17 16 18 18 16 16 16 16 16 16 16 16 16 16 16 17 17 16 17 17 20 18 19 18 19 19 18 18
18 19 21 21 23 21 21 21 20 19 19 20 19 20 21 19 18 19 19 19 19 19 18 19 19 18 18 17 16 16 16 17 21 21 19 17 17 16 17 18 17 17 17 18 18 18 19 19 18 19 19 20 20 21
20 22 22 23 22 20 20 19 19 19 19 19 20 20 20 19 20 19 19 18 18 17 20 18 17 16 17 17 18 18 23 18 18 19 18 17 17 18 18 18 19 18 18 19 19 19 21 21 20 20 20 21 21 22
20 20 20 21 22 21 20 19 20 20 20 20 21 22 22 20 22 20 20 20 18 17 17 17 17 18 19 19 18 19 18 18 19 19 21 21 22 20 18 18 18 19 20 19 19 20 21 21 20 21 21 22 22 22

GFSWCAN_con_lsi_075.txt.gz
Lid_Strength_Index
3 2 2 2 2 2 1 1 1 1 1 1 2 2 2 3 2 4 5 2 4 6 4 3 3 5 5 5 9 8 9 8 9 12 12 11 11 10 10 9 11 12 14 14 13 16 16 5 6 10 8 6 5 5
2 2 2 2 2 2 1 1 1 1 1 1 1 1 2 2 2 3 6 3 1 5 4 1 1 1 2 3 6 6 7 8 7 10 9 8 11 9 10 13 8 13 10 11 10 10 6 5 6 5 4 5 5 5
2 2 2 2 2 2 1 1 1 1 0 1 1 1 1 1 2 3 5 4 4 6 4 4 4 1 0 1 0 7 6 5 6 4 7 9 12 8 12 10 9 7 7 10 11 7 8 5 4 4 4 5 4 4
2 2 2 2 2 1 1 1 1 1 1 1 1 1 1 1 2 2 5 4 4 5 8 5 1 2 0 0 1 2 3 3 4 5 8 9 10 6 9 8 9 7 6 8 8 6 6 5 5 4 4 4 4 3
2 2 2 1 1 0 1 1 1 1 0 0 0 0 1 1 1 2 3 3 2 4 7 6 2 1 1 2 2 2 3 4 6 8 9 10 7 7 7 7 9 6 7 9 10 7 7 6 4 4 5 5 5 5
2 1 1 0 0 -0 -0 -0 0 1 0 0 0 0 1 1 1 3 9 4 1 0 5 9 3 3 3 3 3 3 4 5 6 8 8 6 5 7 10 10 6 5 5 5 7 6 5 5 5 6 7 7 6 6
1 1 0 0 0 0 0 0 0 -0 0 1 0 0 1 1 2 6 7 4 2 1 6 8 8 4 3 3 4 4 4 5 6 8 8 8 7 6 10 11 8 7 7 6 7 7 6 7 8 8 8 8 8 8
1 1 1 1 0 0 0 0 0 0 0 0 0 1 1 1 2 5 2 2 2 5 5 9 9 7 4 7 8 5 8 7 7 8 7 8 6 8 12 10 10 10 9 8 9 8 8 9 10 10 10 10 10 12
1 1 1 1 0 0 0 0 0 0 0 0 0 1 2 4 6 4 2 2 1 5 8 8 10 11 5 7 6 6 6 10 6 9 8 7 9 12 14 13 12 11 11 11 10 8 9 10 10 11 11 11 12 13
2 1 1 1 0 0 0 0 0 0 1 2 3 5 8 4 1 2 5 7 7 5 5 8 6 10 6 6 8 8 7 10 12 9 8 10 14 13 12 12 11 11 11 11 12 11 11 11 11 12 13 13 13 14
2 1 1 1 1 1 1 1 1 1 1 2 6 6 3 1 3 5 8 8 8 10 6 6 7 8 5 9 9 8 10 9 13 11 11 12 14 14 12 12 12 11 11 11 11 12 12 12 12 13 14 14 14 15
2 1 1 1 1 1 1 1 1 1 1 2 4 3 4 5 7 9 10 8 9 10 7 8 7 7 6 5 8 8 11 9 14 7 11 13 14 13 12 12 12 12 11 12 11 12 12 12 12 13 14 14 15 16
2 1 1 0 1 1 1 1 1 2 1 2 4 7 6 8 11 12 13 11 11 9 8 9 9 7 7 7 9 9 12 12 7 11 13 14 13 13 13 13 13 13 13 13 13 13 13 14 14 14 16 15 16 17
3 3 2 2 2 3 3 3 3 2 3 7 8 13 11 12 12 11 11 10 10 9 9 7 8 8 7 9 9 12 11 10 13 14 15 14 14 14 13 13 14 15 15 15 15 15 16 16 16 16 16 16 17 17
4 3 3 3 3 3 3 3 3 4 6 10 10 14 13 11 11 10 9 9 9 8 8 7 7 7 10 11 11 11 13 15 15 16 15 14 14 14 14 14 15 15 15 15 15 16 16 16 17 17 16 16 17 17
3 3 4 3 4 4 4 4 4 6 9 12 12 13 11 10 11 10 10 10 9 9 7 5 9 11 13 12 14 16 15 16 17 15 15 15 15 15 15 15 15 15 15 15 15 15 16 16 17 17 17 18 18 18
3 4 5 5 5 5 5 6 7 10 11 13 14 12 11 12 13 12 11 11 9 8 10 8 12 15 11 14 17 16 17 17 16 16 15 15 16 16 15 15 15 15 15 15 15 15 16 15 16 16 18 17 17 17
3 4 5 4 4 5 7 7 9 11 14 12 14 13 12 11 11 11 11 9 9 9 10 14 11 15 16 18 18 17 16 16 15 15 15 16 16 16 15 15 15 15 15 15 15 15 15 15 16 16 16 16 16 16
3 3 3 3 4 6 9 10 9 14 13 12 12 12 12 12 11 11 11 10 10 10 11 13 16 17 17 16 17 16 15 14 15 15 15 15 14 15 14 15 15 15 15 15 15 15 15 15 15 14 15 15 15 15
4 4 4 4 4 7 11 11 8 12 14 13 12 13 13 13 12 12 13 13 13 14 16 18 17 16 16 14 13 13 13 13 13 15 15 14 14 14 14 13 14 14 14 14 14 14 14 14 15 15 14 14 15 16
5 6 5 4 6 7 9 11 12 12 12 14 12 12 14 13 14 14 14 13 15 16 17 15 15 14 13 12 12 12 12 12 12 11 13 15 14 13 14 13 13 13 13 13 14 15 14 14 14 13 13 14 14 14
5 7 5 5 9 9 10 9 11 11 12 13 13 12 14 15 15 16 14 16 17 16 14 15 14 14 15 15 14 13 13 13 14 14 14 14 14 14 13 12 12 13 13 13 13 13 13 13 13 13 14 14 14 14
7 6 7 8 10 11 13 9 12 12 15 15 13 15 15 15 15 13 16 16 16 14 14 14 14 14 15 14 14 14 13 13 14 14 14 13 13 13 13 13 12 13 13 13 12 12 14 16 15 14 14 13 13 14
8 11 12 12 12 15 12 14 12 13 13 14 16 18 17 15 13 15 18 17 16 15 15 15 14 14 14 14 14 14 14 13 14 13 13 13 13 13 13 13 13 13 13 12 12 13 13 14 15 13 13 13 13 13
12 16 13 15 12 14 15 15 15 15 17 16 17 16 16 13 16 17 18 17 16 15 15 14 13 13 14 14 14 15 14 13 13 14 13 13 13 13 13 13 13 13 12 12 13 13 13 13 13 13 13 13 15 16
18 17 16 15 15 15 15 16 15 15 15 16 17 15 14 15 18 19 17 15 15 15 14 13 13 14 14 13 14 14 14 13 12 14 14 13 13 12 12 12 12 13 12 12 12 13 14 14 14 16 15 17 19 17
18 17 15 14 13 13 14 13 13 14 16 18 17 17 17 20 20 18 16 14 14 13 13 12 12 12 13 14 14 14 14 14 14 14 13 13 13 13 12 13 15 13 12 13 13 14 14 14 15 15 15 14 15 16
16 16 18 17 17 15 17 17 17 18 17 17 16 20 20 19 19 15 15 14 14 13 14 13 13 13 14 14 14 15 15 15 15 14 13 13 13 13 14 13 14 16 14 14 14 14 14 14 15 15 16 16 16 15
17 16 18 22 19 19 19 19 18 18 18 16 18 19 20 18 16 16 15 14 13 14 15 15 16 15 15 15 14 14 13 13 15 18 17 14 13 14 13 13 13 13 13 13 17 16 15 16 16 16 16 16 15 16
18 15 19 21 21 21 20 18 19 18 17 16 17 18 18 18 16 14 14 14 15 15 15 14 14 14 15 15 16 16 14 13 14 14 14 14 14 14 13 13 14 14 14 14 14 15 17 16 16 16 16 16 16 16
15 16 18 18 20 19 18 17 16 16 16 16 15 17 18 18 17 16 16 15 15 15 15 16 16 15 15 15 14 15 15 15 17 16 15 14 13 13 14 14 14 14 14 15 15 15 16 16 16 16 16 17 17 18
17 18 19 21 20 18 16 15 16 16 16 16 17 16 16 16 18 17 16 15 15 15 17 15 15 15 15 15 15 16 17 15 15 16 17 14 14 15 14 15 15 14 15 16 16 16 17 17 17 17 17 17 18 18
17 17 17 18 19 18 18 16 16 17 16 17 17 17 17 17 19 18 17 16 15 15 15 15 15 16 17 16 15 16 15 16 18 18 18 19 20 18 15 14 14 15 16 16 16 16 17 17 17 18 18 18 19 19

GFSWCAN_con_lsi_078.txt.gz
Lid_Strength_Index
3 2 2 2 2 2 2 2 1 1 1 1 1 1 1 1 1 3 4 1 4 7 5 4 3 5 5 6 9 7 9 8 9 12 12 11 12 11 11 10 12 13 14 15 14 15 17 6 7 11 9 7 6 6
2 2 2 2 2 2 2 2 1 1 1 1 1 1 1 2 2 3 5 2 2 6 5 2 2 1 2 3 6 6 8 8 7 10 9 9 12 11 11 14 9 14 10 12 11 11 6 6 7 5 5 6 6 6
2 2 2 2 2 2 2 2 1 1 1 1 0 1 1 1 2 3 4 3 4 6 6 5 5 1 0 1 1 8 6 5 6 5 8 10 12 9 13 11 10 9 7 11 10 8 7 7 6 5 5 5 4 5
2 2 3 2 2 2 2 1 1 1 1 1 0 0 1 1 1 2 5 4 5 6 9 6 1 3 0 0 1 2 3 3 4 5 8 9 11 8 11 9 9 8 8 10 11 9 7 7 6 5 5 5 5 5
2 2 2 2 2 1 1 1 1 1 1 1 1 1 1 1 1 1 3 3 3 5 8 7 3 1 1 1 2 2 3 4 6 8 9 10 7 8 8 8 9 7 9 11 12 8 8 8 7 6 7 6 6 6
2 2 1 1 1 1 0 0 0 0 0 0 0 0 0 0 1 3 9 4 2 3 6 10 3 3 2 2 3 3 4 4 6 8 8 7 5 7 11 11 8 6 6 6 8 7 6 6 7 7 8 7 7 8
2 1 1 1 1 0 0 0 0 -0 -0 0 0 0 0 0 2 6 6 3 2 2 6 9 8 4 2 3 4 4 3 5 6 8 8 8 7 7 10 11 9 9 7 7 8 7 7 8 10 9 9 8 8 10
1 1 1 1 1 1 0 0 0 -0 -0 -0 0 0 0 0 2 4 1 1 1 4 4 9 10 7 3 7 8 4 7 6 7 8 7 8 7 7 12 10 10 10 9 9 9 8 9 9 9 10 9 10 10 12
1 1 1 1 1 0 0 0 0 0 -0 -0 0 1 3 4 6 4 1 1 1 4 8 8 11 12 4 7 6 6 7 10 7 9 8 7 9 13 13 12 12 12 12 12 10 9 9 10 11 12 12 13 14 14
1 1 1 1 0 0 0 0 0 -0 0 1 3 5 8 4 1 1 4 8 7 6 5 8 6 10 6 7 8 8 8 10 12 9 7 9 14 12 11 11 11 11 11 11 12 13 12 12 12 13 14 14 14 15
1 1 1 1 1 0 0 0 1 1 1 3 6 6 3 1 3 6 8 9 8 9 6 7 7 9 5 9 9 7 10 9 13 11 11 12 15 14 12 12 12 12 11 12 12 12 12 12 13 13 14 14 15 15
1 1 1 1 1 1 1 2 1 1 2 3 4 3 3 5 7 9 10 9 9 10 7 8 8 7 6 5 8 9 11 10 14 8 12 15 15 13 13 13 13 13 13 13 12 13 12 12 13 13 14 15 15 15
1 1 2 2 1 1 1 1 1 2 1 2 4 6 7 8 11 12 13 11 11 9 8 8 9 8 7 7 9 9 12 13 8 12 15 16 14 13 13 13 13 13 13 13 14 14 14 15 15 15 16 16 16 16
2 2 2 2 2 3 4 3 3 3 3 7 8 12 10 12 12 12 11 10 10 9 9 7 8 8 8 9 10 12 11 10 13 14 17 15 14 13 13 13 14 15 15 15 15 16 16 16 17 16 16 16 17 18
3 3 3 3 3 3 3 3 3 3 6 9 9 13 13 11 10 9 9 9 9 9 9 8 8 8 10 11 10 11 13 14 15 16 16 15 14 14 14 14 15 15 15 15 16 16 17 17 17 17 17 17 17 18
3 2 4 4 4 3 3 3 4 5 8 10 11 11 10 10 11 10 9 10 9 9 7 6 9 11 13 11 13 15 14 16 16 15 15 15 15 15 15 15 15 15 15 16 16 16 16 17 17 18 17 17 17 18
2 4 4 4 3 4 3 5 7 10 11 12 13 10 10 10 11 11 10 10 8 8 10 8 12 14 11 14 16 16 17 16 16 16 15 15 15 16 16 16 15 15 16 16 16 16 16 16 16 16 18 17 17 18
3 5 4 4 3 4 5 6 9 11 13 12 13 12 11 10 11 11 10 8 8 9 10 13 10 14 16 16 17 17 16 15 15 15 14 14 14 13 13 14 14 14 15 15 15 15 15 16 16 17 16 16 16 16
3 3 4 4 3 5 8 9 8 13 12 11 11 11 11 11 11 10 10 9 9 9 10 12 15 17 17 16 16 16 15 14 15 14 14 14 14 14 14 14 14 14 14 14 14 14 14 14 13 13 14 14 15 15
4 4 4 4 4 7 10 10 7 11 12 12 11 12 12 12 11 11 11 11 12 13 16 17 17 15 15 14 12 12 12 12 13 15 15 14 13 13 13 13 13 13 13 13 13 13 14 14 14 14 14 14 14 15
5 5 4 3 6 6 8 10 11 11 11 12 11 12 13 12 13 14 14 13 15 16 17 15 15 14 12 12 12 12 13 11 13 12 14 14 13 13 13 12 12 11 12 12 13 14 13 14 13 13 13 14 14 15
5 6 5 5 8 9 10 9 11 10 11 12 12 12 13 15 15 15 14 16 16 15 14 14 14 14 15 14 14 13 13 13 13 13 13 13 14 13 13 12 12 13 13 13 12 13 13 13 13 13 13 14 14 15
7 5 6 7 10 11 12 8 12 11 14 14 13 15 15 15 14 12 16 16 16 14 14 14 14 14 14 14 13 13 12 13 14 13 13 13 13 13 13 13 13 13 13 13 12 12 14 16 14 13 13 13 14 15
7 10 11 11 11 14 11 13 11 13 13 14 15 16 15 14 12 14 17 17 15 14 14 14 14 14 14 14 14 14 14 13 13 13 13 13 14 14 13 13 13 13 13 12 12 12 13 13 17 13 13 13 14 13
12 15 12 14 11 13 15 15 14 14 16 15 16 16 15 13 16 16 17 17 15 14 14 13 13 12 14 14 14 14 13 13 14 15 14 13 13 13 13 13 13 13 12 12 12 13 14 14 13 14 14 14 15 15
17 16 14 13 13 14 14 16 15 15 15 16 16 15 13 15 17 18 16 15 14 14 13 13 13 14 14 13 14 14 14 13 13 14 15 14 13 13 13 13 13 14 12 12 13 13 14 14 15 16 15 17 21 17
17 17 15 13 12 13 14 13 12 14 15 17 16 15 15 19 19 18 14 13 14 13 12 12 12 13 14 15 14 14 14 15 15 15 14 14 13 13 13 14 15 14 13 13 13 14 14 14 15 15 15 15 14 15
17 16 19 16 15 14 16 15 16 17 17 15 15 18 19 18 19 15 15 13 13 13 13 13 13 13 14 14 14 15 15 15 15 14 13 13 13 13 13 14 15 15 15 15 15 14 14 15 15 15 15 16 16 15
16 16 17 21 18 18 18 17 17 17 16 15 17 19 19 17 15 15 14 13 13 14 15 16 15 14 14 14 14 14 13 14 15 16 16 15 14 15 13 13 13 13 13 13 16 16 15 15 15 16 16 16 15 15
17 14 18 19 20 21 19 17 18 16 15 16 17 17 17 16 15 13 14 13 14 15 15 14 14 14 15 15 16 16 15 15 15 15 15 15 15 14 13 13 13 13 14 13 14 14 15 15 14 15 17 16 15 15
14 14 17 18 20 19 17 15 14 14 14 15 15 17 19 18 16 15 14 14 14 15 15 15 15 15 15 15 15 15 17 16 17 16 15 14 14 14 14 15 14 14 14 14 15 15 15 16 15 15 15 16 17 17
15 17 18 21 20 16 15 14 15 16 16 16 17 16 15 16 18 17 15 14 15 15 16 15 15 16 16 16 16 17 17 16 16 15 15 15 14 15 15 15 15 15 15 16 15 16 16 17 17 17 17 17 17 18
16 16 17 18 19 18 17 15 16 16 16 16 17 16 16 16 19 18 16 15 14 14 15 16 16 16 17 16 16 16 16 18 19 17 18 19 20 19 17 14 15 15 16 16 16 16 16 17 17 18 18 19 19 18

GFSWCAN_con_lsi_081.txt.gz
Lid_Strength_Index
2 2 3 3 2 2 1 2 2 2 1 1 1 1 1 0 -0 1 3 3 6 8 7 6 5 7 6 7 11 8 9 8 9 14 13 13 14 12 13 12 14 14 15 16 15 17 18 7 8 12 10 7 7 7
3 3 3 3 2 2 2 2 2 2 1 1 1 0 1 1 1 1 6 3 3 7 8 4 4 3 4 4 6 7 9 8 8 11 11 11 14 12 12 16 10 15 11 14 12 13 8 7 8 7 6 7 7 7
3 3 3 2 2 2 2 2 2 2 1 1 1 1 0 0 1 2 5 4 5 7 8 8 7 4 2 2 2 8 6 5 6 6 8 10 13 11 15 13 11 10 8 12 11 10 9 8 6 6 6 7 7 7
4 3 2 2 2 2 2 2 2 1 1 1 0 0 0 0 1 2 5 4 5 7 14 10 3 4 2 3 2 4 5 5 4 6 8 10 12 8 12 11 11 10 9 11 11 9 8 8 7 7 7 7 7 8
3 2 2 2 2 2 1 1 1 1 1 1 0 0 0 0 1 2 3 4 4 8 10 8 4 3 2 3 4 3 4 5 7 8 9 10 8 9 9 9 11 8 10 12 13 9 9 9 8 8 9 9 9 9
3 2 2 2 1 1 1 1 0 0 0 -0 0 0 0 0 1 3 8 4 3 4 7 11 4 4 4 3 4 5 5 5 7 7 8 7 6 8 12 13 9 9 8 9 11 8 9 10 10 9 9 10 11 12
2 2 2 1 1 1 1 0 0 0 -0 -0 -0 -0 0 1 2 6 7 4 2 3 8 9 9 5 3 4 5 6 5 6 6 7 8 8 8 7 10 13 11 10 8 10 9 7 9 10 12 10 10 11 11 13
2 2 1 1 1 1 1 1 1 0 -0 -0 -0 -0 0 0 2 4 2 2 2 5 6 10 10 8 4 8 9 5 7 6 6 7 7 9 8 8 12 12 12 11 10 11 10 9 9 10 11 12 12 12 14 15
2 1 1 1 1 1 0 0 -0 0 -0 -0 -0 -0 3 4 6 4 1 1 2 5 9 9 11 12 5 7 7 6 6 10 6 9 9 8 10 16 14 14 13 13 13 13 11 11 11 12 13 14 14 14 16 16
1 1 1 1 1 0 0 0 0 -0 -0 -0 2 5 8 5 0 2 5 6 6 6 6 10 7 10 7 8 9 9 8 10 12 10 8 11 15 13 12 13 13 13 12 12 14 15 14 13 15 15 16 16 16 17
1 1 1 1 1 0 0 0 -0 0 1 3 6 6 3 1 4 6 9 9 9 10 9 7 7 9 5 10 10 9 10 10 13 12 12 14 16 15 14 14 13 13 13 13 13 13 13 14 14 16 16 16 16 17
1 1 1 0 1 0 0 0 0 1 3 3 4 3 4 6 8 9 10 9 10 12 8 10 8 7 8 6 10 10 11 11 15 9 12 18 16 14 14 15 14 14 14 15 14 15 15 15 15 16 16 16 17 16
2 1 1 1 1 1 1 1 1 1 1 2 5 7 7 9 11 12 14 13 12 9 8 8 9 9 8 7 9 10 12 13 10 13 19 18 15 15 15 15 15 15 15 15 15 15 16 16 16 17 18 18 18 18
2 2 2 2 2 2 2 1 1 3 4 7 10 14 12 13 14 14 12 11 10 9 9 9 9 10 10 10 11 12 12 12 14 17 21 17 17 15 14 14 15 17 18 18 18 18 18 18 18 18 18 18 19 19
2 2 3 3 3 3 3 2 3 4 7 10 11 15 15 13 11 10 9 10 9 9 9 9 11 11 13 14 14 15 16 17 18 22 20 18 18 17 18 17 18 18 19 19 20 19 20 19 19 19 19 18 18 19
2 2 4 3 3 3 3 3 5 6 9 11 12 12 11 13 13 12 11 11 9 10 9 10 12 14 14 14 14 18 16 22 21 18 17 19 18 18 18 17 18 18 18 18 18 18 18 19 19 19 19 19 19 20
2 4 4 3 3 3 3 6 8 10 11 12 15 13 12 13 12 13 11 11 9 10 14 12 14 15 12 15 19 19 23 20 18 17 16 18 19 19 17 16 16 15 15 15 16 16 17 17 17 18 19 19 18 18
5 5 3 3 3 4 6 7 9 11 13 12 15 14 13 12 12 12 13 11 11 12 12 14 12 18 21 20 22 19 17 16 16 17 16 15 15 15 15 16 17 16 16 17 17 16 15 16 16 16 16 15 16 16
5 5 3 3 4 6 9 9 9 14 13 12 12 13 13 13 12 12 12 11 11 11 12 14 19 20 20 18 18 18 18 19 18 17 17 17 16 17 18 16 16 16 15 15 15 16 15 15 15 14 14 14 16 15
3 3 3 3 4 8 10 11 8 12 13 13 12 13 13 13 12 13 13 12 13 14 17 18 19 17 16 15 15 16 17 15 16 17 17 16 15 15 15 15 16 15 15 15 14 14 14 15 15 15 15 15 16 18
5 5 4 4 7 7 10 11 12 12 12 13 12 12 13 13 14 15 15 13 16 17 18 17 18 17 16 14 14 15 15 14 14 15 17 16 16 15 15 15 14 13 15 16 17 17 17 18 16 15 19 23 23 22
6 5 6 6 10 10 11 10 12 11 12 12 12 12 14 16 17 16 15 17 18 17 17 17 17 16 16 17 17 15 16 15 15 15 16 15 16 16 16 16 15 19 19 19 16 17 18 18 17 17 20 19 18 20
5 5 8 9 12 14 14 10 13 12 16 15 13 15 16 17 16 14 20 17 17 16 15 16 15 15 15 14 14 14 13 14 16 16 16 18 18 18 18 18 17 19 18 18 15 16 20 20 19 21 20 19 21 24
7 11 12 14 14 15 13 15 12 13 14 15 17 18 17 17 14 18 20 18 17 16 16 16 16 16 15 15 17 17 16 15 16 17 17 16 18 19 17 17 17 18 16 15 15 17 17 22 22 17 23 23 23 21
16 17 15 19 15 18 19 18 17 16 20 18 19 19 18 14 19 20 21 18 18 17 17 15 14 14 17 19 18 18 15 15 16 18 17 16 18 18 17 16 16 16 15 15 16 20 23 23 22 21 22 23 21 25
21 20 17 17 17 18 17 21 20 20 20 21 20 17 17 18 22 22 18 17 17 19 17 17 18 16 16 15 17 18 18 16 16 18 18 17 17 20 20 19 17 17 17 21 21 18 20 23 23 23 25 23 24 26
23 22 16 14 13 14 18 17 15 18 21 22 20 21 22 27 26 20 15 16 16 15 15 15 14 16 17 18 17 18 18 18 18 17 17 17 16 16 20 22 21 19 17 19 21 23 21 20 22 22 24 24 21 22
19 18 24 20 20 17 21 20 21 22 22 17 19 25 26 26 22 18 16 15 16 16 16 16 16 16 17 17 18 20 22 21 21 19 18 18 19 20 21 22 22 17 22 24 24 24 24 24 23 21 21 23 26 25
20 19 20 25 22 21 21 21 22 20 18 18 24 25 23 18 17 16 16 16 16 17 19 19 21 21 19 18 18 18 19 22 22 25 26 21 21 22 21 22 22 23 21 19 18 20 21 23 24 24 25 25 25 25
21 17 22 25 26 25 21 18 23 21 19 20 18 18 18 17 16 17 17 15 16 18 21 21 21 21 23 23 25 23 22 25 26 25 23 23 21 21 22 22 21 22 23 23 23 22 17 20 21 22 22 23 22 22
16 18 22 22 24 21 18 17 16 17 18 19 20 21 22 20 20 17 16 18 19 20 18 21 22 22 22 21 22 22 26 26 27 25 24 23 21 22 25 25 25 25 24 24 25 26 26 26 26 25 25 25 27 28
19 22 24 25 22 18 16 19 21 20 20 22 23 22 22 23 24 22 20 18 17 19 20 19 21 23 23 25 25 25 24 25 25 25 24 21 25 25 24 23 24 22 25 25 23 24 24 26 27 27 28 28 28 28
20 20 21 22 24 23 20 20 20 20 20 21 22 20 22 24 25 23 19 19 17 18 20 20 21 22 22 23 24 24 26 28 26 21 23 23 26 25 25 24 25 24 25 26 26 26 25 25 26 27 28 28 29 29

GFSWCAN_con_lsi_084.txt.gz
Lid_Strength_Index
3 3 3 2 2 3 3 3 2 2 2 2 1 1 1 0 -0 1 3 3 6 9 8 6 6 9 8 7 10 8 10 9 9 13 13 13 15 12 13 12 13 14 15 16 15 17 18 8 9 12 10 8 8 8
3 3 2 3 3 3 3 2 2 2 2 2 1 1 1 1 0 -0 4 2 3 8 9 5 6 5 5 5 7 6 8 8 8 11 11 11 14 14 13 16 10 15 12 14 13 13 9 7 8 6 6 8 8 8
3 3 3 3 3 3 2 2 1 2 2 2 1 1 0 0 1 1 4 4 5 7 8 8 8 5 3 3 2 9 7 6 8 8 9 10 12 11 15 14 12 10 9 12 11 10 9 8 7 7 7 8 8 8
3 3 3 4 3 2 2 2 2 2 2 1 1 1 1 0 0 1 4 4 5 8 13 11 5 6 3 4 3 4 5 5 6 6 9 10 11 8 12 11 11 10 9 11 11 9 8 8 8 8 9 8 10 11
3 3 4 3 3 2 2 2 1 1 1 1 1 0 0 0 0 2 3 4 4 8 12 11 6 4 3 4 5 4 4 5 7 8 9 11 9 9 9 9 11 9 10 12 13 11 9 10 9 8 11 12 12 12
4 4 3 3 2 2 2 1 1 1 1 1 1 0 0 0 1 4 8 4 3 4 10 13 7 5 4 4 5 5 5 5 6 8 9 7 6 8 12 13 11 9 9 10 10 10 11 11 11 10 12 13 13 14
4 3 3 2 2 2 1 1 1 1 0 0 -0 -0 0 0 2 6 8 5 3 4 8 11 11 6 4 5 5 6 5 5 7 7 8 8 8 8 10 13 12 11 10 10 8 8 11 11 13 11 12 13 13 15
3 3 2 2 2 1 1 1 0 0 0 -0 -0 -0 -0 0 2 5 2 2 2 5 6 11 12 8 5 9 8 4 7 6 7 7 7 9 8 9 14 13 13 12 11 11 11 10 11 11 12 12 12 13 15 16
2 2 3 2 1 1 1 1 1 0 -0 -0 -0 -1 1 4 6 4 1 2 1 5 10 9 12 13 5 7 6 6 6 10 7 9 9 9 12 17 15 14 14 13 13 13 11 11 11 13 14 14 15 15 16 16
3 2 2 2 2 1 1 0 0 -0 -0 -0 2 5 8 4 1 1 4 7 6 6 6 9 9 10 7 8 9 8 8 10 12 9 7 13 16 14 14 13 14 13 13 13 14 15 14 15 15 16 16 16 17 18
2 2 1 1 1 0 -0 -0 -0 -0 0 4 7 7 3 0 4 6 9 10 9 11 9 9 8 9 5 9 10 8 10 10 13 12 11 14 17 16 14 14 14 14 14 14 14 15 15 14 16 16 17 17 17 18
2 1 0 0 0 -0 0 -0 0 1 3 3 3 2 3 6 8 9 10 9 11 12 9 11 9 7 7 5 9 9 12 10 14 9 15 21 17 15 15 15 15 15 15 16 15 15 15 16 16 17 17 18 18 18
1 1 1 1 1 0 0 1 1 0 1 2 5 7 7 9 11 12 13 12 12 9 8 8 9 8 8 7 9 10 12 13 10 16 20 19 15 15 16 16 16 16 16 16 17 16 16 17 17 17 19 18 18 19
1 1 2 1 1 1 1 1 1 2 4 8 10 16 12 16 17 16 13 11 10 9 8 9 9 10 10 11 12 13 14 13 17 21 21 18 17 17 15 15 17 20 19 20 21 20 20 19 20 19 19 19 19 20
1 2 2 3 3 3 2 2 3 5 8 11 11 18 19 16 14 10 9 9 9 9 8 9 11 11 13 14 13 14 15 19 19 23 22 19 18 17 19 17 19 19 21 21 23 21 22 21 20 20 19 19 19 20
2 3 4 3 3 3 3 4 5 7 9 11 12 13 12 15 14 12 11 11 9 9 9 10 13 17 17 16 18 21 18 23 23 22 18 20 20 21 20 19 19 20 20 19 19 19 19 19 19 19 19 19 20 20
2 6 4 3 3 3 3 7 8 10 11 13 14 14 14 15 15 13 12 12 9 10 15 14 16 16 13 19 22 21 26 24 20 18 19 20 19 20 19 18 19 19 19 20 20 19 19 18 17 17 18 18 17 18
6 6 3 3 3 5 6 7 10 12 14 14 15 15 17 16 15 14 14 12 11 13 14 16 14 20 24 24 24 22 19 17 18 18 19 21 20 19 18 20 19 18 19 19 18 18 17 16 16 17 17 16 16 16
6 6 3 3 4 7 9 9 10 14 14 15 14 14 13 14 13 14 14 13 13 13 14 16 20 23 23 21 20 19 18 19 19 20 19 20 18 19 19 17 16 16 16 16 15 16 16 16 16 15 15 14 16 16
3 3 3 3 4 9 10 10 8 12 14 14 12 13 13 14 13 15 14 13 13 14 18 20 21 20 19 17 18 18 19 17 18 19 21 18 19 19 19 17 17 16 16 15 15 15 15 16 16 16 16 17 18 18
4 5 4 5 7 8 10 11 12 11 12 13 12 12 14 13 15 17 16 14 17 18 20 18 18 17 16 17 17 15 17 16 19 18 19 20 20 16 16 15 14 15 16 18 20 19 19 20 19 18 22 26 25 22
6 4 7 7 9 10 11 11 12 12 12 12 12 12 15 18 18 17 15 18 18 18 17 17 18 16 16 17 16 16 16 15 15 16 18 17 17 18 18 17 17 20 19 19 17 19 19 18 18 20 22 25 23 22
5 6 9 10 13 14 15 10 14 12 16 15 13 15 17 17 15 14 20 18 18 17 18 17 16 15 16 15 15 15 14 15 17 17 17 18 19 20 20 20 20 21 21 20 18 19 21 21 21 23 23 23 23 26
7 11 14 15 15 16 15 16 12 13 14 15 17 18 18 19 16 20 21 21 21 18 18 17 16 17 17 17 18 18 17 17 18 18 19 18 20 20 19 19 19 19 18 17 17 20 21 25 24 22 26 24 25 23
15 17 17 20 17 19 20 20 18 17 20 19 20 21 20 15 21 23 25 21 21 22 20 17 16 17 19 21 20 18 17 16 18 19 19 18 21 20 19 18 18 17 17 21 21 24 25 28 27 26 25 28 22 23
21 21 18 20 19 18 19 22 22 21 21 23 22 18 19 22 25 25 21 21 23 22 22 17 16 18 18 18 19 20 20 18 17 20 19 18 19 22 23 22 22 21 19 24 23 24 24 26 26 25 27 26 26 29
24 23 17 14 14 15 19 19 17 20 23 23 23 25 27 30 30 22 18 20 18 20 17 16 16 17 19 19 19 20 20 19 20 19 18 18 19 19 22 22 22 20 20 23 26 25 24 24 25 26 27 25 25 25
19 20 23 22 23 20 26 25 25 25 25 19 22 28 29 28 24 19 18 18 18 17 17 17 17 17 19 20 21 22 23 23 21 20 20 20 21 24 24 24 24 19 25 28 28 29 27 27 25 25 26 26 27 28
25 21 22 27 25 25 23 25 25 21 19 21 28 28 24 19 20 19 19 18 18 18 19 20 23 21 20 21 23 23 26 25 25 27 29 27 26 24 26 26 26 27 27 24 20 23 25 26 27 27 27 27 28 30
23 20 26 29 28 26 25 25 27 27 22 22 19 18 20 19 17 18 18 19 21 22 24 21 24 22 25 26 30 28 29 32 30 27 28 28 25 23 25 26 26 27 29 29 28 26 20 25 23 26 25 26 26 28
20 24 26 26 24 22 22 21 20 21 25 23 25 25 23 21 20 18 18 23 21 21 20 22 24 26 26 30 31 32 29 29 32 30 27 26 27 28 28 29 29 30 29 29 30 30 30 30 32 31 31 30 31 32
26 28 26 26 23 22 21 27 27 25 28 27 27 28 25 27 27 24 20 22 24 23 27 25 25 28 30 31 30 29 28 30 31 30 28 29 31 31 29 27 29 29 30 30 29 28 27 28 30 31 31 30 31 31
25 26 25 25 26 26 24 24 25 22 23 24 24 24 27 29 28 25 22 22 23 22 23 27 26 26 27 27 27 30 30 32 30 23 26 26 28 27 31 32 32 32 30 31 31 31 30 29 29 30 31 32 32 33

GFSWCAN_con_lsi_087.txt.gz
Lid_Strength_Index
4 3 3 3 3 2 2 3 3 3 3 2 2 2 2 1 0 1 2 2 5 11 10 7 7 9 8 9 12 10 10 10 9 12 13 13 14 12 13 12 13 14 15 16 15 17 18 8 9 13 10 8 8 8
4 4 3 3 3 2 3 3 3 3 2 2 2 2 2 1 1 -0 3 2 2 6 9 6 6 5 6 7 9 9 9 8 8 11 11 11 13 14 13 16 10 15 12 14 13 13 9 7 8 6 6 8 8 8
3 4 3 3 2 3 3 3 3 2 2 1 2 2 1 1 1 1 3 3 4 7 8 9 9 6 4 5 5 11 9 6 7 7 8 10 12 10 14 14 12 10 9 12 12 10 9 7 8 7 8 10 10 9
3 3 3 2 2 3 4 3 2 2 1 2 2 1 1 1 1 0 4 3 5 7 11 11 6 8 5 4 5 5 5 4 5 6 8 10 11 9 11 11 11 10 10 11 11 10 9 9 8 9 10 9 11 12
4 3 3 3 3 3 3 2 2 2 2 1 1 1 1 1 0 1 3 3 4 7 13 12 8 5 4 5 6 5 5 6 7 8 9 11 10 9 9 9 12 10 12 13 13 11 11 12 9 9 11 12 13 13
4 3 3 3 3 3 2 2 2 1 1 1 1 1 1 0 2 4 8 3 3 4 9 14 9 7 5 5 6 6 5 6 6 7 8 8 7 8 13 13 12 10 10 9 10 10 11 11 11 11 13 13 14 15
3 3 3 3 3 3 2 2 2 1 1 0 1 0 0 1 2 6 8 6 2 4 9 12 12 7 5 6 7 8 6 6 6 7 9 8 9 8 10 13 12 11 11 10 9 9 11 12 13 12 13 13 14 15
3 3 3 3 2 2 2 2 1 1 1 0 0 0 1 1 2 4 2 2 3 6 7 12 12 9 5 9 8 5 8 7 6 8 7 9 8 9 14 13 13 12 11 11 11 10 11 11 12 13 13 13 15 16
3 3 3 3 2 2 2 2 1 1 1 0 -0 -0 1 4 6 5 1 2 2 6 10 10 13 14 6 7 6 7 8 13 8 11 10 8 11 16 15 14 14 13 13 13 11 11 12 13 14 14 15 15 16 17
3 3 3 2 2 2 1 1 1 0 -0 -0 1 5 9 5 1 2 4 7 7 6 6 10 9 10 7 7 8 8 8 12 12 10 8 13 17 14 13 13 13 13 13 14 14 14 14 15 16 16 17 17 17 18
3 3 3 2 2 1 1 1 1 1 0 3 7 6 3 0 4 6 10 10 9 10 8 8 9 10 5 9 10 9 10 9 13 12 11 15 18 16 14 14 14 14 14 14 15 15 15 15 16 16 17 17 17 18
3 2 2 1 1 1 0 -0 -0 2 4 5 3 2 3 5 7 9 11 10 11 12 11 10 8 7 7 6 9 8 11 10 14 9 15 21 17 15 16 16 16 16 16 16 15 16 16 16 16 17 17 19 19 19
2 1 0 0 0 -0 -0 -0 1 1 1 3 4 6 7 8 11 16 15 12 12 10 9 8 9 8 7 9 10 11 12 14 9 16 21 20 16 15 16 17 17 16 16 16 16 16 16 17 17 18 19 19 19 20
1 1 0 0 0 0 0 0 0 1 4 7 9 14 11 19 17 16 16 12 9 9 8 8 9 10 9 12 11 12 12 13 19 23 23 20 17 16 16 16 18 20 20 21 22 22 22 22 22 21 21 21 21 22
2 2 2 2 2 2 2 2 3 5 9 10 11 18 18 16 14 11 10 9 9 8 8 9 10 11 14 14 15 17 18 21 20 23 23 21 18 18 19 18 20 21 23 23 24 22 23 22 20 21 19 19 19 20
2 3 3 2 2 3 3 4 5 6 9 11 12 13 13 16 14 13 11 10 9 8 8 9 13 16 17 17 18 21 18 21 23 23 21 20 18 22 21 20 21 22 22 23 23 22 22 23 23 22 20 20 21 21
3 5 3 3 3 3 3 6 8 9 11 13 15 14 18 19 17 13 12 12 10 10 14 15 19 17 15 19 21 21 25 26 20 21 20 22 21 20 20 21 21 20 20 21 21 20 21 20 20 19 20 19 18 19
6 4 3 2 4 5 6 7 10 11 14 14 15 15 17 17 17 13 13 12 11 13 14 17 15 20 23 22 26 24 22 20 21 20 21 22 23 23 20 20 21 20 20 21 20 20 19 18 17 18 17 17 17 17
5 4 3 2 4 7 10 10 10 14 14 14 13 14 14 15 13 14 14 14 13 13 14 17 21 23 25 24 23 22 21 20 19 22 21 22 22 20 20 19 19 20 19 19 16 17 16 15 15 15 15 15 16 17
3 3 3 3 4 9 10 10 9 12 15 14 12 13 13 14 14 17 15 14 13 15 20 22 23 20 18 18 21 20 22 19 18 20 19 21 21 20 21 19 20 17 16 15 15 15 15 16 16 16 16 16 17 18
4 5 4 5 8 8 9 11 12 12 12 14 12 13 15 14 16 18 17 15 18 19 20 19 20 18 18 18 17 17 18 17 20 19 20 20 20 19 18 18 17 18 19 20 20 19 19 20 20 19 24 26 25 23
6 4 7 7 9 10 11 11 12 12 12 12 12 12 16 20 20 19 15 19 19 19 19 18 18 18 17 18 18 17 17 16 18 19 19 18 19 19 19 21 18 20 18 20 18 22 21 19 19 20 25 27 24 21
4 6 9 9 12 13 15 10 14 12 17 15 14 17 19 20 17 14 20 18 19 19 18 17 16 16 16 16 15 15 15 16 18 18 19 20 21 22 22 22 22 22 23 21 19 21 22 22 22 23 25 25 25 27
7 10 12 14 13 15 15 17 12 13 14 15 17 19 18 18 16 21 23 23 20 17 18 17 17 18 18 17 19 18 18 17 19 19 20 19 21 22 21 20 21 21 19 18 19 22 23 27 26 24 27 28 29 26
14 16 16 20 16 18 20 20 18 17 20 19 20 22 20 17 24 26 24 23 22 23 22 18 17 18 20 22 21 20 18 17 19 20 20 20 22 21 20 19 20 19 19 23 24 26 27 30 30 28 26 28 21 23
21 21 19 20 20 18 19 21 22 21 21 23 23 20 20 25 28 28 22 23 26 24 25 21 21 20 20 19 20 21 20 19 18 21 21 19 20 23 24 24 24 22 20 26 26 26 24 27 28 27 28 26 27 29
24 23 16 15 15 15 20 19 17 21 24 24 22 25 27 31 31 23 20 21 20 22 18 17 16 18 20 21 20 21 21 20 20 20 20 20 20 21 24 25 23 20 20 25 27 27 25 24 25 28 29 30 30 29
19 19 21 23 23 21 26 25 25 26 25 20 23 30 30 27 25 21 21 21 19 17 18 18 18 18 20 21 23 22 24 23 22 22 22 22 23 26 27 27 25 20 27 29 29 30 29 27 26 25 26 25 27 29
24 21 22 27 26 25 25 27 25 21 20 22 29 29 25 20 22 22 20 22 20 18 20 21 24 23 24 25 27 26 28 26 26 29 30 31 31 26 29 29 29 29 30 27 23 25 24 25 28 29 28 28 26 30
23 21 26 29 28 27 28 26 26 25 22 23 21 20 21 20 18 19 20 21 22 24 26 23 26 24 28 27 31 29 32 35 30 26 29 32 27 28 29 27 27 29 32 31 29 28 23 28 26 29 31 31 33 32
22 26 29 27 26 26 25 27 22 24 28 27 27 25 24 22 19 19 22 27 24 23 23 28 30 32 28 32 33 32 31 31 34 32 31 30 31 30 30 31 32 33 33 32 32 32 32 32 34 33 32 31 31 33
29 31 28 28 25 25 25 30 28 28 29 27 26 28 27 28 28 24 21 24 25 26 29 27 26 28 33 34 34 33 29 30 32 31 31 32 32 33 32 31 33 33 32 32 33 32 31 30 32 33 33 31 31 32
29 31 29 26 27 26 26 25 27 25 27 27 27 28 32 31 29 26 23 24 24 24 26 31 32 30 29 28 28 32 32 34 33 25 28 28 30 29 33 35 35 34 32 33 34 34 32 31 31 32 32 33 32 34

GFSWCAN_con_lsi_090.txt.gz
Lid_Strength_Index
3 3 4 3 4 4 3 3 2 2 3 3 3 2 2 1 1 2 3 2 5 9 10 8 8 10 10 10 13 11 11 11 10 13 13 13 14 12 13 12 13 14 15 16 14 16 18 8 9 13 10 7 8 9
3 3 3 3 3 3 3 3 2 3 3 3 3 2 1 2 2 1 4 2 2 6 8 6 6 6 7 7 9 10 10 11 8 12 11 11 13 13 12 16 10 16 12 14 13 13 9 8 9 8 7 9 9 9
3 3 3 3 3 3 3 2 3 3 3 3 2 2 1 2 1 2 3 3 4 6 6 8 8 6 5 6 5 11 10 7 7 7 10 10 12 10 14 13 11 11 8 12 12 10 10 8 8 9 10 11 10 10
3 3 3 3 3 3 3 3 3 3 3 2 2 2 1 1 1 1 3 3 4 6 11 10 6 7 6 5 6 7 7 6 6 6 8 10 11 8 11 10 11 10 9 12 11 10 10 10 10 9 10 10 12 13
3 3 3 3 2 3 2 3 3 3 2 2 2 1 1 1 1 1 2 3 3 6 12 11 8 7 6 6 6 6 6 7 7 8 9 10 9 9 9 9 13 10 12 14 13 11 11 12 11 11 13 13 13 13
3 3 3 3 3 2 2 3 3 2 3 2 1 1 1 1 1 4 8 3 3 4 8 14 9 8 7 7 7 8 7 6 5 7 8 8 7 9 12 15 11 10 10 10 10 10 11 11 12 12 14 14 15 15
3 3 3 3 3 2 3 3 2 2 2 1 0 1 0 0 2 5 8 5 2 4 9 13 13 8 7 8 8 8 6 6 6 7 8 10 10 7 10 12 12 11 11 11 10 10 11 12 14 13 13 14 14 15
3 3 3 3 3 3 3 2 2 2 1 1 0 0 0 1 2 4 2 2 3 6 7 12 13 10 6 9 9 7 9 8 7 7 7 9 8 9 14 13 12 12 12 12 12 11 12 12 13 14 13 14 16 16
3 3 3 3 3 3 2 2 2 1 1 0 0 -0 2 4 6 5 1 2 2 6 11 12 14 15 5 7 6 6 8 12 9 10 10 10 12 13 16 14 13 13 14 15 13 12 13 14 15 15 15 15 16 17
3 3 3 2 2 2 2 2 2 1 1 0 2 5 9 5 1 2 5 7 7 6 7 10 10 13 7 8 8 9 10 14 13 11 9 11 17 14 14 14 14 14 14 14 14 14 15 15 16 17 17 17 17 19
3 3 3 3 3 2 2 2 1 1 1 3 7 7 4 1 4 6 9 10 10 10 9 8 10 11 7 9 10 8 11 13 15 12 11 15 17 15 14 14 14 14 14 14 15 15 15 15 16 17 17 17 18 19
2 3 3 3 2 2 2 2 1 2 3 5 4 2 3 6 7 9 12 10 11 13 11 10 9 8 7 6 10 9 10 10 14 9 14 19 17 15 15 16 15 16 16 16 15 16 16 16 16 17 18 19 20 20
3 3 3 3 3 2 1 1 1 1 2 2 4 7 7 8 12 16 16 12 12 10 12 8 9 7 8 8 10 9 12 15 10 17 17 20 16 15 16 17 17 16 16 16 17 17 17 18 18 18 20 21 21 22
4 3 3 1 0 0 1 1 1 1 3 7 9 12 12 14 16 15 15 14 12 9 8 8 9 9 9 10 10 13 15 13 18 22 21 20 17 16 16 17 18 22 22 22 23 22 23 22 24 24 26 26 24 24
2 1 1 0 -0 -0 0 1 2 4 7 9 11 15 17 16 15 11 9 9 8 8 11 9 10 11 15 16 14 16 15 18 19 22 24 20 18 17 19 18 20 21 24 24 25 24 25 24 22 22 22 22 22 23
2 2 3 2 2 2 2 3 5 6 9 11 14 15 13 12 12 11 10 10 8 8 12 10 12 15 18 18 18 20 18 20 22 23 21 20 21 23 23 22 23 23 23 24 24 22 22 23 23 23 21 21 23 23
3 5 2 2 2 3 3 6 7 9 11 13 17 15 18 17 16 14 11 11 9 10 17 14 18 18 15 21 21 21 22 23 21 21 22 23 21 22 25 24 24 22 22 23 23 21 22 21 20 19 20 19 19 20
5 3 3 3 3 4 6 7 10 11 14 13 15 16 18 19 18 13 13 11 11 12 14 17 14 21 24 21 24 25 24 23 23 22 24 25 26 25 22 22 22 21 21 21 20 21 20 20 19 20 18 17 17 17
4 4 3 2 4 6 9 9 9 14 14 13 12 14 15 15 13 14 13 13 13 13 14 17 22 23 25 26 26 25 22 23 20 23 23 24 23 21 21 21 20 20 19 19 17 18 17 16 16 16 16 16 17 17
3 3 3 3 4 8 10 10 9 12 14 13 12 13 13 14 14 17 15 13 14 16 19 22 24 25 21 21 22 21 23 20 19 20 21 21 20 21 22 19 18 17 17 17 18 18 17 17 17 17 18 18 18 18
4 4 4 6 8 8 10 11 12 12 12 13 12 13 15 14 16 17 17 15 18 19 22 22 21 17 19 20 18 18 18 17 21 20 21 19 21 20 20 20 18 18 20 21 21 21 21 21 21 20 25 28 27 25
6 4 8 7 10 10 11 11 12 12 12 12 13 13 17 20 21 18 16 19 20 21 21 19 17 18 18 18 19 18 18 18 18 19 19 19 20 20 21 22 19 21 19 21 19 23 22 20 21 22 25 28 25 23
5 6 9 9 12 13 15 10 14 12 16 14 14 17 19 20 17 15 21 19 19 19 18 18 17 16 17 16 16 16 15 16 18 19 20 21 22 24 23 23 23 24 23 22 20 21 22 23 23 26 26 25 25 27
7 11 14 15 13 16 16 17 12 13 14 17 18 20 20 20 18 21 23 23 20 18 18 17 17 18 18 18 20 19 18 18 20 20 20 20 22 23 22 21 21 22 21 20 20 23 24 28 28 25 27 27 29 26
12 15 15 18 15 18 21 23 20 18 23 21 22 23 21 18 24 27 25 23 21 22 22 19 18 19 21 23 22 21 18 18 19 21 21 21 23 22 21 21 21 21 21 26 26 26 27 30 31 29 27 30 25 26
19 19 18 20 20 20 20 23 24 23 23 24 24 20 23 26 28 29 23 23 26 24 26 22 22 20 20 20 21 21 21 20 19 21 21 20 21 24 26 26 25 23 22 27 27 27 25 25 27 26 28 27 29 30
22 22 16 15 16 16 21 21 18 22 26 25 25 27 27 30 31 24 21 22 21 23 19 18 17 18 20 21 21 22 22 21 21 21 21 21 22 22 24 26 25 22 22 25 28 28 27 26 25 25 26 29 31 30
20 20 22 25 24 22 28 28 28 28 26 20 23 30 30 28 26 23 22 21 20 18 19 19 18 19 21 22 23 23 25 24 23 23 23 23 24 27 29 29 27 22 28 30 30 31 30 29 29 29 29 27 26 29
24 22 22 29 27 26 25 28 26 22 21 23 30 30 26 22 24 23 19 22 20 19 21 23 26 25 25 26 28 27 28 27 27 29 30 31 32 27 30 31 31 31 33 29 25 26 27 26 28 30 30 30 28 30
25 22 27 31 31 29 29 26 27 27 23 24 22 22 22 23 20 20 20 22 23 25 29 25 28 26 28 27 31 29 33 35 30 26 28 31 29 30 32 30 30 32 34 32 31 29 24 29 27 31 32 32 34 34
23 27 29 28 29 27 27 29 27 28 31 30 29 28 27 23 20 20 23 25 25 24 24 28 30 34 29 33 34 33 31 32 35 33 33 33 34 34 33 33 34 36 35 33 33 33 33 33 34 33 33 32 30 34
31 33 29 30 28 26 28 32 30 29 30 29 29 30 28 27 27 23 23 27 26 26 29 27 27 29 34 35 37 35 30 29 33 33 33 34 35 35 34 33 36 35 34 34 34 34 33 31 32 33 33 30 29 30
33 33 32 28 28 29 28 29 29 28 30 30 29 31 33 29 27 26 24 25 25 25 26 30 34 32 33 33 31 33 32 35 34 27 30 30 32 31 36 37 36 35 32 33 34 35 32 32 32 33 32 33 31 31

GFSWCAN_con_lsi_093.txt.gz
Lid_Strength_Index
3 3 2 3 3 3 3 3 3 3 3 2 3 3 2 2 2 2 4 3 5 8 8 7 7 9 9 9 12 10 10 10 10 12 12 13 13 12 13 11 13 13 14 15 14 16 18 8 8 12 9 8 8 9
3 3 3 3 3 3 3 3 3 3 2 3 3 3 2 2 1 1 5 3 2 5 7 5 5 5 6 6 8 9 10 10 9 11 11 11 12 12 13 15 9 14 12 13 13 14 9 8 9 9 8 10 10 10
2 2 3 3 3 3 3 3 3 3 2 3 3 3 2 2 1 2 4 4 4 7 6 6 7 4 4 5 4 9 8 7 8 7 10 10 12 10 13 12 11 10 8 11 11 10 11 10 9 9 10 12 12 10
2 2 3 3 3 3 3 3 2 2 3 3 3 2 2 2 1 2 4 3 4 6 9 9 5 6 4 4 5 5 6 5 5 6 9 10 11 8 11 10 11 10 9 12 11 11 10 11 11 11 11 11 12 12
2 2 2 2 2 3 3 3 2 2 3 3 2 2 2 1 1 1 2 3 2 5 10 9 6 5 5 6 6 5 5 6 7 8 9 10 8 9 9 9 11 10 12 13 13 11 12 13 12 12 13 14 14 13
2 2 2 2 2 3 2 2 2 2 2 2 2 2 1 1 1 3 8 3 2 3 8 11 7 7 7 7 7 7 6 6 6 7 8 7 5 8 11 12 11 10 9 10 11 10 12 12 12 12 14 14 14 15
2 2 2 2 3 3 2 2 2 2 2 2 2 1 0 0 2 5 6 4 2 4 9 11 11 7 7 7 8 8 7 6 5 7 8 8 7 7 10 11 11 10 11 11 11 10 12 13 14 13 14 14 15 15
2 2 2 2 3 3 2 2 2 2 2 2 1 0 0 0 2 4 2 2 2 6 7 12 12 9 6 9 9 7 7 6 6 7 7 8 7 8 11 12 12 12 11 12 11 11 12 12 13 14 13 14 15 16
2 2 2 2 3 2 2 2 2 2 2 1 0 0 2 3 5 4 1 2 2 6 10 10 12 12 5 7 6 6 6 9 6 9 9 8 10 11 13 13 13 13 14 14 12 12 13 14 15 15 15 15 16 17
2 3 3 2 2 2 2 2 2 2 1 1 1 5 8 5 1 2 4 7 7 6 6 10 9 11 6 7 8 8 8 9 12 9 7 10 12 13 13 13 13 13 13 13 13 14 14 15 15 16 17 17 17 18
3 3 3 3 3 2 2 2 2 2 1 4 7 7 3 1 4 6 9 10 10 10 9 9 9 9 5 9 9 8 10 10 12 11 11 12 14 14 13 14 14 14 14 14 14 14 14 14 15 16 17 17 17 18
3 3 2 2 2 2 2 2 2 2 3 4 3 2 3 6 7 10 12 10 11 12 9 10 9 8 6 6 8 8 10 10 13 8 11 15 15 14 14 15 15 15 15 15 15 16 16 16 16 17 18 18 18 19
2 2 3 2 2 2 2 2 2 1 2 2 4 6 7 8 11 14 16 12 12 10 10 9 9 7 8 7 8 9 12 12 9 12 14 17 15 15 15 16 17 16 16 16 17 17 17 18 17 18 20 20 20 21
3 2 2 2 2 3 2 2 1 1 3 7 8 11 12 14 13 14 12 12 11 11 10 8 9 8 8 9 9 12 11 11 14 16 16 16 16 16 16 16 18 20 20 20 20 20 21 21 21 22 22 22 21 21
4 4 3 3 3 2 2 2 1 3 6 9 9 12 14 14 14 11 8 8 7 7 9 9 8 9 11 11 12 13 14 15 15 16 18 16 16 16 17 18 19 20 21 21 21 21 22 21 20 20 20 19 20 21
4 2 2 1 1 1 1 2 5 6 8 10 12 14 12 11 11 9 8 8 7 8 10 9 11 13 14 14 14 15 15 16 17 18 18 17 19 19 19 19 21 21 20 20 20 19 19 20 20 19 19 19 20 20
2 4 1 2 2 2 3 6 7 9 10 12 14 14 14 16 15 11 10 10 9 8 11 12 15 15 14 17 17 18 17 18 19 19 18 18 18 19 21 21 21 20 19 19 19 19 19 19 18 18 18 18 17 18
4 3 2 3 4 4 6 7 8 11 14 13 14 14 15 16 14 14 11 10 9 10 12 14 13 16 18 18 18 20 20 20 19 18 19 20 20 21 18 19 19 18 18 19 18 18 18 18 17 17 17 16 16 16
3 3 2 2 4 6 8 9 9 14 14 12 12 13 13 14 13 13 12 11 11 11 13 15 18 18 19 20 21 21 19 18 18 19 19 21 19 18 19 18 18 18 18 17 16 16 16 16 15 14 14 15 15 15
3 2 2 2 4 7 10 11 8 12 14 12 11 13 13 14 13 13 13 12 13 14 16 18 20 20 20 19 19 17 19 17 17 18 18 18 18 17 17 17 16 16 16 16 15 16 15 15 15 15 15 16 15 15
4 4 4 6 7 8 10 11 12 11 12 13 12 12 14 13 15 15 15 14 16 18 19 20 19 17 18 17 17 17 16 16 17 17 18 18 17 16 17 16 15 15 16 16 16 16 16 16 16 16 16 17 17 16
6 4 8 7 9 9 10 10 12 11 12 12 12 13 16 17 17 16 15 17 19 19 18 17 16 17 17 17 17 16 16 17 17 17 18 17 17 17 17 17 16 16 16 16 16 16 16 16 16 17 16 17 18 16
5 6 9 9 12 13 14 9 14 12 15 14 14 16 17 17 16 15 19 18 19 17 16 16 16 16 16 15 15 15 15 16 17 18 18 19 19 19 18 18 18 18 17 17 16 16 16 21 19 17 17 16 16 16
7 12 14 15 13 18 15 16 12 13 13 16 17 19 18 18 17 20 22 21 18 16 17 17 16 17 17 17 18 18 17 17 18 19 19 18 19 20 19 19 19 18 17 17 17 17 18 18 22 17 18 17 18 18
14 17 16 19 15 18 20 22 20 18 22 22 21 22 21 18 22 24 22 20 19 18 18 17 17 17 19 20 19 19 18 17 18 19 19 18 20 19 20 19 19 19 18 17 18 18 18 20 19 19 18 18 17 18
19 19 18 20 20 19 19 22 23 22 22 24 22 20 21 22 25 25 22 21 21 20 21 19 19 19 19 18 19 19 19 18 18 19 20 19 19 20 20 20 19 19 19 19 18 17 18 19 19 19 18 19 24 21
21 21 16 16 16 17 21 20 18 21 24 24 22 24 24 28 27 23 20 20 19 19 18 17 16 17 19 20 20 20 20 20 19 20 21 21 21 21 20 19 20 19 19 20 19 18 18 19 19 19 19 19 20 20
19 19 21 24 23 21 27 27 27 27 24 20 23 28 27 27 25 21 20 20 19 18 19 20 19 18 19 21 22 22 23 23 23 22 21 21 22 23 23 22 22 22 22 22 20 22 20 19 19 20 20 20 20 21
24 21 22 28 26 25 25 27 26 22 21 22 27 27 25 22 22 22 19 20 19 19 21 22 24 24 24 25 26 24 23 22 22 25 25 23 24 22 24 24 23 23 23 20 22 21 20 20 19 19 20 21 21 23
25 22 27 31 30 28 27 25 25 24 23 23 22 22 23 23 21 20 19 20 20 22 23 23 25 23 24 24 25 25 28 28 25 22 23 23 22 24 25 23 23 24 24 21 21 20 21 20 20 21 21 21 20 21
24 26 28 28 28 26 26 27 27 28 29 28 29 28 26 22 21 21 23 23 23 23 24 26 27 27 25 26 25 25 25 26 31 29 27 26 26 25 25 26 26 26 24 23 23 22 22 22 22 22 21 21 22 23
31 33 30 30 28 26 27 30 30 27 27 25 27 30 27 25 26 23 23 22 23 23 25 24 23 24 28 29 29 28 29 27 28 27 26 26 26 27 27 26 28 26 24 24 24 24 24 23 23 23 23 23 24 24
34 34 33 30 29 29 29 28 28 27 28 27 28 31 31 28 26 24 23 24 23 23 24 26 28 28 28 27 26 28 29 29 28 24 26 28 31 28 27 27 26 25 24 23 24 25 24 24 23 24 24 25 25 25

GFSWCAN_con_lsi_096.txt.gz
Lid_Strength_Index
2 2 2 2 3 3 3 3 3 3 3 3 3 3 3 2 2 2 3 2 5 7 5 5 5 6 6 7 9 7 7 7 7 10 11 11 12 11 11 11 12 12 13 13 12 15 17 10 7 11 10 9 9 10
2 2 2 2 3 3 3 3 3 3 3 3 2 3 3 3 2 1 4 3 3 6 6 3 2 2 3 4 6 5 8 8 7 9 9 10 12 10 11 14 8 13 11 13 13 13 10 10 11 10 10 11 10 10
2 2 2 3 3 3 2 3 3 3 3 3 3 3 3 2 2 1 2 3 4 7 5 5 4 2 1 2 2 7 5 6 6 6 9 10 12 8 12 12 11 9 8 11 11 10 11 10 10 10 10 11 11 10
2 2 2 2 2 2 2 2 3 3 3 2 2 3 3 2 2 1 2 2 4 5 8 6 2 3 2 2 2 3 4 4 4 5 7 10 10 6 9 9 10 8 8 10 11 10 10 10 11 10 11 10 11 11
2 2 2 2 3 2 2 3 3 3 3 2 3 3 2 2 1 1 1 1 2 5 8 6 3 2 2 3 4 3 4 5 5 6 7 8 6 7 7 8 9 8 11 11 12 10 10 12 11 11 12 12 12 11
2 2 2 2 2 2 2 3 3 2 2 2 2 2 2 1 1 2 7 2 1 1 7 8 3 4 4 4 5 5 5 5 5 6 7 7 5 7 10 11 9 9 9 9 11 10 11 11 11 11 12 12 12 12
1 1 2 2 2 2 2 2 2 2 2 2 2 2 2 1 1 5 5 2 1 2 8 8 8 5 5 5 5 5 5 5 5 5 6 6 6 6 8 11 10 9 9 9 9 9 11 11 12 11 12 12 13 13
1 1 1 1 2 2 2 2 2 2 2 2 2 2 1 1 1 4 1 1 2 6 6 9 9 7 5 7 7 4 6 6 5 6 6 7 5 6 10 9 9 9 10 10 10 9 10 11 11 12 12 12 13 14
1 1 1 1 1 1 2 2 2 2 2 2 1 1 1 3 5 4 1 1 1 5 8 9 10 10 5 6 6 6 5 9 4 8 7 6 8 10 11 9 10 10 10 11 10 11 11 12 13 13 13 13 14 15
1 1 1 1 1 2 2 2 1 2 2 1 2 5 8 4 0 2 4 7 6 5 5 9 5 8 6 7 8 8 6 8 10 8 6 9 9 11 11 10 11 11 11 11 11 12 12 14 14 14 15 15 15 16
2 2 2 2 2 2 2 1 2 2 2 4 7 6 3 1 3 5 8 9 8 9 7 7 7 7 4 8 8 6 8 7 11 9 9 10 11 12 11 12 11 11 11 11 12 12 13 13 14 14 15 15 15 16
2 2 2 2 2 2 2 2 2 2 4 4 3 2 3 5 7 8 10 9 10 10 7 9 8 5 5 5 7 7 9 8 12 7 10 12 13 12 12 13 13 12 12 13 13 13 14 14 14 14 15 16 16 17
2 2 2 2 2 2 2 2 2 2 2 2 4 7 6 7 10 11 13 11 10 8 7 7 9 6 6 6 8 8 11 11 7 11 11 11 13 12 13 13 14 13 14 14 15 15 15 15 15 16 17 17 17 18
2 2 2 2 2 2 2 2 2 2 4 6 8 10 10 11 9 9 8 8 6 6 7 6 8 8 7 9 9 11 9 9 12 13 13 13 13 14 14 14 15 17 17 17 17 17 18 18 18 18 18 18 18 19
2 2 2 2 2 2 1 1 1 3 6 7 7 11 10 8 8 8 6 6 7 5 6 7 7 6 8 10 9 10 12 13 12 12 12 13 13 14 15 15 16 17 18 17 17 18 18 18 17 18 17 17 17 18
3 3 3 2 2 2 2 2 5 5 6 7 9 10 9 8 9 8 7 7 5 5 4 5 9 10 10 9 12 12 12 13 12 13 13 13 15 15 16 16 17 16 16 16 16 16 16 17 16 16 16 16 17 17
3 5 3 3 3 2 2 6 6 8 8 11 10 9 8 7 8 8 7 7 5 6 10 7 11 11 9 11 12 11 11 13 14 13 13 13 14 16 16 17 17 16 16 15 15 15 15 15 15 15 15 15 14 15
5 2 1 1 2 3 6 5 8 9 12 10 10 10 9 9 9 8 7 7 6 7 7 9 8 11 11 12 11 13 14 14 13 13 13 14 15 15 14 15 15 15 15 15 15 15 15 15 14 13 14 14 14 14
3 3 2 2 4 6 8 8 8 12 11 10 10 10 9 10 9 9 8 9 7 8 9 9 11 10 11 12 13 14 13 13 14 14 15 14 14 15 15 15 15 15 15 15 14 13 13 14 13 13 12 12 13 12
2 2 3 3 3 6 9 9 6 10 11 10 9 10 10 10 10 9 9 9 9 9 10 12 12 12 12 13 12 12 12 12 13 14 15 14 13 14 14 13 13 13 13 14 13 14 13 13 12 12 12 12 12 12
3 4 3 3 5 6 8 9 9 9 9 10 10 10 11 10 10 10 10 10 10 12 13 13 13 13 13 13 12 12 13 12 12 12 13 14 13 13 13 13 13 12 13 13 13 13 14 12 12 12 12 12 12 11
4 3 4 4 7 8 9 8 9 8 9 10 10 10 11 11 11 11 11 12 13 13 13 13 13 13 14 13 13 12 12 13 13 13 14 14 14 14 14 13 13 13 13 12 12 12 12 12 12 11 11 11 13 10
3 4 6 7 9 9 11 7 10 10 12 12 11 12 12 12 12 11 14 14 14 13 13 13 13 12 13 13 13 13 13 13 13 13 13 13 13 13 13 13 12 13 13 12 12 12 12 16 14 12 11 11 11 11
6 9 10 10 10 13 10 11 9 11 11 12 13 15 14 13 13 13 15 14 14 14 14 14 13 14 13 13 14 14 13 13 14 14 13 14 14 15 14 14 14 13 13 12 12 12 12 12 16 12 12 12 12 13
10 13 12 14 12 13 13 13 13 13 15 14 15 15 15 13 15 16 16 16 15 14 14 13 13 13 13 14 14 15 14 13 14 15 15 14 15 15 15 15 15 14 13 13 13 13 13 13 13 13 13 13 13 13
15 15 14 14 13 13 13 15 15 15 15 16 16 14 14 15 17 17 16 15 15 14 14 13 13 14 14 13 15 15 15 14 14 15 16 15 15 14 14 15 15 14 14 14 14 14 14 14 14 15 14 14 17 16
16 16 14 14 13 13 14 14 14 14 16 17 16 17 16 18 18 18 16 15 14 13 13 12 12 13 15 16 16 16 15 15 15 16 17 17 17 16 15 15 17 15 15 15 15 15 15 15 15 15 14 13 13 14
16 16 16 18 17 16 18 18 18 19 18 16 16 19 18 19 19 17 16 15 14 13 14 15 14 14 15 16 16 17 18 18 18 18 18 17 17 17 18 17 17 19 16 17 15 15 15 15 15 15 15 15 15 14
17 16 17 22 20 20 20 20 19 18 18 17 18 20 20 19 19 17 16 15 14 14 16 17 18 17 18 18 18 17 17 16 18 20 20 18 17 18 17 16 16 16 16 15 19 16 15 15 15 15 15 15 15 15
19 17 20 22 23 22 20 19 19 19 19 18 18 19 19 19 18 16 16 15 15 15 16 16 17 17 18 18 20 20 19 19 19 17 17 18 17 17 17 17 17 17 16 16 15 15 16 15 15 15 16 15 15 15
18 18 20 20 21 20 19 20 19 19 19 19 19 19 20 19 18 18 19 18 18 18 18 19 19 18 18 19 18 19 20 21 23 21 19 19 18 18 18 19 18 17 17 16 16 16 17 16 16 16 17 17 17 18
20 22 22 23 22 20 19 18 19 20 19 19 20 19 19 18 20 19 20 18 18 18 19 18 19 19 19 20 20 20 21 21 21 21 20 19 19 19 19 19 19 18 17 17 17 17 18 18 18 17 18 18 19 20
22 21 21 21 22 22 21 20 20 21 20 20 20 21 22 20 21 20 19 19 17 17 18 19 19 20 21 21 21 22 22 22 22 22 23 23 23 21 19 18 18 18 19 18 17 18 19 19 19 20 20 21 21 21

GFSWCAN_con_lsi_099.txt.gz
Lid_Strength_Index
3 3 3 3 3 3 3 3 3 3 3 3 3 3 3 3 2 2 3 2 4 6 5 4 3 5 5 5 8 6 6 6 7 10 10 11 12 10 11 10 11 12 14 13 12 13 17 11 8 12 12 10 10 10
2 3 3 3 3 3 3 3 3 3 3 3 3 3 3 3 2 2 4 2 2 5 5 2 1 1 2 2 4 5 7 7 7 9 9 10 11 10 10 15 8 13 11 13 12 13 11 10 11 11 10 11 10 10
2 2 2 2 3 3 3 3 3 3 3 3 3 2 3 3 2 2 3 2 4 6 5 4 4 1 -0 0 0 6 4 4 6 4 8 9 11 8 12 11 10 9 7 11 11 11 10 10 9 10 9 10 9 9
2 2 2 2 2 3 3 2 3 3 3 3 3 2 2 3 2 2 2 2 3 5 7 5 1 2 0 0 1 1 3 2 3 4 8 9 10 6 9 9 9 8 8 9 11 10 10 10 10 10 9 9 9 9
2 2 2 2 2 2 2 2 3 3 3 2 2 2 2 2 2 1 0 1 1 4 8 6 2 1 1 1 2 2 3 4 5 6 6 8 6 7 6 7 10 8 10 11 12 10 10 11 10 10 11 11 10 10
2 2 2 2 2 2 2 2 2 2 2 2 2 2 3 2 2 1 6 1 0 1 4 8 2 3 2 2 3 4 3 4 5 6 6 5 4 7 10 10 9 8 7 8 10 9 10 10 10 10 11 11 10 10
2 2 2 2 2 2 2 2 2 2 2 2 2 2 2 2 1 4 5 3 0 1 6 8 6 3 3 3 4 5 4 6 6 7 6 6 6 6 8 10 8 8 8 8 7 8 10 10 10 10 10 11 11 11
1 1 1 2 2 2 2 2 2 3 2 2 2 2 2 2 2 4 1 1 1 5 6 8 7 6 3 7 7 5 6 6 6 6 6 7 5 6 10 7 7 7 8 8 8 8 9 9 9 10 10 10 11 12
1 1 1 1 2 1 2 2 2 2 2 2 2 2 3 4 5 3 1 1 1 5 8 8 9 10 4 6 5 5 6 8 4 8 7 5 7 10 9 8 8 8 9 9 9 9 10 10 11 11 11 12 12 13
1 1 1 1 1 1 1 2 2 2 2 2 2 5 7 4 0 2 4 6 6 6 5 8 5 8 5 6 7 7 6 8 10 8 5 8 8 8 8 9 9 9 9 9 10 11 11 12 12 12 13 13 14 15
1 1 1 0 0 1 1 1 1 1 1 3 6 6 2 0 3 5 7 8 7 9 7 7 6 7 4 8 9 6 8 7 10 9 9 10 10 11 9 10 9 9 9 9 9 10 10 10 11 12 13 14 14 15
1 1 1 0 1 1 1 1 1 1 2 3 3 2 3 5 6 8 9 8 9 9 6 8 7 5 5 3 6 6 9 8 12 7 10 12 11 10 10 11 11 10 11 11 11 11 12 12 12 13 14 14 15 16
2 1 1 1 1 1 1 1 1 1 1 3 5 7 6 7 11 11 12 10 10 7 6 6 8 6 5 5 8 8 11 11 6 11 11 11 11 11 11 11 12 11 12 12 13 13 13 14 14 14 16 16 16 17
1 1 1 1 1 1 1 1 1 1 5 7 7 10 10 10 9 8 8 7 6 6 6 6 7 7 6 9 9 11 9 8 12 13 14 11 11 12 12 13 14 15 15 15 15 15 16 16 17 17 17 17 17 17
1 1 1 2 1 1 1 1 1 3 6 7 7 11 10 7 6 6 6 6 5 4 5 6 6 6 8 9 9 10 12 13 11 12 11 11 12 12 13 13 14 16 16 15 15 16 17 16 16 16 16 15 16 17
2 2 2 1 1 1 1 2 4 5 6 6 7 8 7 8 8 8 7 7 4 5 4 5 8 9 10 9 11 12 12 13 11 11 11 12 13 13 14 14 15 15 14 14 15 15 15 16 16 15 15 15 16 16
2 3 2 1 1 1 2 3 5 6 6 9 9 7 7 7 8 7 6 6 4 6 10 7 10 11 8 10 11 8 11 11 11 12 11 12 13 14 15 15 15 14 14 14 14 14 15 14 14 14 14 14 14 14
3 2 2 1 1 3 4 5 6 7 11 8 9 9 8 7 7 7 6 4 5 6 6 8 6 10 11 12 11 10 11 11 11 12 12 12 13 13 13 13 14 14 14 14 14 14 14 14 13 12 13 13 13 12
3 2 2 2 2 4 6 6 5 10 10 9 9 8 8 8 7 6 6 5 4 4 4 6 9 9 9 9 9 10 11 11 13 12 13 12 12 13 13 13 14 13 14 13 13 12 12 13 12 12 11 11 11 11
2 2 2 2 2 5 8 8 4 8 9 9 8 8 8 8 8 7 7 7 6 5 7 8 8 9 9 10 8 9 10 10 11 13 13 13 12 13 13 13 12 13 13 13 12 13 12 12 11 11 11 12 12 11
3 2 2 3 4 5 6 7 8 8 9 9 8 8 10 8 8 8 8 7 7 7 8 8 9 11 10 9 9 9 10 10 10 10 11 13 12 12 12 12 12 12 12 11 12 12 13 12 11 11 11 11 11 10
4 3 5 4 6 7 8 6 7 7 8 9 9 8 9 9 9 8 7 8 8 9 8 9 10 11 11 11 11 10 10 11 10 10 11 11 12 12 13 12 12 12 12 11 11 11 11 11 11 11 11 11 11 10
3 3 4 5 8 8 10 5 8 8 10 10 8 10 10 10 9 8 9 8 10 9 9 10 10 10 11 11 11 11 11 11 11 11 11 11 12 12 12 12 11 12 12 11 11 11 11 15 12 12 11 11 10 10
4 7 8 8 8 11 8 9 8 9 9 10 11 12 11 10 9 10 10 10 11 11 11 11 11 12 12 12 12 12 11 10 11 12 12 12 13 13 13 13 13 12 13 12 12 12 12 12 14 12 11 11 11 11
9 12 10 12 9 10 11 11 11 11 12 11 12 12 11 10 11 11 12 12 13 12 12 11 11 11 12 11 11 12 11 11 12 13 13 12 13 14 14 13 13 13 13 12 12 12 13 12 12 12 12 11 12 12
13 13 12 11 11 11 11 12 12 11 11 12 12 10 10 11 12 13 12 12 13 12 12 11 11 11 11 11 12 13 13 12 12 14 14 13 13 13 13 14 14 13 13 13 13 14 14 14 13 13 13 12 14 14
13 13 12 11 10 10 11 11 10 10 12 13 12 12 13 14 14 14 13 12 12 12 11 10 10 10 11 12 13 13 13 13 13 14 14 15 15 14 14 14 16 14 14 14 14 15 15 14 14 13 13 12 12 12
13 13 14 14 13 12 14 13 14 15 13 12 11 14 14 14 15 15 14 12 11 12 12 11 11 11 13 13 14 15 15 15 16 15 15 15 15 15 16 15 16 17 15 16 15 15 14 14 14 13 13 13 13 12
14 13 14 19 16 15 16 16 15 15 15 14 14 16 17 17 16 15 14 12 12 13 14 15 15 14 14 14 14 14 14 14 16 18 19 16 16 16 15 15 14 15 14 14 17 16 15 14 14 14 14 14 13 13
16 13 16 18 19 18 17 16 17 16 15 15 15 17 18 17 16 13 13 12 13 13 13 14 14 14 15 15 16 16 15 15 15 15 15 16 16 16 15 15 15 15 15 15 15 14 15 14 13 13 13 13 13 13
14 13 16 16 18 17 17 15 15 15 15 16 14 16 18 18 17 16 15 14 14 14 14 14 14 13 14 15 15 16 17 17 19 17 16 16 16 16 16 17 16 15 15 16 16 15 15 15 14 15 15 15 16 16
15 16 17 19 18 17 15 15 16 17 16 17 17 17 17 16 18 17 17 14 14 14 15 14 15 15 15 16 16 17 17 18 18 18 18 17 17 17 17 16 16 16 16 16 15 15 16 16 16 16 16 17 17 18
16 16 16 17 18 18 17 17 17 18 17 18 18 17 17 16 19 18 16 16 14 14 15 15 16 16 17 17 18 19 19 19 20 21 21 21 21 20 17 16 16 16 17 16 16 16 16 17 18 18 18 19 19 20

GFSWCAN_con_lsi_102.txt.gz
Lid_Strength_Index
3 3 3 3 4 4 5 5 4 5 5 4 3 3 3 4 3 3 2 1 4 6 5 4 4 6 6 6 8 6 7 7 8 11 11 11 12 11 12 10 11 13 14 14 14 15 18 11 9 13 12 10 10 10
3 3 3 3 3 4 4 4 4 4 3 3 3 3 3 4 3 3 4 2 2 6 5 3 2 2 3 3 5 5 6 7 7 9 9 10 12 10 11 15 8 14 11 13 12 14 10 10 11 10 9 11 10 10
2 3 3 3 3 3 3 3 3 3 3 3 3 3 3 3 3 3 3 3 4 7 6 5 5 1 0 1 0 6 5 4 5 4 7 9 12 9 13 12 10 9 7 11 11 11 11 10 9 9 9 10 9 9
2 3 3 3 3 3 3 3 3 3 3 3 3 3 3 3 3 3 3 3 3 5 8 6 1 2 0 0 1 1 3 3 4 4 7 8 10 7 10 9 10 8 8 10 11 10 10 10 10 9 9 9 9 9
2 2 2 2 2 3 3 3 3 3 3 3 3 3 3 3 3 3 2 1 1 4 8 7 3 1 1 1 2 1 2 4 5 7 7 9 7 8 7 7 10 8 11 11 13 10 10 11 10 10 11 10 10 10
2 2 2 2 2 2 3 2 2 3 3 3 3 2 2 3 2 3 6 1 0 1 6 8 3 3 2 2 2 3 3 4 4 6 7 6 5 7 10 11 9 8 8 8 10 9 10 10 9 9 10 11 10 11
2 2 2 2 2 2 2 2 2 2 3 2 2 2 3 2 2 4 5 3 1 1 6 8 7 3 2 3 3 4 4 4 5 6 7 6 6 6 9 11 9 8 7 7 7 8 9 9 10 9 9 10 10 11
1 1 1 2 2 2 2 2 2 2 2 2 2 2 3 2 2 3 1 1 1 4 5 9 8 7 3 6 7 4 7 6 6 7 6 7 6 7 11 8 8 7 7 8 8 8 8 8 9 9 9 10 11 12
1 1 1 1 1 2 2 2 2 2 2 2 2 2 3 3 5 3 0 1 1 5 8 8 10 11 4 5 5 5 5 9 5 8 7 6 8 11 9 8 8 7 8 8 8 8 9 10 10 11 11 12 13 14
1 1 1 1 2 2 2 2 2 2 2 2 3 6 8 4 0 1 3 5 6 6 6 8 5 8 5 6 7 7 6 8 11 8 5 8 10 8 8 8 8 8 8 8 9 10 10 11 12 13 13 13 14 14
1 1 1 1 1 1 1 2 2 2 2 3 7 7 2 0 3 5 7 8 7 9 6 6 6 8 4 8 9 6 9 8 11 9 9 10 11 10 8 9 8 8 8 9 9 10 10 10 11 12 13 13 14 14
1 1 0 0 1 1 1 1 1 2 3 3 3 2 2 5 6 9 9 7 8 9 6 7 7 5 6 4 8 7 9 9 12 7 10 12 11 10 10 10 10 10 10 11 10 11 11 12 12 13 13 15 15 16
1 1 0 0 0 0 0 0 0 1 0 2 5 7 6 7 11 11 12 10 10 7 6 6 8 6 5 5 8 8 11 11 7 11 12 11 10 10 10 11 11 11 11 12 13 13 13 14 14 15 16 16 16 17
1 1 0 0 0 0 0 0 0 1 3 6 7 10 10 10 9 8 8 8 6 6 6 6 7 7 6 8 9 11 9 8 12 13 13 11 11 11 12 12 14 15 15 14 15 15 16 16 17 17 17 17 17 18
1 1 0 0 0 0 0 0 1 1 5 7 7 11 10 7 7 7 6 6 5 5 6 6 7 6 8 10 9 10 12 13 11 13 11 11 12 12 13 13 15 15 15 15 15 16 17 17 16 16 16 16 17 18
1 1 2 1 0 1 0 1 3 3 6 7 7 9 7 8 8 8 7 8 5 5 5 5 8 10 10 9 11 12 12 13 11 12 12 12 13 13 14 14 15 14 14 14 15 15 15 17 16 15 15 15 17 17
1 3 1 1 1 1 1 3 4 6 7 8 8 7 7 7 8 7 6 6 4 6 9 8 10 11 8 10 11 9 11 11 11 12 11 12 13 14 14 14 15 14 14 14 14 15 15 14 14 15 16 15 15 14
2 1 1 1 1 2 3 3 5 6 8 7 8 8 8 7 7 6 6 4 5 6 7 9 7 10 11 12 11 10 11 11 11 11 12 12 13 14 13 14 13 13 14 14 14 14 14 14 14 13 13 12 13 12
1 1 1 1 2 3 5 5 5 8 8 8 8 8 7 7 6 5 5 5 4 4 5 6 9 10 10 9 10 10 11 11 13 13 13 12 12 12 13 13 13 13 14 14 14 13 12 13 13 13 12 12 12 11
1 1 1 1 2 4 7 6 4 7 9 8 7 8 8 8 7 6 6 5 5 5 7 8 9 9 9 9 8 9 9 10 12 14 14 13 13 13 13 13 13 13 13 13 13 14 13 13 12 12 12 13 13 12
2 1 1 2 3 4 5 6 7 7 8 8 8 8 9 7 8 7 7 5 6 7 8 8 9 9 8 8 8 9 10 10 10 11 12 13 12 12 12 12 12 12 13 13 13 13 13 13 12 12 11 12 11 12
3 2 4 3 5 6 7 5 7 6 8 8 8 8 9 9 8 8 6 7 7 8 7 7 9 10 10 10 10 9 10 10 10 10 11 11 12 12 12 12 13 13 13 12 12 12 12 12 12 12 12 12 12 12
3 3 4 5 8 8 9 5 8 8 10 10 8 10 10 9 8 6 9 8 9 7 7 8 8 8 10 10 10 11 10 10 11 11 11 11 11 11 12 12 12 13 13 12 12 13 13 16 13 13 13 12 12 11
3 5 8 8 8 10 7 8 7 9 9 10 10 11 10 10 8 9 10 9 9 8 9 9 9 11 11 11 12 12 11 10 11 11 11 12 13 13 12 13 13 13 14 13 13 13 13 12 15 13 13 13 12 12
9 11 9 10 8 9 10 10 10 10 11 10 11 11 11 9 11 11 10 10 10 9 10 9 10 11 12 12 11 12 10 11 12 13 12 12 13 14 14 14 14 14 13 13 13 13 13 13 13 13 14 14 13 13
12 11 11 10 9 10 10 12 11 11 10 11 10 9 9 10 12 11 10 10 10 10 10 10 10 11 11 11 13 13 12 11 12 14 14 13 13 13 14 14 14 15 13 14 14 15 14 14 15 15 15 14 15 14
12 12 12 10 9 9 10 9 8 9 11 12 11 11 11 13 12 13 10 10 10 10 9 9 9 10 11 12 12 13 13 13 13 13 14 14 14 14 14 15 16 16 14 15 15 15 15 15 15 15 14 13 13 13
12 12 14 12 12 10 12 11 11 12 11 9 10 12 12 13 14 13 12 10 10 10 10 10 10 11 12 13 13 14 15 15 15 14 14 14 14 15 16 16 17 17 16 16 16 15 15 16 16 15 14 14 14 13
13 12 13 15 14 14 14 14 13 13 13 12 11 14 16 16 14 14 12 12 11 12 13 14 14 13 13 13 13 13 13 13 15 17 16 16 16 17 15 15 15 16 15 15 17 16 16 16 15 15 15 14 14 13
14 11 15 16 16 16 16 14 15 14 13 13 14 16 17 17 15 12 12 12 13 13 13 14 14 14 14 14 15 15 14 14 14 14 15 16 17 16 16 16 16 16 15 15 15 15 15 15 14 13 13 14 13 14
12 12 14 14 16 16 15 14 14 14 14 13 13 16 18 17 16 15 14 12 12 13 14 14 14 13 14 15 16 17 19 17 17 16 15 16 16 16 17 17 16 16 15 16 16 16 16 16 16 16 16 16 17 17
13 14 15 17 18 16 14 14 14 15 15 16 17 16 16 16 18 17 16 14 13 14 14 13 14 15 15 16 17 16 17 17 17 17 17 17 17 17 17 17 16 16 17 17 16 16 16 16 17 17 18 18 18 19
14 14 15 16 17 17 16 15 16 16 16 17 16 15 15 16 19 18 15 14 13 14 15 16 16 16 17 17 18 18 18 19 20 19 20 21 21 20 17 17 17 17 18 18 17 16 16 17 18 19 19 20 21 22

GFSWCAN_con_lsi_105.txt.gz
Lid_Strength_Index
2 2 3 3 3 4 4 4 4 4 5 5 5 5 5 5 4 5 5 4 6 8 8 6 5 8 8 9 13 9 10 9 10 12 13 13 14 12 13 11 12 14 15 16 15 16 19 11 11 15 12 11 10 11
2 2 2 3 3 4 4 4 4 4 5 4 4 4 4 4 3 4 6 4 5 8 9 6 5 4 5 6 8 8 9 8 8 12 12 12 13 12 12 16 9 15 12 15 14 15 11 10 11 10 10 11 10 10
2 2 2 3 3 3 4 4 4 4 4 4 4 3 3 4 3 4 4 5 6 8 8 8 7 4 3 3 3 9 6 5 7 7 12 12 13 10 14 13 12 10 8 14 13 12 12 11 10 9 9 10 10 10
2 2 2 3 3 3 3 4 4 4 3 3 3 3 3 4 4 4 7 6 5 7 12 7 2 4 2 2 3 3 4 4 6 7 10 12 13 8 11 10 11 11 9 11 12 11 11 11 11 10 10 9 9 10
2 2 2 3 3 3 3 3 3 3 3 3 3 2 3 3 4 5 6 5 4 6 9 10 5 4 2 2 3 3 4 6 8 9 10 11 9 9 9 9 12 10 12 12 14 10 11 12 10 9 10 10 10 11
2 2 2 3 3 3 3 3 3 3 3 3 3 3 3 3 3 6 9 5 3 4 7 11 6 4 3 3 4 4 4 6 7 9 10 9 6 8 13 14 10 9 8 8 11 10 11 11 9 9 11 11 11 11
3 2 3 3 3 3 3 3 3 3 3 3 3 3 3 3 5 7 8 4 2 2 8 10 10 4 3 4 5 5 5 7 8 9 9 9 8 7 11 13 9 8 8 8 7 8 10 9 10 9 9 10 10 12
2 2 2 2 2 2 3 3 3 3 3 3 3 3 3 3 4 6 3 2 2 4 7 10 12 8 5 8 9 7 9 9 9 10 9 10 8 8 11 9 8 8 8 8 8 7 8 9 9 11 11 11 13 14
2 2 2 2 2 2 2 2 2 3 3 2 2 2 5 6 7 6 1 1 2 5 9 9 11 14 6 8 7 8 8 13 8 12 10 9 12 12 10 9 9 8 9 8 8 8 10 10 12 13 13 14 15 16
2 2 2 2 2 2 2 2 2 2 2 2 4 8 10 7 2 1 4 6 7 6 6 10 9 13 7 10 8 9 10 11 12 10 8 13 11 9 8 9 8 9 9 9 10 10 10 12 13 14 15 15 15 16
2 1 2 2 1 2 2 2 2 2 2 6 8 8 4 1 4 7 9 9 9 10 9 9 9 10 6 12 11 9 10 11 13 11 12 13 12 10 9 10 9 10 10 11 11 12 12 12 13 14 14 14 15 16
1 1 1 1 1 1 1 2 2 4 5 5 5 3 3 6 8 9 11 11 11 11 9 11 10 7 7 5 8 9 12 12 15 9 13 17 12 11 11 11 12 12 12 12 12 13 14 13 14 15 16 17 18 18
1 1 1 1 1 1 1 1 1 2 2 4 5 7 7 8 11 13 14 13 11 11 9 10 10 8 7 6 9 11 13 15 10 12 14 13 11 11 12 14 14 13 13 14 15 15 15 16 15 16 19 20 21 22
0 0 0 0 0 1 1 1 1 2 4 7 8 11 10 12 12 12 11 11 10 10 9 9 11 11 11 12 9 11 12 11 16 18 14 13 12 14 13 14 15 17 18 18 19 20 20 21 23 23 23 24 23 24
0 0 0 0 -0 0 0 0 1 2 6 8 8 11 12 9 7 7 8 9 9 9 9 10 11 9 10 12 10 10 14 17 15 14 13 13 13 14 15 15 17 18 20 20 21 22 23 23 22 23 21 23 22 25
0 0 2 0 0 0 0 1 2 4 6 7 8 10 8 8 8 8 8 8 8 10 9 9 11 11 11 10 12 16 13 14 13 13 13 13 15 16 18 18 19 16 15 19 20 21 21 22 22 22 21 21 24 24
1 4 0 0 0 1 1 3 5 7 8 8 8 7 8 7 8 8 7 8 8 8 10 11 13 12 10 12 12 11 13 13 13 13 12 13 16 18 19 15 14 14 16 19 20 19 20 19 19 18 19 20 19 17
3 1 0 0 1 2 3 3 6 8 9 8 9 9 8 8 7 7 7 7 8 9 9 11 10 12 12 14 13 12 12 12 12 13 14 16 18 19 18 19 14 15 18 18 19 19 18 19 17 16 14 14 14 13
2 2 1 1 2 4 6 6 5 9 9 8 9 9 8 8 7 8 7 7 7 6 8 10 11 13 12 11 11 12 12 14 15 14 14 14 16 14 14 14 14 17 17 18 16 15 15 14 16 16 16 15 17 17
1 1 1 1 1 5 6 7 4 8 10 9 8 9 9 9 8 7 7 8 8 9 9 12 11 11 11 10 9 10 12 13 15 16 15 14 13 13 15 16 16 15 16 15 15 17 15 16 14 14 16 17 19 19
2 2 1 1 3 4 5 7 7 7 8 9 8 9 10 9 9 8 9 8 8 9 11 11 11 10 9 9 9 10 11 13 15 15 16 16 15 15 14 13 14 15 15 15 17 16 19 18 16 16 21 22 21 20
3 2 4 3 5 6 7 6 8 8 8 9 9 9 10 10 9 9 8 10 9 10 9 10 10 10 10 11 11 12 12 11 12 13 15 15 14 16 17 17 16 18 18 19 17 19 18 18 18 19 21 22 19 20
2 3 5 6 8 8 10 5 9 9 12 10 9 10 11 10 9 8 10 9 10 12 11 10 10 10 11 11 11 11 11 12 13 14 14 15 15 15 15 16 17 19 19 17 16 18 20 20 20 22 21 21 20 21
2 7 9 9 8 12 8 11 8 9 10 10 11 12 11 10 9 11 11 11 12 11 11 11 11 12 12 12 14 14 13 12 14 13 14 15 16 17 16 16 16 17 17 16 17 20 20 22 21 21 23 23 24 24
11 11 9 11 9 12 11 11 11 11 14 11 13 12 11 11 12 12 11 12 15 13 11 11 12 12 14 16 15 15 12 13 14 16 16 14 17 17 16 16 16 17 17 20 22 23 24 23 24 25 24 25 23 24
15 14 12 11 13 12 12 12 13 14 12 12 11 11 12 11 12 13 12 13 14 11 10 11 15 14 13 13 15 16 16 13 14 16 16 15 16 17 18 18 18 18 18 22 24 25 24 24 25 24 25 23 22 24
13 12 11 10 10 9 12 11 10 13 14 13 12 13 12 13 14 15 13 11 12 11 10 10 11 12 13 15 16 16 15 15 15 16 16 16 17 17 19 20 21 22 20 22 24 26 26 26 26 25 25 25 24 23
12 12 15 12 12 11 13 14 14 15 13 11 11 13 13 18 18 15 14 10 10 11 11 12 12 14 16 16 17 17 17 17 17 17 17 18 19 21 22 22 23 19 23 25 26 26 26 26 26 26 26 26 25 23
13 12 13 17 15 14 16 16 16 15 14 13 12 16 18 17 15 15 13 12 12 14 15 16 16 16 16 16 16 17 18 20 20 23 23 24 24 22 22 22 22 23 24 23 21 23 24 25 24 25 23 21 20 18
15 11 15 17 19 19 19 16 18 18 16 16 16 17 18 18 17 14 13 14 15 16 16 16 16 16 17 17 18 19 19 20 22 22 23 22 22 22 23 22 23 24 24 25 25 24 20 24 23 24 23 23 24 26
12 12 14 16 18 16 17 17 17 17 15 14 17 21 22 20 18 17 17 14 15 16 16 16 16 16 17 18 20 23 25 23 24 21 19 19 20 22 22 23 24 24 25 26 27 27 27 27 27 27 27 27 25 26
13 15 18 20 19 17 15 16 15 19 19 20 21 21 22 21 23 21 18 16 16 16 16 15 17 19 19 20 20 21 21 23 25 24 21 21 22 23 23 23 24 25 26 27 27 27 27 27 28 28 28 26 30 31
14 16 18 20 20 20 18 17 18 18 18 20 22 20 17 21 25 22 18 16 15 17 19 19 19 19 20 21 22 23 24 25 24 21 22 23 23 22 24 25 25 28 29 28 27 27 25 27 27 28 30 32 34 35

GFSWCAN_con_lsi_108.txt.gz
Lid_Strength_Index
3 3 3 3 4 4 4 4 4 5 5 5 6 5 6 5 4 6 7 7 9 13 11 8 7 10 10 11 14 11 12 11 12 13 13 13 14 13 13 11 13 14 15 17 16 18 20 12 12 15 13 11 11 12
2 2 3 3 3 3 3 4 4 4 5 5 5 5 6 4 4 5 9 6 6 11 11 8 7 6 6 7 9 10 10 9 9 13 12 13 14 13 13 16 9 15 13 15 14 16 12 10 11 9 9 10 11 11
2 2 2 3 3 3 3 4 4 4 4 5 5 5 5 5 4 4 7 7 8 13 12 10 9 5 4 5 5 10 8 6 8 8 12 12 13 12 14 13 12 10 9 14 15 12 12 11 10 10 10 11 11 10
1 2 2 2 3 3 3 3 4 4 4 4 5 5 5 4 3 4 7 7 7 9 15 10 4 6 3 4 4 4 5 5 6 8 10 13 13 9 13 10 12 12 11 12 13 12 12 12 11 11 11 10 12 12
1 1 2 2 2 3 3 3 4 4 4 4 4 4 4 3 3 6 7 7 6 8 12 11 7 5 4 4 4 4 5 6 9 10 12 13 9 9 10 9 12 10 12 13 15 11 11 12 11 10 12 13 12 13
2 2 2 2 2 3 3 3 3 4 4 4 4 3 3 3 4 8 13 6 5 6 9 13 7 6 5 4 5 5 6 7 8 9 11 11 8 9 13 13 10 9 9 9 12 10 13 13 11 10 12 12 12 13
2 2 2 2 3 3 3 3 3 3 3 3 3 3 3 4 7 7 10 5 3 4 9 12 12 6 3 5 7 7 5 8 9 9 10 10 10 8 11 13 9 8 8 9 9 9 11 10 13 11 11 12 12 13
2 2 2 2 2 3 3 3 3 4 3 3 3 3 4 3 5 7 4 2 2 7 8 11 12 8 6 9 10 8 10 10 10 10 10 10 9 8 12 9 8 8 8 8 8 9 11 11 12 12 12 13 15 15
2 2 2 2 2 3 3 3 3 3 3 3 3 3 6 8 11 9 2 2 4 6 10 10 12 12 7 9 9 9 9 15 10 14 12 10 12 13 10 10 9 9 9 9 9 10 11 12 13 13 14 14 15 16
2 3 3 3 3 3 3 3 3 3 3 3 6 10 15 10 3 3 5 7 7 6 7 10 10 14 8 12 11 10 12 13 13 10 9 10 12 9 9 9 9 10 10 8 10 11 12 13 14 14 15 15 15 17
2 2 2 2 2 3 3 3 3 3 3 8 10 11 6 3 5 8 10 10 9 11 9 10 10 11 8 12 12 11 13 13 13 11 12 13 13 11 10 11 11 11 11 12 12 13 12 13 14 14 15 15 16 17
2 2 2 2 2 2 2 2 2 5 7 7 7 4 5 7 9 10 12 11 11 12 11 11 11 9 9 7 10 11 13 13 15 10 12 19 14 12 12 12 12 13 13 13 13 14 14 14 14 15 16 17 18 19
2 1 1 2 2 2 2 2 3 2 4 6 6 8 8 9 13 15 18 14 16 12 11 12 11 7 9 9 9 12 16 16 11 13 15 16 13 12 13 14 14 14 14 15 15 15 15 16 16 17 20 22 23 24
1 1 1 1 1 1 2 2 2 3 6 10 10 12 12 13 12 14 13 13 11 11 11 11 12 11 12 14 10 14 13 12 17 20 15 16 12 13 14 14 15 18 19 19 20 21 21 21 24 25 25 26 25 25
1 1 1 1 1 1 1 2 2 4 7 10 10 16 12 11 8 7 8 10 11 11 10 11 11 11 14 13 10 10 13 18 16 18 18 14 13 15 16 16 18 19 21 21 23 22 25 25 23 24 25 25 24 27
0 1 2 1 1 1 1 3 5 7 8 9 9 11 9 9 9 7 9 10 11 11 11 10 12 15 13 12 12 13 14 17 16 15 14 14 16 19 19 19 20 21 21 22 22 22 22 24 23 22 24 24 27 26
1 4 1 0 1 1 2 5 9 9 11 9 10 8 8 9 8 7 7 9 9 10 11 12 15 15 11 15 12 15 13 14 14 14 15 16 18 20 20 20 19 18 20 20 21 21 20 20 21 19 20 21 20 19
4 1 0 0 2 3 4 5 9 9 11 11 12 10 8 8 7 7 7 8 10 10 11 11 11 12 16 16 18 16 13 13 14 16 18 19 20 21 18 18 15 17 18 19 19 19 19 20 17 17 16 15 14 14
2 1 0 1 3 5 7 7 6 10 11 11 11 9 9 8 8 8 7 7 8 8 10 11 14 16 16 15 13 12 13 15 16 18 19 20 19 19 19 17 16 18 17 18 16 17 17 16 16 17 17 16 18 18
-0 0 1 1 1 6 7 9 5 8 12 11 9 9 9 9 8 8 8 8 8 9 11 13 12 13 13 16 12 12 14 14 15 16 17 19 17 16 17 16 17 16 17 16 16 17 16 16 15 16 17 18 20 21
2 2 1 3 4 5 6 8 8 7 8 10 8 9 10 9 9 9 9 8 9 9 12 10 13 13 10 10 11 12 13 13 15 15 16 17 15 16 17 16 15 16 17 18 18 18 18 19 18 18 20 21 23 23
3 2 4 3 5 5 6 6 8 8 9 9 9 9 10 11 10 9 8 10 10 12 13 13 13 10 10 12 13 12 13 13 14 15 17 16 17 17 16 17 16 18 18 18 17 19 19 18 19 21 24 25 24 23
2 3 5 5 8 10 11 6 10 10 12 11 9 12 13 11 12 8 11 10 10 11 12 12 11 10 11 11 11 11 11 12 14 15 16 16 18 18 18 19 19 18 18 18 17 18 20 22 22 25 25 25 24 26
3 7 10 10 9 14 10 12 9 9 10 11 13 14 11 11 9 11 12 12 11 13 12 11 11 12 12 11 14 14 13 13 15 16 16 15 16 17 16 17 18 18 17 17 18 21 23 25 25 25 28 28 30 29
11 12 11 12 8 12 14 13 13 13 17 16 15 14 11 12 13 13 13 16 18 17 12 11 12 12 15 17 16 15 13 13 15 16 17 15 17 18 17 17 18 18 18 21 25 26 27 29 29 28 28 30 25 27
16 14 12 15 18 13 14 17 18 18 16 16 16 14 13 12 16 17 14 17 19 17 13 12 15 15 15 14 15 15 16 14 15 17 18 17 17 18 19 20 22 22 21 24 25 28 28 29 30 28 28 27 27 27
16 15 12 9 10 10 15 15 11 16 18 18 16 15 13 14 14 17 15 13 14 13 10 10 10 12 15 16 17 17 17 16 17 17 18 19 19 19 19 20 22 22 22 24 27 28 29 30 30 30 30 31 30 30
12 11 15 15 13 12 16 17 18 18 18 13 13 13 14 14 17 17 16 12 12 12 12 12 11 13 15 17 18 18 19 19 19 19 19 20 21 23 23 23 23 21 27 28 28 29 29 29 29 29 30 28 27 23
13 12 13 15 14 14 16 18 19 17 15 15 17 19 18 17 18 17 14 14 14 14 15 16 16 16 17 17 18 19 19 19 20 24 27 26 27 23 27 27 28 28 28 25 21 24 24 26 28 28 28 27 26 27
15 12 15 17 19 19 18 16 18 20 17 17 17 18 19 19 18 15 15 15 17 18 17 16 16 17 18 20 21 22 22 24 23 22 24 25 25 27 30 29 28 27 26 24 26 26 22 27 26 29 28 29 30 32
12 13 15 16 17 18 18 21 22 20 19 21 22 22 22 21 19 18 18 17 15 15 16 17 17 18 19 20 21 22 23 23 24 22 21 22 24 26 28 28 28 26 26 26 27 30 31 33 34 34 32 33 35 36
14 15 17 19 20 19 17 19 20 22 22 23 24 25 24 24 25 21 17 17 17 18 18 17 19 22 20 21 23 23 22 25 24 24 24 25 27 29 26 26 26 25 26 27 28 31 32 32 34 35 37 37 38 38
17 19 21 21 21 20 19 20 19 20 21 26 27 26 23 26 27 23 20 18 20 20 21 21 21 22 22 23 23 25 25 26 24 23 24 24 26 26 27 27 28 27 27 29 32 33 33 34 36 37 38 39 39 40

GFSWCAN_con_lsi_111.txt.gz
Lid_Strength_Index
3 3 4 4 4 4 4 5 5 5 5 5 5 5 5 5 5 7 9 9 10 14 13 9 9 11 12 13 15 12 13 12 13 15 14 14 14 12 13 12 13 15 16 17 16 19 21 13 12 15 13 11 12 13
3 3 3 4 4 4 4 4 4 5 4 4 4 5 5 5 5 6 10 8 9 12 12 9 9 8 8 9 11 11 11 10 11 14 13 13 13 12 12 16 10 15 14 16 16 17 12 11 11 10 10 12 10 12
3 3 4 4 3 3 3 4 4 4 4 4 5 6 5 5 4 6 10 10 10 13 12 11 10 7 6 7 6 11 10 8 9 9 13 13 14 11 14 13 12 11 10 15 15 13 13 11 11 10 10 12 12 10
2 2 2 2 3 3 3 3 4 4 4 5 5 5 5 5 5 6 9 9 9 11 15 11 6 7 5 6 6 6 7 6 7 8 11 13 13 9 11 10 12 11 11 13 14 12 12 12 12 12 12 12 13 13
1 2 2 2 2 3 3 3 4 4 4 4 5 5 5 5 6 7 8 7 6 10 14 12 9 6 5 5 6 6 6 7 9 10 13 13 10 10 9 10 12 10 12 13 17 12 12 13 11 11 13 13 13 14
1 2 2 2 3 3 3 3 3 4 4 4 4 5 5 5 6 9 13 7 5 7 13 15 9 8 6 6 6 7 7 8 9 10 11 11 9 10 12 13 10 9 9 9 11 11 13 12 11 12 13 13 14 14
1 2 2 2 2 3 3 3 3 3 3 4 4 4 5 5 7 9 11 5 4 7 12 15 13 8 4 6 8 8 6 8 9 10 11 11 10 9 12 13 9 9 9 10 10 10 12 13 14 12 13 13 13 14
2 2 2 2 2 3 3 3 3 4 4 4 4 4 4 4 5 7 4 3 4 9 10 15 11 8 6 9 10 9 10 10 10 11 11 11 9 10 14 9 8 8 8 8 10 10 12 13 13 14 13 14 15 16
1 2 2 2 2 3 3 3 3 3 3 3 4 4 7 9 9 8 3 4 5 9 14 14 14 12 8 9 10 10 10 15 11 14 12 11 12 13 11 9 9 8 9 10 10 11 11 13 14 14 14 15 16 16
1 2 2 2 2 2 3 3 3 3 3 4 7 11 15 10 5 4 7 10 9 8 8 13 12 13 9 12 14 11 13 14 14 11 10 11 13 10 10 10 10 11 10 9 12 13 13 14 14 15 15 15 16 17
1 2 2 2 2 2 2 3 3 3 5 9 13 10 8 4 8 10 11 12 12 12 9 11 11 11 8 13 13 12 14 13 14 11 12 15 14 13 11 12 11 11 11 12 12 11 12 13 14 15 15 15 16 17
1 1 2 2 2 2 2 2 3 7 9 8 7 7 6 9 10 12 12 11 11 13 12 12 11 10 9 8 12 11 13 14 16 9 11 18 16 13 12 12 12 13 13 13 13 14 14 14 14 15 16 18 19 19
2 2 2 2 2 2 2 3 4 4 5 7 8 9 9 11 14 15 18 16 14 13 13 12 11 10 10 9 10 10 16 17 10 14 16 17 14 13 12 13 14 14 14 15 15 15 15 16 16 17 21 24 24 25
2 2 2 2 2 3 3 3 3 5 8 12 15 14 13 14 13 15 15 15 12 13 12 12 10 9 13 14 15 18 15 11 16 20 16 16 14 13 13 13 15 19 19 19 21 21 21 21 25 26 26 27 26 25
2 2 2 2 2 2 2 3 4 7 9 14 13 18 13 13 11 9 8 10 9 13 11 11 11 11 15 14 10 10 12 16 17 17 19 17 14 15 16 16 19 20 22 22 24 23 26 26 24 25 26 27 25 28
1 2 4 2 2 2 3 4 6 9 9 11 10 14 11 10 10 8 8 8 8 12 9 10 12 16 16 15 12 12 13 18 17 18 16 15 16 19 20 19 21 22 22 22 23 23 23 25 24 24 24 24 28 27
3 6 2 1 2 3 3 7 9 11 12 11 13 11 9 10 11 7 7 8 8 11 12 12 16 16 13 12 13 13 15 18 15 14 16 17 17 20 20 21 21 20 21 21 23 22 22 21 22 20 20 22 21 19
6 3 1 1 3 5 5 7 10 11 13 11 11 13 12 8 7 8 7 7 9 11 11 12 11 14 19 17 18 15 14 14 15 16 19 22 21 21 19 19 19 19 20 21 19 20 20 21 18 18 17 16 15 15
2 2 1 2 4 7 10 10 7 11 12 10 11 12 12 9 8 8 8 8 9 9 10 12 14 16 15 16 14 18 17 17 16 19 22 23 20 19 19 18 18 20 19 18 17 18 18 16 17 17 17 16 18 19
0 0 1 1 2 7 9 10 7 9 12 12 10 9 10 10 8 8 8 8 8 10 10 13 13 17 14 16 15 15 16 15 15 17 20 21 20 19 19 17 18 17 17 17 17 17 17 16 15 16 17 18 19 19
2 2 1 4 5 5 7 9 9 8 9 10 9 9 10 10 9 9 9 8 9 9 12 10 11 17 14 14 13 13 14 13 15 16 17 19 18 17 18 18 16 17 19 19 19 20 20 20 18 17 19 21 23 25
3 2 4 4 6 7 7 7 8 8 8 9 10 9 12 11 10 9 8 10 10 10 12 12 13 13 12 13 14 13 13 14 15 16 17 16 17 18 18 19 17 20 20 21 18 20 19 17 17 19 24 26 26 25
3 4 5 6 8 9 9 7 9 8 12 10 9 10 11 11 11 8 11 10 12 13 12 12 10 10 11 11 11 12 12 13 15 16 16 18 18 20 19 19 19 20 21 19 18 19 20 22 23 26 27 27 26 29
3 8 11 10 9 12 8 11 8 8 10 11 11 12 12 12 10 12 15 14 14 14 13 11 11 13 12 12 14 14 14 14 15 17 17 17 18 19 18 19 19 18 18 17 18 22 24 28 26 25 30 31 33 32
12 12 13 18 11 11 14 14 13 14 18 14 14 16 13 13 13 14 16 16 19 19 16 12 12 13 15 17 17 16 13 13 15 17 18 17 18 18 18 19 19 19 19 22 27 28 30 32 32 31 30 33 27 29
17 16 12 15 16 13 14 18 19 19 18 15 18 16 16 17 17 17 15 17 21 19 20 15 16 15 15 14 16 16 17 14 14 18 19 16 17 18 20 22 23 23 22 25 27 30 30 31 31 29 30 29 29 31
17 18 12 9 10 10 16 16 12 16 19 19 15 19 18 20 21 18 17 13 13 15 12 11 11 12 14 16 16 17 17 17 17 18 19 19 20 20 20 22 24 23 23 25 27 29 29 31 31 31 31 34 32 32
13 12 16 16 15 12 17 19 20 18 18 14 15 19 19 18 18 20 17 16 12 13 13 13 12 13 15 16 17 19 19 19 20 20 20 21 22 23 24 23 22 22 27 29 29 32 31 29 30 32 32 31 30 30
14 12 11 14 14 16 16 17 19 17 15 16 19 21 22 19 20 20 18 15 13 13 15 16 17 16 18 18 19 18 18 19 20 23 26 27 28 25 29 27 27 30 31 28 23 26 26 27 30 29 33 32 35 36
16 13 15 16 15 16 17 17 19 21 17 18 18 19 20 21 21 18 17 17 17 20 19 16 16 16 18 19 20 20 22 23 23 22 25 27 26 27 30 28 29 32 31 29 29 27 23 28 29 34 34 35 38 38
13 14 18 17 18 16 16 16 17 18 20 21 22 22 22 22 19 19 19 19 17 16 16 17 17 18 18 19 19 20 22 24 25 24 23 23 24 27 30 31 32 32 30 29 28 30 32 35 39 39 37 38 39 41
15 15 17 18 18 16 15 16 17 17 19 22 25 25 23 22 23 21 19 19 19 18 19 19 19 21 19 21 22 22 21 24 23 23 24 25 28 30 29 30 31 28 28 28 29 32 34 35 40 41 41 40 41 41
18 17 18 18 18 18 17 17 17 19 21 24 26 26 25 23 23 22 21 19 21 23 22 21 22 22 23 23 23 24 24 25 24 23 25 26 28 28 31 31 29 28 29 31 34 35 36 38 40 41 41 41 42 42

GFSWCAN_con_lsi_114.txt.gz
Lid_Strength_Index
2 3 4 5 5 4 4 5 5 6 6 6 5 5 5 5 5 8 9 9 10 13 12 9 9 12 13 14 17 14 15 14 14 16 14 15 15 13 14 12 13 15 16 17 15 18 19 13 12 16 13 13 13 14
3 3 4 5 5 5 5 5 5 5 5 5 5 4 4 4 5 7 10 9 9 11 11 10 9 9 10 11 13 13 13 12 12 15 14 13 14 13 12 16 10 14 14 15 16 17 13 12 13 11 12 11 12 13
3 3 4 5 4 4 5 5 5 5 5 5 4 4 3 4 5 7 10 10 10 12 11 11 10 8 8 8 8 12 11 9 11 11 13 14 14 11 14 13 12 10 10 14 14 13 13 12 12 11 12 13 11 11
3 3 3 4 4 4 5 5 5 5 5 4 4 3 4 4 5 7 9 9 10 12 13 11 7 9 7 7 8 8 8 8 9 10 11 14 13 10 12 10 12 11 10 12 14 13 12 12 12 12 13 13 14 14
3 3 4 3 4 4 4 4 4 4 4 4 3 4 4 5 6 7 8 8 8 11 14 12 10 8 7 7 7 7 7 9 10 11 13 13 10 10 9 10 11 10 11 13 14 12 12 13 12 11 13 14 14 15
2 3 3 3 4 4 4 4 4 4 4 4 4 4 4 6 8 11 13 9 7 8 12 14 10 9 8 7 7 7 8 10 10 11 12 11 9 10 12 12 9 9 9 9 11 11 12 12 12 12 14 14 14 15
2 3 3 3 3 3 3 3 3 4 3 3 4 4 5 5 8 11 12 8 5 7 12 14 13 9 6 7 8 8 7 10 10 11 12 11 10 9 11 13 10 9 10 10 10 10 12 13 14 13 14 14 14 16
2 2 2 3 3 3 3 3 3 3 4 4 4 5 5 5 6 7 5 4 6 10 11 15 12 10 6 9 10 10 10 11 11 12 11 11 10 9 13 9 8 9 9 9 10 10 12 13 13 14 14 15 16 17
2 2 2 2 3 3 3 3 3 3 4 4 5 6 8 10 10 7 3 4 7 10 14 16 14 13 7 9 10 10 11 15 11 15 12 11 13 14 11 9 8 8 10 11 11 12 12 13 14 14 15 15 16 17
2 2 2 2 3 3 3 3 3 3 4 6 9 11 15 9 5 5 8 11 12 11 11 15 13 11 10 11 14 13 13 14 15 12 10 11 13 11 11 11 11 11 10 11 13 13 13 14 14 15 16 16 16 18
1 2 2 2 3 3 3 3 3 4 5 10 12 11 8 4 8 10 15 15 13 14 12 12 12 11 9 13 13 13 15 14 15 12 12 15 14 12 12 11 11 11 11 11 11 11 11 12 14 15 16 16 17 18
1 1 2 2 2 2 3 3 4 7 9 9 7 5 6 9 11 14 14 12 13 14 12 13 12 10 8 9 13 11 14 14 17 9 12 18 16 13 12 12 12 12 13 13 13 13 13 13 14 15 17 18 19 20
1 1 2 2 2 2 3 4 4 4 5 8 9 11 12 13 16 15 18 16 15 14 14 13 12 11 9 8 11 10 16 18 10 15 17 16 14 13 13 13 13 14 13 14 15 15 15 16 16 18 21 24 24 25
1 1 2 2 2 2 2 3 3 5 8 13 15 17 16 16 14 17 16 16 14 14 13 13 11 9 13 12 19 18 16 10 14 20 16 18 15 14 13 13 15 19 19 19 20 21 21 21 25 26 26 28 27 26
1 1 2 2 2 2 3 4 5 7 11 13 14 16 14 13 11 12 12 10 9 14 12 12 12 12 15 15 12 12 12 17 17 18 18 19 14 14 15 16 18 19 22 22 24 23 24 25 23 26 27 28 26 29
2 2 4 2 2 3 4 5 8 10 11 12 12 15 12 11 11 9 9 9 9 13 9 10 13 17 17 16 16 16 13 18 18 19 17 17 16 17 18 18 20 21 22 22 23 23 23 24 24 24 25 25 28 27
3 7 2 3 3 4 4 8 11 12 13 13 15 12 11 11 12 9 8 8 9 8 14 13 16 16 13 17 16 14 13 18 16 14 15 18 16 18 20 21 22 21 21 22 23 22 23 22 22 20 20 22 21 19
6 3 2 3 5 6 8 9 11 12 15 13 13 14 13 10 9 8 8 8 8 9 11 12 11 15 20 18 19 18 12 14 14 15 20 21 20 21 19 21 21 20 21 21 20 21 21 21 18 20 17 16 16 16
3 3 2 3 6 9 11 10 10 14 14 12 11 11 10 10 9 8 8 7 8 9 10 12 15 17 18 18 17 19 16 15 16 19 22 23 21 19 20 19 20 21 20 20 18 19 19 17 18 19 18 17 19 20
1 2 2 2 4 9 10 11 8 10 14 14 10 11 13 13 11 11 10 8 8 9 11 14 16 17 16 16 15 16 17 16 16 18 20 21 20 19 19 18 18 19 19 18 18 19 18 18 17 17 18 19 21 20
3 3 3 5 7 7 9 10 11 10 10 11 10 10 13 11 12 13 10 8 8 9 12 12 16 17 12 12 14 15 14 14 16 16 18 20 21 18 19 19 17 18 19 21 21 21 21 21 20 19 23 24 25 26
4 3 6 6 9 8 9 9 9 9 10 10 10 10 14 16 13 10 8 10 10 10 13 14 13 12 13 13 14 13 14 14 15 17 17 17 18 19 19 20 19 22 22 23 21 22 20 18 19 21 25 28 26 26
3 5 7 7 12 13 11 8 11 9 13 12 10 12 14 13 12 8 12 10 12 14 14 12 11 10 12 12 12 12 12 14 16 17 17 18 18 19 19 20 20 21 22 21 20 21 21 22 24 27 28 27 27 30
4 10 13 13 12 14 8 12 8 8 9 10 12 14 14 12 10 13 15 15 15 15 13 11 11 12 13 12 15 15 14 14 16 17 17 16 18 20 19 20 20 20 19 18 19 22 23 27 27 26 30 33 35 34
13 14 15 19 12 13 16 16 14 12 13 14 16 16 14 12 17 18 17 17 18 19 17 13 13 13 15 18 17 16 14 14 15 17 18 17 18 18 19 19 20 20 20 22 27 28 30 30 32 32 32 34 28 31
18 16 16 17 16 13 14 17 18 16 17 15 16 15 16 17 16 18 16 16 19 20 21 18 16 16 15 15 16 17 17 15 15 18 18 17 16 17 20 21 21 22 22 24 25 27 28 32 33 31 32 31 32 33
17 18 12 10 10 10 14 13 13 17 18 19 13 16 18 21 23 18 15 13 13 12 13 12 11 13 15 16 16 17 17 17 17 18 19 19 19 19 19 21 22 22 23 24 26 27 29 33 34 34 34 35 35 36
13 15 17 15 12 12 18 19 19 19 19 15 16 19 20 19 18 20 19 17 12 13 15 15 14 14 15 17 17 18 19 19 20 19 19 20 22 23 23 22 22 22 26 27 28 29 30 31 33 35 35 35 37 39
15 13 13 16 16 16 16 16 17 17 16 16 18 19 20 19 22 21 19 16 13 13 17 18 19 18 18 18 18 18 18 18 19 21 24 26 26 24 26 25 26 27 27 26 23 27 29 31 32 33 36 37 41 44
13 11 13 14 14 14 15 15 19 22 18 18 18 19 20 22 22 19 18 18 15 15 16 19 18 20 19 19 19 20 20 22 22 21 23 25 23 24 27 26 27 31 30 26 25 25 26 33 32 38 40 40 42 42
13 14 16 16 16 17 17 19 20 20 22 22 23 21 21 21 20 20 20 21 21 20 18 20 20 19 18 18 18 19 21 23 24 23 23 22 23 26 27 28 32 31 29 29 30 33 37 40 43 42 41 42 44 44
16 17 18 20 19 16 16 18 20 20 22 25 25 26 24 23 22 22 21 22 20 22 23 21 19 21 19 19 20 22 22 23 24 23 23 24 26 28 29 30 30 29 29 30 32 34 35 38 43 44 44 43 44 44
20 20 20 20 20 20 18 16 17 21 25 26 27 27 26 22 22 24 24 22 22 20 20 22 21 22 22 22 23 24 24 25 24 23 25 26 28 29 30 30 29 30 31 32 34 36 38 41 44 44 44 44 43 44

GFSWCAN_con_lsi_117.txt.gz
Lid_Strength_Index
2 4 4 4 4 5 5 6 6 6 5 5 5 5 5 6 6 8 10 9 9 12 11 10 9 11 12 12 14 12 13 12 13 15 14 14 13 12 13 12 13 13 14 15 15 17 18 12 12 15 14 12 13 13
2 3 4 4 5 5 5 5 5 5 4 5 5 5 6 6 6 7 10 9 8 10 11 9 9 8 9 10 11 11 12 11 12 13 13 12 13 11 12 15 9 13 12 14 15 16 13 11 13 12 11 12 12 13
2 3 4 4 4 4 4 4 5 4 4 5 5 5 5 5 6 7 9 9 8 10 10 10 10 8 7 7 7 11 11 9 10 10 11 11 12 10 13 12 11 10 9 13 13 13 13 12 12 13 12 12 11 12
2 3 3 4 5 5 5 4 4 4 4 4 5 5 4 5 5 6 9 8 9 10 12 11 7 8 7 6 7 8 8 8 9 9 10 10 11 8 11 10 11 10 9 12 13 13 13 13 12 13 12 12 13 13
2 3 3 4 4 5 4 4 4 4 4 4 4 4 4 4 5 6 7 7 7 9 12 11 9 8 7 7 7 7 8 9 9 9 10 11 9 9 8 9 11 9 10 12 13 11 12 13 12 11 12 13 13 14
3 3 3 4 4 4 4 4 4 4 4 4 3 4 5 5 7 9 11 8 6 8 10 13 10 8 8 7 7 7 8 8 8 9 10 9 9 8 10 12 9 9 8 8 10 10 11 11 12 12 13 14 14 14
3 3 4 4 4 4 4 4 4 4 4 4 3 3 3 4 5 9 11 8 6 7 11 12 11 8 7 8 8 8 7 8 8 9 9 9 9 8 9 12 9 9 9 9 9 10 12 12 13 12 13 14 14 15
3 3 3 4 4 4 4 4 4 3 3 3 3 3 4 4 5 7 6 5 7 9 10 13 12 9 7 9 9 9 9 9 9 10 10 10 8 8 11 9 9 9 9 9 9 9 11 12 12 13 13 14 15 15
2 3 3 3 3 3 3 3 3 3 3 4 4 5 7 8 8 7 5 6 7 9 12 13 13 13 7 9 9 9 9 11 9 10 10 9 11 12 10 8 9 8 9 11 11 12 12 12 13 13 14 14 15 16
2 2 3 3 3 3 3 3 3 4 5 5 7 10 12 8 5 7 9 11 10 10 10 13 11 11 9 10 11 10 10 11 12 10 9 10 12 11 11 9 8 8 9 10 12 13 12 13 13 13 14 14 15 16
2 2 3 3 3 3 3 3 5 5 6 9 11 11 8 5 9 10 13 13 12 13 12 12 10 10 8 10 11 11 12 11 13 11 11 13 12 11 11 11 10 9 9 9 9 9 10 11 12 14 15 15 16 17
2 2 2 3 3 3 4 5 5 7 9 8 7 6 8 10 12 13 14 12 13 14 12 12 11 8 8 8 10 10 11 12 14 9 11 14 12 11 11 11 11 10 11 11 11 11 11 12 13 14 15 16 17 18
2 2 2 3 3 3 4 4 4 4 6 8 10 11 12 13 17 18 18 15 15 13 12 11 11 8 8 7 10 9 13 14 9 12 13 11 12 11 11 11 12 12 12 12 13 13 14 15 15 16 18 19 20 22
2 2 2 2 3 3 3 4 4 6 9 12 14 16 17 16 15 16 14 14 13 12 11 10 11 10 10 11 13 14 12 10 13 15 13 12 13 12 12 13 14 15 16 16 17 17 18 19 20 21 21 22 21 21
1 2 2 3 3 3 4 5 5 7 11 13 13 15 15 13 11 11 12 10 10 11 10 10 11 10 13 13 12 11 12 15 14 13 12 13 13 13 14 14 16 17 18 19 19 19 21 21 20 21 22 21 21 23
2 2 3 2 3 3 4 6 8 9 11 11 12 14 13 12 11 10 10 10 9 11 10 9 12 14 14 13 13 15 14 15 13 12 13 14 14 15 15 16 17 18 18 19 19 19 20 21 20 19 21 20 22 21
3 5 2 3 3 4 4 8 9 11 12 12 14 13 11 11 12 10 8 9 10 9 12 11 15 15 12 14 14 13 13 12 13 12 13 14 14 15 17 18 19 19 19 19 19 18 19 19 19 18 17 17 18 17
4 3 3 3 5 6 8 9 11 12 15 13 14 13 12 10 9 9 8 8 8 9 10 11 10 13 15 15 14 13 12 12 13 13 15 16 16 17 16 17 19 18 18 19 18 18 18 18 17 16 15 15 14 14
3 4 3 4 6 9 11 10 10 14 14 12 11 11 11 10 9 8 8 8 8 8 9 11 12 13 12 13 12 14 12 12 14 16 18 19 17 17 18 18 18 18 18 18 17 16 16 15 15 15 15 15 14 14
2 3 3 4 5 9 10 11 8 11 13 12 10 11 11 11 10 12 9 7 7 9 10 11 11 12 11 11 12 11 13 14 15 16 17 18 17 17 17 17 17 17 17 16 15 17 15 15 15 14 15 15 15 15
4 5 4 6 8 8 10 10 11 10 10 11 10 10 12 11 12 12 11 9 10 10 10 11 11 12 11 11 11 12 13 13 13 13 14 17 17 15 16 15 16 16 16 16 15 16 17 15 15 16 16 17 18 18
5 4 8 7 9 8 9 9 10 9 10 10 10 10 13 15 15 12 9 10 10 10 10 10 11 10 11 12 12 12 12 13 14 16 16 16 17 16 16 16 15 16 16 16 15 15 15 15 16 17 17 19 20 19
4 6 8 9 13 15 13 8 12 10 14 12 11 13 14 14 11 9 12 9 10 12 12 11 10 10 11 11 12 12 12 13 14 15 15 15 15 15 15 15 15 16 16 16 16 16 16 19 20 19 20 20 19 20
5 10 14 15 13 17 11 11 9 10 11 12 13 14 12 11 10 11 13 12 13 13 12 11 11 12 12 12 13 13 13 13 15 15 15 15 16 16 15 15 15 15 15 16 17 18 19 20 22 20 21 22 23 22
12 15 15 20 12 16 15 14 15 12 15 14 14 14 13 12 16 16 14 13 15 15 14 12 12 12 12 14 14 14 13 13 14 15 15 14 16 16 17 17 17 17 17 18 20 21 23 23 22 22 22 22 22 24
19 18 17 18 15 15 16 16 15 17 14 12 14 13 13 15 15 16 14 13 14 15 15 14 12 12 13 13 14 14 14 13 13 15 16 15 15 15 17 17 18 18 18 18 20 21 22 23 22 23 24 26 29 25
18 18 12 10 11 10 15 15 13 15 16 14 12 14 16 16 18 15 13 13 13 12 12 12 11 11 13 15 16 16 15 15 15 16 17 17 17 16 15 16 18 18 19 20 20 21 22 23 24 24 26 28 29 28
14 13 16 13 11 11 13 15 16 17 15 14 14 16 17 17 16 15 15 14 12 13 14 14 14 14 14 16 17 17 18 18 18 18 18 19 20 21 20 19 19 20 21 22 22 23 23 23 25 26 26 28 31 32
12 13 14 13 16 13 16 16 15 15 14 14 15 16 17 16 18 18 17 15 14 12 15 16 18 17 18 17 17 17 16 15 16 18 19 20 20 21 22 21 22 22 22 22 22 24 25 26 27 28 29 30 33 34
16 13 17 19 17 15 15 14 17 17 16 16 17 17 18 19 19 18 17 16 14 13 14 16 18 17 18 18 19 18 19 18 16 15 18 20 19 22 22 22 23 23 22 21 23 25 25 28 29 31 32 33 32 31
12 13 15 14 14 15 14 16 18 19 19 19 20 17 18 19 19 19 19 19 18 16 17 18 18 17 17 18 17 17 18 19 20 19 19 20 22 22 23 23 24 23 23 25 26 27 29 31 31 32 32 33 35 33
15 15 17 18 18 18 15 15 16 18 20 19 20 21 20 19 18 20 20 20 18 18 19 18 17 18 16 16 18 18 19 20 21 21 21 22 23 24 25 25 26 25 26 27 28 29 30 31 32 32 33 34 35 34
17 17 17 18 19 19 17 16 19 21 22 22 22 23 21 20 20 21 21 21 20 17 19 19 20 20 20 21 21 22 22 22 22 22 24 25 26 26 26 26 26 27 28 29 30 31 32 33 34 35 35 35 35 35

GFSWCAN_con_lsi_120.txt.gz
Lid_Strength_Index
2 3 4 5 5 5 5 5 5 4 4 4 4 4 5 5 6 6 8 7 7 10 10 9 9 11 10 10 11 9 10 10 10 12 12 12 12 11 12 10 11 11 13 14 13 15 17 11 11 13 13 11 11 11
3 3 4 5 5 5 5 5 5 5 5 5 5 5 5 5 6 5 8 8 5 8 10 7 8 7 7 7 8 8 9 9 9 10 10 10 11 10 10 14 8 13 10 11 12 13 11 10 11 10 10 11 11 11
3 4 5 5 5 4 5 5 5 5 5 5 5 5 5 5 5 5 7 5 6 8 8 8 9 6 5 5 4 8 7 8 8 6 8 8 11 8 12 11 10 9 8 10 11 11 11 11 11 10 10 11 10 10
3 4 5 5 5 4 4 4 5 5 5 5 5 5 5 5 5 5 6 6 5 7 10 10 6 7 5 3 4 4 6 6 6 6 7 8 9 7 10 9 9 8 8 10 12 11 11 11 11 11 11 11 11 10
3 4 5 4 4 4 4 4 4 4 4 4 4 5 5 5 5 5 5 5 5 6 10 10 7 6 4 4 5 5 6 7 7 8 8 8 6 7 7 7 9 7 9 10 11 10 10 11 10 10 11 11 11 11
3 4 4 5 4 5 4 4 4 4 5 5 5 5 6 7 6 4 8 5 4 3 7 11 7 7 5 5 5 6 6 6 6 7 7 6 6 6 9 10 8 7 7 7 9 8 9 10 10 10 11 11 11 12
3 4 4 4 5 4 4 4 4 4 4 4 4 4 4 4 4 7 7 5 5 3 6 10 9 7 6 6 6 6 5 6 6 6 6 6 6 5 8 11 8 8 7 7 8 9 11 10 11 10 11 12 12 12
3 4 4 4 4 4 4 4 4 4 4 4 4 4 4 3 4 6 5 5 4 5 6 10 11 9 6 8 8 6 7 5 6 6 6 7 6 6 10 8 7 7 7 7 7 7 8 10 10 11 11 11 12 13
3 4 4 4 4 4 4 3 3 4 5 5 5 4 3 5 6 6 4 5 3 5 9 9 11 12 6 7 6 6 6 9 6 7 7 6 8 10 8 8 7 7 7 8 9 9 9 10 11 12 11 12 13 13
3 3 4 3 3 4 4 4 5 5 5 5 5 6 9 6 5 5 5 7 7 7 7 10 8 10 7 7 8 8 6 9 10 7 6 8 8 8 7 6 6 6 7 8 10 11 10 11 11 11 11 12 12 13
3 3 3 3 3 3 4 4 5 5 5 5 7 9 5 4 5 7 10 10 10 11 8 9 8 9 6 8 9 7 9 8 11 9 9 10 10 9 8 6 5 5 6 7 7 7 7 8 10 11 12 13 13 13
3 3 3 3 3 4 4 4 4 5 6 5 5 4 5 7 9 11 13 11 11 12 10 9 8 7 7 5 7 7 10 8 12 8 10 11 8 8 8 8 7 6 7 7 7 7 8 9 10 11 12 13 14 15
2 3 3 3 4 4 4 4 5 5 5 4 6 8 9 10 13 14 16 13 13 11 9 8 9 6 6 6 8 9 11 11 8 11 11 9 8 8 7 8 8 8 8 8 9 9 10 11 11 12 14 15 16 18
3 3 3 3 4 4 4 5 5 5 5 8 10 14 12 14 13 12 12 11 10 9 7 7 9 7 7 8 8 11 9 8 12 13 12 8 9 9 8 9 10 11 11 11 12 12 14 15 16 16 16 17 17 18
2 3 3 3 4 4 5 5 5 5 7 10 10 14 13 11 10 10 10 9 9 6 6 7 7 7 9 10 9 9 11 13 11 11 8 7 9 9 10 10 11 13 14 14 14 15 16 17 17 17 17 16 16 18
2 3 4 3 4 4 5 5 5 6 8 9 10 12 10 10 10 10 9 9 7 7 6 6 9 10 11 9 11 11 12 12 10 7 8 9 10 10 11 12 12 13 13 14 14 15 16 16 16 16 16 16 17 17
3 4 3 4 4 4 5 5 6 9 10 11 11 10 9 10 10 9 8 8 6 6 9 8 11 12 9 10 11 8 10 8 8 9 9 9 10 11 12 13 14 14 14 14 14 15 15 14 15 15 16 15 15 15
4 3 3 4 4 5 5 6 9 10 12 10 10 10 9 9 8 8 8 6 5 6 6 8 7 10 11 12 10 7 8 10 10 10 10 10 10 11 12 12 14 14 14 14 14 15 15 15 14 13 13 13 13 13
3 3 3 4 5 6 8 8 8 11 11 10 9 9 9 8 7 7 7 6 5 4 5 6 9 9 9 7 7 8 9 9 10 11 12 12 11 13 13 13 14 14 14 14 14 13 13 13 12 12 12 12 12 12
3 4 4 4 4 7 10 10 7 10 11 10 9 9 9 9 8 7 7 6 7 5 7 8 8 7 6 6 5 6 7 8 9 11 12 12 12 13 13 13 12 13 13 13 13 13 13 13 12 12 11 11 12 13
3 4 4 4 6 7 9 10 10 10 10 10 9 8 9 7 7 7 6 5 6 6 7 6 6 7 8 8 7 7 8 8 8 8 9 12 12 11 12 12 12 12 12 12 12 13 13 12 12 12 12 12 13 13
4 5 5 5 8 8 9 7 9 9 10 10 9 8 9 9 8 7 6 7 6 6 5 5 6 8 8 8 8 8 9 9 10 11 11 12 12 12 12 12 12 12 12 11 11 12 11 12 12 12 13 14 15 15
4 4 6 7 10 9 10 7 9 9 11 11 9 10 9 9 8 6 8 7 7 8 7 6 7 7 8 9 9 9 9 9 10 10 11 10 10 10 11 11 11 11 12 12 11 11 12 14 14 14 15 15 15 16
5 8 10 10 10 11 8 10 8 9 9 10 10 12 11 10 8 8 10 8 8 8 8 8 7 8 9 9 9 9 10 9 11 11 10 11 11 11 10 11 11 10 10 11 11 12 13 14 16 15 16 17 17 17
9 11 10 12 10 11 11 11 11 10 12 11 12 11 10 8 10 10 11 9 8 8 9 8 7 7 8 9 9 10 10 9 10 11 11 10 10 11 12 11 12 12 11 12 13 14 15 15 16 17 17 18 19 20
12 12 11 11 11 11 10 12 13 12 11 11 11 9 9 9 12 12 10 9 9 9 10 9 8 9 9 9 10 10 10 9 9 11 12 11 11 11 12 13 13 14 13 12 13 14 16 17 18 19 20 22 23 21
12 12 10 8 8 9 9 9 9 10 11 11 9 10 10 13 12 10 10 10 10 10 10 9 8 8 8 10 11 11 11 10 10 11 11 12 12 11 10 12 13 13 13 13 13 14 17 18 19 20 22 22 23 23
9 10 12 10 10 9 11 11 11 11 9 9 9 11 12 11 11 10 10 10 10 10 11 12 12 10 9 11 12 12 13 14 14 13 13 14 15 15 14 14 15 16 15 15 16 17 17 18 19 20 21 23 26 25
10 9 10 12 12 11 10 10 9 9 10 8 8 9 10 11 11 11 11 11 11 10 10 11 12 12 12 12 12 12 12 12 12 13 13 14 15 17 15 16 16 17 17 19 20 19 20 21 22 23 24 25 26 26
11 9 10 12 13 11 8 8 8 10 10 10 11 11 12 12 11 12 12 11 10 10 10 10 12 11 12 12 14 14 13 12 11 11 12 13 14 16 16 17 17 18 18 18 20 22 23 24 25 25 26 26 25 25
9 9 10 10 11 10 10 11 11 11 11 11 13 11 11 12 12 13 13 13 12 11 12 12 13 12 13 13 13 13 14 14 16 15 14 15 16 16 17 18 17 18 19 20 21 22 23 24 24 25 26 27 29 27
11 11 12 13 13 13 12 12 11 12 12 13 12 14 13 13 13 14 15 14 13 13 14 12 13 13 12 12 14 14 14 16 16 16 16 16 17 18 19 19 19 19 20 22 22 23 24 25 25 26 27 28 28 29
13 12 13 14 14 15 13 13 14 15 15 15 15 15 14 14 15 16 15 16 16 14 14 15 15 15 16 16 16 17 17 17 18 18 19 20 20 20 20 20 20 21 22 23 24 25 26 26 26 27 28 29 29 29

GFSWCAN_con_lsi_123.txt.gz
Lid_Strength_Index
2 1 2 2 2 4 4 3 2 3 4 3 2 3 3 3 3 2 4 0 3 6 6 5 7 8 9 9 12 10 11 10 10 11 11 11 11 10 11 9 10 12 13 13 12 14 16 9 9 12 11 10 10 11
1 2 3 4 4 5 5 3 2 3 3 3 3 3 3 3 2 1 4 2 2 5 8 6 6 6 6 6 8 8 9 9 8 9 9 9 10 9 10 13 8 12 9 11 11 12 10 9 8 8 9 10 10 11
2 3 4 4 4 5 5 4 4 3 3 3 3 3 3 3 2 2 3 3 5 8 8 8 8 6 4 4 3 8 6 5 7 4 6 7 10 8 11 10 10 9 7 10 10 10 10 9 8 8 9 10 10 10
3 4 4 5 4 5 5 4 4 4 4 4 4 3 4 3 3 4 5 4 5 7 10 10 5 7 4 4 4 3 4 4 4 5 7 8 9 6 9 8 9 8 7 9 10 9 9 9 9 9 10 10 10 10
4 4 4 4 5 5 5 4 5 4 4 5 5 4 4 4 4 3 3 3 3 7 10 10 6 5 4 4 4 4 4 5 6 8 7 8 6 7 7 8 9 7 9 10 11 8 9 10 9 9 10 10 10 11
4 5 5 4 4 4 4 4 5 4 4 5 5 5 5 5 3 4 7 3 3 4 8 12 6 6 5 4 5 4 5 6 6 7 7 5 5 6 9 11 8 7 6 5 8 7 9 9 9 9 10 10 10 10
4 4 5 4 4 4 4 4 4 5 5 5 4 4 4 4 4 5 7 5 5 3 6 10 10 7 5 5 5 5 5 6 5 6 6 6 6 5 8 10 8 7 6 6 6 7 10 9 10 9 9 10 10 11
4 5 5 4 4 4 4 5 5 4 4 4 4 4 4 4 4 6 5 4 4 5 6 10 11 9 5 7 8 5 7 5 5 6 6 7 6 5 9 8 7 7 6 7 7 6 8 8 9 9 9 10 11 12
4 5 4 4 4 4 4 5 5 5 5 4 4 3 3 5 7 6 5 3 1 4 8 8 11 12 6 7 7 6 5 8 5 7 7 6 8 10 8 7 7 7 7 7 6 7 8 9 9 10 10 10 11 12
3 4 4 4 3 4 4 4 5 5 5 4 4 6 9 6 6 4 3 5 5 5 6 8 7 10 7 7 8 7 6 9 10 8 6 7 8 6 6 6 6 6 5 5 8 9 9 10 10 10 10 10 11 12
4 3 3 4 4 4 4 4 5 5 4 4 7 8 5 5 4 5 8 8 8 9 8 8 7 9 5 8 8 6 8 8 11 9 9 10 9 7 6 6 6 5 5 5 6 6 7 8 9 10 11 11 11 11
3 3 4 4 4 4 4 4 4 3 4 4 4 3 3 5 7 10 11 9 10 12 9 9 8 7 5 4 7 7 10 8 13 6 10 11 8 6 6 6 6 5 5 6 5 6 7 7 8 9 10 11 11 12
3 4 4 4 4 4 4 5 5 5 5 3 5 8 7 8 12 11 15 12 12 10 8 7 8 6 5 5 7 8 11 11 7 10 11 9 6 6 6 6 6 5 5 5 6 6 7 8 9 10 12 13 14 16
3 3 4 4 4 4 4 5 4 3 3 7 8 13 11 12 11 11 10 10 9 7 6 7 7 7 7 8 9 11 9 8 12 13 11 8 7 7 6 6 7 9 9 8 9 9 11 12 13 14 14 14 16 17
3 3 4 4 4 5 5 5 4 3 5 9 9 13 12 10 9 10 9 9 7 5 6 6 6 6 8 10 8 9 11 12 11 11 9 7 7 7 7 8 9 10 10 11 11 13 14 15 15 15 15 14 14 16
3 4 4 4 5 5 4 4 4 4 6 8 9 11 9 10 10 10 10 9 6 5 4 5 8 9 10 9 10 11 11 12 10 9 8 8 8 8 9 9 10 10 10 11 12 13 14 14 14 14 14 14 15 15
3 5 4 5 5 5 4 5 5 8 9 10 10 9 9 9 10 9 7 7 4 5 9 7 10 11 8 10 11 7 10 9 8 9 7 7 9 9 10 10 11 11 11 12 12 12 13 12 13 14 14 14 14 14
5 4 4 4 4 4 5 5 7 8 11 9 10 10 9 9 9 9 7 5 4 5 6 8 7 10 10 11 10 7 7 9 9 8 8 8 8 9 10 11 11 11 11 12 12 12 12 13 13 12 12 12 12 12
4 4 4 4 5 5 8 7 6 10 10 9 8 8 8 9 8 7 6 5 3 3 5 6 9 9 9 7 7 7 8 7 9 9 10 9 9 10 10 11 11 11 12 12 12 12 11 11 10 10 10 11 11 11
3 4 4 4 3 7 9 9 5 8 10 9 8 9 8 8 7 7 6 6 5 5 7 8 8 7 6 5 5 5 6 7 7 9 10 10 10 10 11 11 10 11 11 11 11 11 11 11 10 10 10 11 11 12
3 4 3 3 5 6 8 8 9 9 8 9 8 8 8 6 7 7 6 4 6 6 7 6 6 6 5 5 4 4 6 6 5 5 8 10 9 9 10 9 10 10 10 11 11 11 11 11 10 10 11 11 11 12
4 4 4 4 7 7 8 7 9 8 9 9 8 7 8 9 8 7 5 6 6 7 6 5 5 6 6 6 6 5 6 7 7 7 8 8 9 10 10 10 10 10 10 10 10 11 10 10 10 11 11 12 12 13
4 4 6 7 9 9 10 7 10 9 11 10 8 10 9 9 8 6 8 6 7 6 5 5 5 5 6 6 7 7 7 7 7 7 8 7 8 8 9 9 9 10 10 10 9 10 10 11 11 12 12 13 13 14
4 8 9 10 9 11 8 10 8 9 9 10 10 12 11 9 8 8 10 8 7 6 6 6 5 6 6 7 7 8 7 6 8 8 7 8 10 10 9 9 9 9 9 10 10 10 11 12 13 13 13 13 14 15
9 10 9 11 9 10 11 11 11 10 12 11 12 11 10 8 10 10 10 9 8 9 8 7 6 6 7 7 7 8 8 7 8 8 8 7 8 9 10 10 10 10 9 11 12 12 13 13 13 13 14 15 17 18
12 11 10 10 10 10 10 12 12 11 10 11 10 9 8 10 11 11 8 9 9 9 8 7 7 7 7 7 8 8 8 7 7 9 9 8 9 9 11 12 12 12 10 10 11 12 13 13 14 16 18 19 20 18
12 11 9 7 8 8 9 8 8 9 11 11 9 10 10 12 11 9 8 8 8 8 8 8 8 7 7 8 8 8 8 8 8 9 9 9 9 8 9 10 11 11 10 10 11 11 13 14 16 17 18 19 20 20
8 8 11 9 9 8 10 9 9 10 8 7 7 10 11 10 9 8 8 9 8 8 9 9 9 7 7 8 9 9 11 11 11 11 11 11 11 11 11 11 11 12 11 11 12 13 14 16 17 18 19 21 23 22
9 7 8 11 10 9 9 9 8 7 7 6 8 8 8 8 8 8 8 8 8 8 9 9 10 9 10 10 9 9 9 9 10 12 12 13 13 14 12 12 13 14 15 16 17 16 17 18 19 20 21 22 22 22
9 7 9 10 11 10 7 7 7 8 7 7 7 8 8 8 9 8 8 8 9 9 9 9 9 9 10 10 11 11 10 9 9 9 10 11 12 13 13 14 14 15 15 17 19 21 21 22 22 22 22 22 21 22
7 8 9 9 9 8 8 8 8 8 8 8 8 8 7 9 10 10 10 10 10 9 9 10 10 9 9 10 10 11 12 12 12 11 11 12 13 13 13 14 14 15 17 18 19 19 20 21 21 22 23 24 25 23
9 10 10 11 10 10 10 9 9 9 9 10 9 10 10 10 10 12 13 12 11 11 11 9 10 10 9 10 11 11 12 13 13 13 12 13 14 14 15 15 16 16 18 19 19 20 21 21 22 23 24 24 25 25
10 10 10 10 11 12 10 11 12 12 12 12 11 11 11 11 12 13 13 13 13 12 11 11 11 11 12 12 13 13 13 13 14 14 15 15 16 16 16 16 17 18 19 20 21 22 22 23 23 24 24 25 26 26

GFSWCAN_con_lsi_126.txt.gz
Lid_Strength_Index
2 2 2 1 1 1 1 1 1 0 0 0 0 1 2 1 1 1 2 -0 3 6 4 4 3 5 6 6 9 8 9 10 10 13 13 12 11 10 10 10 11 13 14 14 13 15 17 9 10 12 9 8 8 9
1 1 1 2 2 2 3 3 2 2 1 1 2 3 2 2 3 1 4 1 0 4 5 2 2 1 2 3 6 8 9 10 9 11 10 9 11 10 10 14 8 13 10 13 12 13 10 9 8 7 7 8 9 10
2 2 3 2 3 4 3 2 2 2 2 2 2 2 2 2 3 3 3 2 2 6 5 5 5 3 2 3 2 9 8 7 7 4 7 8 10 8 12 11 10 8 7 11 11 11 10 9 7 7 7 8 8 9
3 3 3 3 4 5 3 2 2 2 2 4 4 3 3 3 3 2 3 1 2 4 8 7 3 4 3 3 3 3 4 4 3 4 7 8 10 7 10 9 10 8 8 10 11 11 10 8 8 8 8 8 9 9
3 3 3 4 5 4 3 3 2 2 2 3 3 3 3 3 3 3 2 3 1 4 8 8 6 5 4 4 4 4 4 5 6 7 7 9 7 7 7 8 10 7 9 10 12 9 8 9 8 8 9 10 10 10
3 4 4 5 4 4 4 3 3 2 2 2 2 2 2 2 2 3 7 1 1 2 7 11 6 7 5 5 5 5 5 5 5 7 7 6 5 7 10 11 8 6 6 6 8 7 8 9 8 9 10 10 10 10
4 4 4 4 4 4 4 4 4 4 4 4 2 2 2 2 2 5 7 4 3 2 7 11 11 7 6 6 5 6 5 5 5 6 7 8 6 6 9 11 8 7 6 7 7 8 10 9 10 9 9 10 9 10
4 4 4 4 4 4 4 4 4 4 4 4 4 4 4 4 3 5 4 3 4 5 7 11 11 9 6 8 9 5 7 6 6 8 7 7 6 6 10 8 7 7 7 7 7 6 7 7 8 9 9 10 11 12
4 3 4 4 5 5 5 5 5 5 4 3 3 3 3 4 6 5 6 4 0 4 9 9 11 13 6 7 7 7 6 8 7 7 7 7 8 10 8 8 8 7 8 8 6 7 7 9 9 10 10 10 11 12
4 4 4 5 5 5 5 5 5 5 5 4 4 6 9 7 6 6 4 6 6 6 6 9 8 10 7 8 8 8 7 9 10 8 6 8 10 6 6 6 6 6 6 6 8 9 9 9 10 10 10 10 11 11
4 4 4 4 4 4 4 5 4 4 4 5 7 8 6 6 5 6 9 9 8 10 7 7 7 9 6 9 9 7 8 8 11 9 9 10 11 7 5 6 5 5 5 6 6 6 6 8 9 10 10 10 11 12
4 3 3 3 4 4 4 4 3 4 5 5 5 4 4 6 6 10 11 9 10 12 8 8 8 7 6 5 7 7 10 9 13 7 10 12 9 6 6 6 6 6 6 6 6 6 6 7 8 9 10 11 11 12
3 3 4 4 4 4 4 4 5 5 4 3 5 9 8 8 12 11 15 12 12 9 8 8 9 7 7 5 8 8 11 12 7 11 12 10 7 6 6 6 7 6 6 6 6 6 7 7 8 9 12 14 14 16
4 4 4 4 4 4 4 4 4 3 4 6 9 12 11 12 12 11 10 10 8 7 7 7 7 8 7 9 9 11 9 9 12 13 12 9 7 7 7 7 8 8 8 8 9 10 12 13 13 14 14 15 16 17
4 4 4 4 4 4 4 4 4 3 4 8 9 13 12 10 10 9 8 7 6 5 6 7 7 7 8 10 9 10 12 13 11 12 10 7 7 7 8 8 9 10 10 11 11 13 14 14 15 15 15 15 15 17
3 4 5 4 4 4 4 3 3 3 5 8 9 10 9 10 11 10 9 8 5 5 5 6 8 10 10 10 11 12 12 12 11 9 8 7 8 8 8 9 9 9 9 10 12 13 14 15 15 14 14 14 16 16
4 5 4 4 4 4 4 4 4 7 9 10 10 9 9 10 10 10 8 7 4 6 9 7 11 11 8 10 11 9 11 10 9 9 8 7 8 9 9 9 10 10 11 11 13 13 13 13 13 14 15 15 15 15
5 4 4 4 4 3 4 4 7 8 11 9 10 10 9 9 9 9 8 5 5 6 6 8 6 10 10 12 11 9 9 9 9 8 8 8 8 9 9 10 10 10 11 12 12 13 12 13 13 13 13 13 13 13
5 4 4 4 4 5 8 7 6 11 10 9 8 8 8 9 8 7 6 5 3 3 5 6 9 10 10 8 8 9 8 8 10 10 9 9 9 9 10 10 10 10 11 12 12 12 12 11 11 11 11 12 12 11
4 4 4 4 4 7 9 9 5 9 10 9 8 8 8 8 7 7 6 5 5 5 7 9 9 8 8 7 7 7 7 8 9 11 11 10 9 10 10 10 10 11 11 11 10 11 11 11 10 10 10 11 10 11
4 4 4 3 5 6 7 8 9 8 8 9 8 8 9 7 7 6 6 4 7 7 8 7 8 7 6 5 5 5 6 6 6 7 9 11 10 9 10 9 10 10 11 11 10 10 11 10 10 10 10 10 11 12
4 4 4 5 7 7 8 7 8 8 9 9 8 8 9 10 9 8 6 6 7 8 7 6 6 6 6 7 6 5 6 6 6 7 7 8 9 10 9 10 10 10 10 9 9 10 9 9 9 10 10 12 12 14
4 4 6 6 8 9 10 6 9 9 11 10 9 10 10 10 9 6 8 7 8 6 6 6 6 6 7 6 6 6 6 6 7 7 8 8 8 8 9 9 8 9 10 9 8 9 9 10 11 11 12 12 14 15
5 8 9 10 9 12 8 10 9 10 10 10 11 12 11 10 8 9 10 9 8 7 7 7 6 7 7 6 7 7 7 6 7 7 8 8 9 9 9 9 8 8 8 8 9 10 10 11 12 12 12 13 13 14
9 11 9 11 9 10 12 11 11 11 12 11 12 12 11 9 10 10 10 10 9 9 9 7 7 7 8 8 8 8 7 7 8 9 8 7 8 8 9 9 9 9 8 9 10 11 12 12 12 13 13 14 15 16
12 11 10 10 10 11 11 13 12 11 11 12 11 10 9 10 12 11 10 10 10 9 9 8 8 7 7 6 8 8 8 7 7 8 8 8 8 9 10 11 11 11 8 9 10 12 13 12 13 16 17 18 18 18
12 11 9 7 8 9 10 9 9 10 11 11 10 11 11 12 12 11 10 9 9 9 8 8 8 7 8 8 8 8 8 8 8 9 9 9 9 8 8 10 11 10 9 9 10 11 12 14 15 16 17 18 19 20
9 8 11 10 9 8 11 10 10 11 9 8 8 11 11 11 11 10 10 9 8 8 8 8 8 7 8 9 9 9 10 10 10 10 10 11 11 11 12 11 11 11 10 10 11 11 12 14 16 17 19 21 22 22
9 7 8 12 10 9 9 9 9 8 7 7 9 9 9 8 8 8 9 8 7 8 9 9 10 9 9 9 8 9 9 9 11 12 13 14 14 14 12 12 13 13 14 15 14 14 15 16 17 19 21 22 22 21
9 7 9 10 11 10 8 7 7 8 7 7 6 7 7 8 9 8 8 8 8 8 8 8 9 9 10 10 10 10 9 9 9 9 11 12 13 13 13 14 15 15 16 17 19 20 19 21 20 22 22 22 22 23
7 8 9 9 9 8 8 8 8 8 8 8 8 8 7 9 9 9 10 10 9 9 9 9 9 8 9 10 10 11 12 11 10 11 11 12 12 12 13 13 14 15 17 18 18 19 20 20 21 22 23 24 24 23
9 10 10 11 9 9 9 9 9 9 8 9 8 8 9 9 10 11 12 12 11 10 10 9 9 9 9 10 10 10 11 11 11 11 12 12 13 13 14 15 15 16 17 18 19 19 20 21 22 23 23 24 24 25
9 9 10 10 10 11 10 10 10 11 10 11 10 10 10 10 12 13 12 12 12 12 11 11 11 10 11 11 11 12 12 12 13 13 13 14 14 14 15 15 16 17 18 19 20 21 22 22 23 23 24 25 25 25